     2.11           OBSERVATION DATA    G (GPS)             RINEX VERSION / TYPE
teqc 2010Oct21 OPUS Account 20111025 20:47:31UTC            PGM / RUN BY / DATE
Q 1522                                                      MARKER NAME
1170                                                        MARKER NUMBER
CSMIDDLETON NGS                                             OBSERVER / AGENCY
0220390614 TRIMBLE R7 2.32                                  REC # / TYPE / VERS
12668881 TRM41249.00 NONE                                   ANT # / TYPE
  -738054.1991 -5496299.9304  3140268.0498                  APPROX POSITION XYZ
        2.0000        0.0000        0.0000                  ANTENNA: DELTA H/E/N
     1     1                                                WAVELENGTH FACT L1/2
     5    L1    L2    C1    P1    P2                        # / TYPES OF OBSERV
    15                                                      LEAP SECONDS
  2011     7    29     0     0   30.0000000     GPS         TIME OF FIRST OBS
                                                            END OF HEADER
 11  7 29  0  0 30.0000000  0  8G09G17G28G10G04G27G20G02
 -29703293.53157 -22886806.54355  22164463.5474                   22164462.7194
 -88966450.53958 -69274758.95356  21452865.7894                   21452863.8954
-112962449.19957 -87982712.81255  21885666.1724                   21885664.9574
 -14960129.00857 -11613843.82054  23382477.9384                   23382477.8204
 -64128451.08258 -49919475.88757  19899227.0394                   19899225.6724
 -44972515.43057 -34475447.68455  22418883.7734                   22418882.1884
 -26964521.40656 -20961544.40653  24300265.4064                   24300263.9924
 -30571837.12958 -23774998.94955  22204244.3524                   22204241.6094
 11  7 29  0  1  0.0000000  0  8G09G17G28G10G04G27G20G02
 -29841471.01647 -22994477.29345  22138169.0634                   22138169.4224
 -89049846.48848 -69339742.82446  21436996.4224                   21436994.1294
-113024591.52047 -88031135.42645  21873841.1954                   21873839.3834
 -15167997.51247 -11775819.15244  23342921.3594                   23342921.9024
 -64252431.39148 -50016083.90647  19875634.5634                   19875633.0434
 -45094706.63747 -34570661.64545  22395631.3054                   22395630.4024
 -27040058.14146 -21020404.21943  24285891.7114                   24285889.8954
 -30763542.50048 -23924379.68445  22167763.6644                   22167760.9574
 11  7 29  0  1 30.0000000  0  8G09G17G28G10G04G27G20G02
 -29978943.80947 -23101598.92245  22112009.2894                   22112008.4774
 -89133086.61748 -69404605.27346  21421156.2664                   21421154.3444
-113086292.13347 -88079213.85245  21862099.8284                   21862098.1334
 -15375724.34447 -11937684.11344  23303391.8914                   23303392.0704
 -64375774.69948 -50112195.56646  19852163.3054                   19852161.5004
 -45216339.85247 -34665440.78545  22372485.6804                   22372484.2194
 -27115041.04746 -21078832.45743  24271622.3204                   24271621.5314
 -30954876.73448 -24073471.23045  22131354.0394                   22131351.3364
 11  7 29  0  2  0.0000000  0  8G09G17G28G10G04G27G20G02
 -30115719.33247 -23208177.23845  22085981.8834                   22085981.0634
 -89216179.46148 -69469352.95746  21405344.5634                   21405342.2344
-113147558.74647 -88126954.10245  21850440.9614                   21850439.3554
 -15583314.10547 -12099442.23444  23263888.9844                   23263889.9574
 -64498489.70348 -50207817.64546  19828811.5234                   19828809.5944
 -45337422.96947 -34759791.26645  22349444.4384                   22349442.9414
 -27189479.06246 -21136836.12943  24257456.9224                   24257455.7424
 -31145846.32448 -24222278.65645  22095013.7424                   22095010.8324
 11  7 29  0  2 30.0000000  0  8G09G17G28G10G04G27G20G02
 -30251799.12547 -23314213.41845  22060086.1804                   22060086.4264
 -89299126.87948 -69533987.31646  21389559.8594                   21389557.9694
-113208393.80547 -88174358.08245  21838864.3914                   21838862.6764
 -15790765.90646 -12261092.85544  23224411.4144                   23224412.7854
 -64620578.71148 -50302951.92246  19805578.5864                   19805576.7504
 -45457958.26647 -34853714.89545  22326507.0084                   22326505.9184
 -27263374.67246 -21194417.10243  24243394.2114                   24243394.4924
 -31336452.02748 -24370802.51245  22058742.3834                   22058739.6374
 11  7 29  0  3  0.0000000  0  8G09G17G28G10G04G27G20G02
 -30387186.12147 -23419709.77345  22034322.6644                   22034322.2774
 -89381931.98848 -69598510.78546  21373802.3984                   21373800.3364
-113268800.14148 -88221427.99245  21827370.1804                   21827367.6684
 -15998079.57846 -12422635.84844  23184961.4224                   23184961.6954
 -64742045.57048 -50397601.41446  19782464.3674                   19782462.6994
 -45577949.04347 -34947214.21145  22303673.7114                   22303672.6884
 -27336731.92646 -21251578.57443  24229435.4534                   24229434.7154
 -31526695.48448 -24519044.10546  22022540.8984                   22022538.2544
 11  7 29  0  3 30.0000000  0  8G09G17G28G10G04G27G20G02
 -30521873.75847 -23524661.14545  22008693.1024                   22008692.1134
 -89464588.66848 -69662918.60546  21358073.6174                   21358071.6684
-113328771.34847 -88268158.82045  21815957.8594                   21815956.0004
 -16205245.67646 -12584063.85544  23145539.0784                   23145539.8324
 -64862884.46548 -50491761.57846  19759469.4384                   19759467.5394
 -45697389.41447 -35040284.65645  22280945.1024                   22280943.5274
 -27409545.38346 -21308316.37143  24215580.0084                   24215579.4964
 -31716569.35248 -24666997.71945  21986409.0704                   21986405.8794
 11  7 29  0  4  0.0000000  0  8G09G17G28G10G04G27G20G02
 -30655858.64547 -23629064.95345  21983196.1254                   21983195.7814
 -89547095.16448 -69727209.39846  21342373.4454                   21342370.7854
-113388305.06647 -88314548.76245  21804628.6884                   21804627.0234
 -16412258.18746 -12745372.17244  23106145.3134                   23106146.2274
 -64983093.30548 -50585430.79747  19736594.2194                   19736592.5124
 -45816276.68048 -35132924.09845  22258321.4924                   22258320.4064
 -27481813.09846 -21364628.84043  24201827.8674                   24201826.9414
 -31906069.62148 -24814660.20746  21950347.9694                   21950344.9104
 11  7 29  0  4 30.0000000  0  8G09G17G28G10G04G27G20G02
 -29213716.03547 -22505317.46145  22257626.8364                   22257625.7384
 -88054028.27748 -68563780.66446  21626494.5634                   21626491.8404
-111871979.02747 -87132996.04345  22093176.3204                   22093174.4344
 -15043686.66046 -11678952.66844  23366576.5004                   23366576.6604
 -63527248.43048 -49451006.20746  20013632.4384                   20013630.7774
 -44359186.97747 -33997529.54345  22535596.6884                   22535595.5594
 -25978113.38746 -20192914.82843  24487972.5004                   24487971.1174
 -30519768.45348 -23734425.48446  22214152.1174                   22214149.4494
 11  7 29  0  5  0.0000000  0  8G09G17G28G10G04G27G20G02
 -29346290.91047 -22608622.53945  22232398.8984                   22232397.7274
 -88136230.40648 -68627834.28546  21610851.9304                   21610849.6214
-111930633.96947 -87178701.21945  22082014.7664                   22082013.1134
 -15250378.17646 -11840010.86744  23327243.6484                   23327244.1134
 -63646194.85248 -49543691.71946  19990997.6254                   19990995.9064
 -44476965.07447 -34089304.69545  22513184.7584                   22513182.9804
 -26049288.56646 -20248376.02343  24474428.9844                   24474426.9414
 -30708513.62148 -23881499.59046  22178235.1644                   22178232.5824
 11  7 29  0  5 30.0000000  0  8G09G17G28G10G04G27G20G02
 -29478159.28547 -22711377.12545  22207304.6644                   22207302.8914
 -88218279.43748 -68691768.60246  21595238.4384                   21595236.3754
-111988848.69948 -87224063.37545  22070936.5554                   22070934.6294
 -15456903.13346 -12000939.25444  23287943.1954                   23287944.1414
 -63764510.00048 -49635885.32846  19968483.0704                   19968481.1484
 -44594188.04747 -34180647.28945  22490877.2814                   22490876.0784
 -26119917.73846 -20303411.75443  24460987.7504                   24460986.6414
 -30896878.45348 -24028277.32446  22142390.4064                   22142387.3634
 11  7 29  0  6  0.0000000  0  8G09G17G28G10G04G27G20G02
 -29609320.13347 -22813580.36345  22182345.9224                   22182343.5944
 -88300174.71948 -68755583.11346  21579654.5554                   21579651.8634
-112046622.49247 -87269081.93745  22059942.8834                   22059940.4654
 -15663257.56646 -12161734.77744  23248675.0784                   23248675.9454
 -63882193.63348 -49727586.84847  19946088.6484                   19946086.8714
 -44710855.18747 -34271556.76245  22468675.9064                   22468675.1994
 -26190001.16846 -20358022.20343  24447652.0784                   24447650.4454
 -31084860.75448 -24174756.98446  22106618.4224                   22106615.9534
 11  7 29  0  6 30.0000000  0  8G09G17G28G10G04G27G20G02
 -29739773.87547 -22915232.62945  22157520.6954                   22157518.9344
 -88381917.25048 -68819278.61346  21564099.2584                   21564096.9494
-112103956.04747 -87313757.48045  22049032.7974                   22049030.6844
 -15869438.94947 -12322395.47744  23209439.6644                   23209440.4064
 -63999247.09848 -49818797.32047  19923814.1024                   19923812.3594
 -44826967.79747 -34362034.13745  22446580.2974                   22446579.8874
 -26259540.45746 -20412208.69143  24434419.7814                   24434418.2894
 -31272460.23448 -24320938.34446  22070919.7114                   22070916.5594
 11  7 29  0  7  0.0000000  0  8G09G17G28G10G04G27G20G02
 -29869517.68047 -23016331.70345  22132831.8444                   22132830.0164
 -88463504.61348 -68882853.18446  21548573.6254                   21548571.2194
-112160847.34047 -87358088.39145  22038206.5864                   22038205.0864
 -16075441.03947 -12482916.43444  23170239.3834                   23170239.9224
 -64115668.69148 -49909515.43746  19901659.6094                   19901657.9774
 -44942523.68047 -34452077.69945  22424591.7584                   22424590.3014
 -26328533.95746 -20465969.85543  24421288.5634                   24421288.9184
 -31459672.93048 -24466818.31645  22035293.8444                   22035291.2034
 11  7 29  0  7 30.0000000  0  8G09G17G28G10G04G27G20G02
 -29998546.31647 -23116873.48045  22108278.4064                   22108275.9534
 -88544931.30148 -68946302.55946  21533078.5084                   21533076.3054
-112217290.71147 -87402070.27045  22027465.9924                   22027464.4384
 -16281255.60947 -12643291.27744  23131074.2274                   23131074.0784
 -64231453.63748 -49999737.46146  19879626.5164                   19879624.5704
 -45057517.56247 -34541683.34445  22402708.7584                   22402707.1374
 -26396977.18446 -20519302.32843  24408264.4774                   24408264.4414
 -31646492.40248 -24612391.87546  21999743.7424                   21999740.8094
 11  7 29  0  8  0.0000000  0  8G09G17G28G10G04G27G20G02
 -30126862.02347 -23216859.76245  22083860.5474                   22083859.0434
 -88626200.01647 -69009628.84046  21517613.6334                   21517611.7584
-112273289.07447 -87445705.39545  22016809.5554                   22016807.7304
 -16486881.61347 -12803519.18044  23091944.2504                   23091944.7814
 -64346605.01248 -50089465.79347  19857714.0704                   19857712.4844
 -45171952.37947 -34630853.35245  22380932.3524                   22380931.4654
 -26464873.67046 -20572208.66242  24395344.8834                   24395343.9884
 -31832919.82048 -24757659.95745  21964267.4694                   21964264.5824
 11  7 29  0  8 30.0000000  0  8G09G17G28G10G04G27G20G02
 -30254464.13747 -23316289.96145  22059578.3984                   22059576.9694
 -88707310.36747 -69072831.73046  21502178.9454                   21502176.8284
-112328842.16447 -87488993.54745  22006238.2894                   22006236.7544
 -16692314.92247 -12963596.98044  23052851.1884                   23052851.8834
 -64461123.34048 -50178700.84447  19835922.1094                   19835920.2894
 -45285828.05547 -34719587.66445  22359262.8364                   22359261.5704
 -26532223.96146 -20624689.40643  24382527.7424                   24382527.4224
 -32018953.59048 -24902621.27346  21928866.3444                   21928863.9614
 11  7 29  0  9  0.0000000  0  8G09G17G28G10G04G27G20G02
 -30381353.93447 -23415165.12545  22035432.9224                   22035431.2544
 -88788264.10947 -69135912.58246  21486774.5234                   21486772.0824
-112383951.41447 -87531935.85245  21995751.0394                   21995749.1684
 -16897553.87147 -13123523.30144  23013795.5234                   23013795.8484
 -64575010.72748 -50267444.25846  19814249.8134                   19814248.0984
 -45399146.41847 -34807887.69145  22337698.8984                   22337697.8364
 -26599030.56246 -20676746.51643  24369815.5164                   24369814.9884
 -32204593.81648 -25047275.95745  21893540.3284                   21893537.3594
 11  7 29  0  9 30.0000000  0  8G09G17G28G10G04G27G20G02
 -30507528.63747 -23513483.08645  22011422.1804                   22011421.5434
 -88869058.16847 -69198869.00846  21471399.3754                   21471397.1254
-112438614.13347 -87574530.22345  21985349.7274                   21985347.1994
 -17102592.10247 -13283293.21144  22974778.2814                   22974779.2934
 -64688264.92648 -50355694.27346  19792698.5474                   19792696.3164
 -45511904.99647 -34895751.55145  22316242.1804                   22316240.3554
 -26665291.30946 -20728378.32443  24357206.2734                   24357205.5164
 -32389836.75848 -25191621.03545  21858289.8594                   21858286.6644
 11  7 29  0 10  0.0000000  0  9G09G17G28G10G04G12G27G20G02
 -30632990.88747 -23611245.88745  21987547.5864                   21987546.7544
 -88949695.22747 -69261703.10246  21456054.2664                   21456052.5314
-112492832.96147 -87616778.68045  21975031.7424                   21975030.3634
 -17307429.14547 -13442906.37144  22935799.0634                   22935799.4494
 -64800889.42648 -50443453.60947  19771266.5164                   19771264.9024
   1262421.59856   1026365.32853  24533409.7194                   24533407.3634
 -45624106.91047 -34983181.63745  22294890.5634                   22294888.5904
 -26731010.14846 -20779587.79743  24344701.2894                   24344699.9184
 -32574683.52048 -25335657.43446  21823114.7664                   21823111.6134
 11  7 29  0 10 30.0000000  0  9G09G17G28G10G04G12G27G20G02
 -30757745.43048 -23708457.23445  21963808.0474                   21963807.7034
 -89030180.36348 -69324418.79346  21440739.0944                   21440736.8794
-112546613.16847 -87658685.38345  21964798.3834                   21964795.8484
 -17512066.34847 -13602363.80944  22896857.9534                   22896858.3524
 -64912889.91048 -50530726.70346  19749953.3754                   19749952.0234
   1051925.31646    862342.33243  24493353.8444                   24493353.0124
 -45735757.44547 -35070182.06645  22273643.6804                   22273642.8014
 -26796192.83246 -20830379.50842  24332297.2034                   24332296.4304
 -32759137.98448 -25479388.14146  21788013.9304                   21788010.8204
 11  7 29  0 11  0.0000000  0  9G09G17G28G10G04G12G27G20G02
 -30881795.31248 -23805119.49245  21940202.1644                   21940200.8094
 -89110516.35248 -69387018.28146  21425451.6804                   21425449.1334
-112599958.08647 -87700252.88345  21954646.9384                   21954645.3094
 -17716503.24647 -13761665.13744  22857954.5784                   22857954.9804
 -65024270.16848 -50617516.51247  19728758.3914                   19728756.5864
    841472.50046    698353.27043  24453305.8834                   24453304.7734
 -45846859.95347 -35156755.46145  22252501.7664                   22252501.0744
 -26860843.50446 -20880756.66043  24319994.7424                   24319993.9884
 -32943201.76248 -25622814.41046  21752988.1724                   21752984.9104
 11  7 29  0 11 30.0000000  0  9G09G17G28G10G04G12G27G20G02
 -29429721.96947 -22673633.78145  22216522.0704                   22216521.9534
 -87615286.52048 -68221904.13346  21709984.4614                   21709981.4304
-111077451.66047 -86513884.27345  22244370.1804                   22244368.4414
 -16345314.96946 -12693206.61344  23118882.6954                   23118882.8524
 -63559612.86748 -49476225.09846  20007473.6414                   20007471.9494
   2206486.32846   1762000.42243  24713059.8914                   24713057.2274
 -44381996.95347 -34015303.79345  22531255.9844                   22531254.8164
 -25349546.77746 -19703122.82443  24607584.6954                   24607584.0354
 -31551453.29748 -24538335.03546  22017829.1254                   22017825.6214
 11  7 29  0 12  0.0000000  0  9G09G17G28G10G04G12G27G20G02
 -29552374.40647 -22769207.12145  22193182.0084                   22193181.8984
 -87695336.34448 -68284280.62946  21694751.5634                   21694749.6024
-111129938.25447 -86554782.96545  22234382.0704                   22234380.5594
 -16549352.40647 -12852196.70344  23080055.9694                   23080056.0394
 -63669767.04348 -49562059.51246  19986511.7584                   19986509.9024
   1996113.85946   1598073.91443  24673027.4064                   24673024.5664
 -44492016.98447 -34101033.71145  22510319.3364                   22510318.8674
 -25413148.69546 -19752682.75443  24595482.2194                   24595481.2814
 -31734744.28548 -24681159.13346  21982949.5474                   21982946.6334
 11  7 29  0 12 30.0000000  0  9G09G17G28G10G04G12G27G20G02
 -29674325.24647 -22864233.77745  22169975.7424                   22169975.6484
 -87775239.95747 -68346543.21546  21679546.3364                   21679544.3594
-111181993.03547 -86595345.16445  22224476.8834                   22224474.7974
 -16753182.34447 -13011025.11344  23041268.2034                   23041268.8134
 -63779306.39548 -49647414.83647  19965666.8284                   19965665.0594
   1785787.57846   1434183.35943  24633003.2584                   24633001.0594
 -44601493.58247 -34186340.18045  22489487.5234                   22489486.7464
 -25476224.67646 -19801832.89843  24583479.5234                   24583477.8444
 -31917644.04748 -24823678.38346  21948145.1174                   21948141.7234
 11  7 29  0 13  0.0000000  0  9G09G17G28G10G04G12G27G20G02
 -29795576.65647 -22958715.41045  22146902.8594                   22146902.3484
 -87854999.58647 -68408693.58646  21664368.6954                   21664366.6414
-111233618.21547 -86635572.61345  22214653.0314                   22214651.1764
 -16956803.24647 -13169690.64844  23002520.5004                   23002520.5904
 -63888233.75448 -49732293.28146  19944939.2814                   19944937.3284
   1575506.61346   1270328.13343  24592988.0234                   24592985.8134
 -44710429.19147 -34271225.09045  22468757.5084                   22468756.3594
 -25538777.96546 -19850575.77343  24571575.4694                   24571575.3634
 -32100153.57848 -24965893.53546  21913414.1254                   21913411.4804
 11  7 29  0 13 30.0000000  0  9G09G17G28G10G04G12G27G20G02
 -29916123.12947 -23052647.72745  22123963.0084                   22123963.2734
 -87934609.47748 -68470727.28946  21649219.5004                   21649217.1564
-111284808.53547 -86675461.21945  22204911.5864                   22204909.7854
 -17160206.05947 -13328186.23044  22963813.8834                   22963814.2424
 -63996544.51648 -49816691.27346  19924328.1024                   19924325.8914
   1365278.79747   1106514.30943  24552983.3674                   24552981.5314
 -44818818.78947 -34355684.53945  22448131.5234                   22448130.9924
 -25600804.13346 -19898907.82843  24559772.9304                   24559771.1454
 -32282266.19948 -25107799.42246  21878759.2734                   21878756.6954
 11  7 29  0 14  0.0000000  0  9G09G17G28G10G04G12G27G20G02
 -30035968.50047 -23146033.74645  22101157.5234                   22101156.8754
 -88014073.35948 -68532647.21146  21634097.6564                   21634095.5864
-111335567.73447 -86715013.87945  22195252.3914                   22195250.6914
 -17363390.89147 -13486511.96544  22925149.4304                   22925148.8954
 -64104243.34848 -49900612.41846  19903833.5864                   19903832.0234
   1155102.33646    942740.54744  24512987.8284                   24512987.0704
 -44926666.67647 -34439721.86345  22427608.9454                   22427607.9774
 -25662307.97346 -19946832.96143  24548068.9614                   24548067.6174
 -32463984.20748 -25249397.80946  21844179.5234                   21844176.5784
 11  7 29  0 14 30.0000000  0  9G09G17G28G10G04G12G27G20G02
 -30155111.05147 -23238872.11345  22078485.1954                   22078484.4534
 -88093388.97347 -68594451.60246  21619004.4454                   21619002.6844
-111385894.66447 -86754229.73045  22185675.4064                   22185673.8284
 -17566352.46147 -13644663.75844  22886527.5234                   22886526.6454
 -64211329.13348 -49984055.87546  19883455.9454                   19883454.0354
    944980.86747    779009.58244  24473002.8134                   24473002.3364
 -45033971.42247 -34523335.97745  22407189.5234                   22407188.9064
 -25723288.96546 -19994350.60243  24536464.9224                   24536463.2934
 -32645304.90648 -25390686.61746  21809675.3834                   21809672.2704
 11  7 29  0 15  0.0000000  0  9G09G17G28G10G04G12G27G20G02
 -30273542.28947 -23331156.19945  22055948.8984                   22055948.4614
 -88172547.60948 -68656133.66846  21603941.0004                   21603939.2544
-111435780.37547 -86793101.74645  22176182.5554                   22176181.1914
 -17769078.60547 -13802632.06644  22847949.1334                   22847949.2544
 -64317794.25048 -50067015.69946  19863196.2274                   19863194.9574
    734925.33247    615330.02343  24433030.7814                   24433029.8834
 -45140724.89547 -34606520.52345  22386875.3594                   22386874.6844
 -25783739.16446 -20041454.68042  24524961.1644                   24524960.2304
 -32826218.23448 -25531657.98046  21775248.6334                   21775246.0004
 11  7 29  0 15 30.0000000  0  9G09G17G28G10G04G12G27G20G02
 -30391267.61347 -23422890.23045  22033547.0234                   22033545.5394
 -88251554.05147 -68717697.14846  21588906.9064                   21588905.2544
-111485230.55547 -86831634.41445  22166772.9694                   22166771.5314
 -17971570.78947 -13960418.08644  22809415.8674                   22809416.4304
 -64423644.60248 -50149496.48846  19843053.6644                   19843051.9064
    524932.14546    451699.00843  24393070.1564                   24393069.5084
 -45246932.80547 -34689279.94545  22366664.5394                   22366663.2664
 -25843665.14146 -20088150.20742  24513557.8204                   24513557.4774
 -33006728.06648 -25672314.94146  21740898.5394                   21740896.1564
 11  7 29  0 16  0.0000000  0  9G09G17G28G10G04G12G27G20G02
 -30508286.16847 -23514073.52745  22011278.5474                   22011277.4884
 -88330407.15647 -68779141.12946  21573900.6954                   21573899.9654
-111534244.41047 -86869827.07445  22157445.4534                   22157444.5044
 -18173824.62147 -14118018.37144  22770928.3834                   22770927.9654
 -64528880.02348 -50231498.09846  19823027.6884                   19823025.8164
    315004.19146    288118.84443  24353120.8524                   24353122.7584
 -45352594.71947 -34771613.91845  22346557.6644                   22346556.7114
 -25903066.75445 -20134437.22742  24502252.7664                   24502253.5314
 -33186832.34048 -25812655.88346  21706626.1564                   21706622.5664
 11  7 29  0 16 30.0000000  0  9G09G17G28G10G04G12G27G20G02
 -30624592.97347 -23604702.21945  21989145.5474                   21989144.8284
 -88409102.44148 -68840462.14146  21558926.1804                   21558924.5594
-111582816.74247 -86907675.68745  22148202.8594                   22148200.9414
 -18375831.38347 -14275426.12144  22732488.0314                   22732487.7384
 -64633496.26648 -50313017.23847  19803120.1094                   19803118.7894
    105149.02346    124595.39143  24313187.7504                   24313187.2974
 -45457705.98847 -34853518.82045  22326555.5084                   22326554.3794
 -25961939.89546 -20180312.39843  24491049.8364                   24491049.9224
 -33366524.82848 -25952675.94146  21672431.6954                   21672428.7344
 11  7 29  0 17  0.0000000  0  8G09G17G28G10G04G12G27G02
 -30740189.63747 -23694777.55945  21967148.7734                   21967147.5554
 -88487640.38347 -68901660.55146  21543981.0164                   21543979.0784
-111630949.35547 -86945181.67245  22139043.6564                   22139041.5004
 -18577589.00847 -14432639.77344  22694094.8284                   22694094.1764
 -64737495.77348 -50394055.81646  19783329.8984                   19783327.7154
   -104632.55946    -38870.72343  24273267.8984                   24273267.7544
 -45562268.68747 -34934996.25445  22306658.2034                   22306657.1174
 -33545805.41848 -26092375.05946  21638315.9924                   21638312.7504
 11  7 29  0 17 30.0000000  0  8G09G17G28G10G04G12G27G02
 -30855074.70747 -23784298.39845  21945287.3054                   21945285.7274
 -88566018.62948 -68962734.51246  21529065.7034                   21529064.0124
-111678641.04747 -86982344.07845  22129968.1254                   22129966.6644
 -18779091.38347 -14589654.50044  22655749.7664                   22655749.4924
 -64840877.65648 -50474613.12146  19763656.6254                   19763654.8714
   -314337.28146   -202276.96543  24233361.6954                   24233361.5354
 -45666281.56648 -35016045.26645  22286865.1484                   22286864.2424
 -33724671.19148 -26231750.93746  21604278.5004                   21604275.5984
 11  7 29  0 18  0.0000000  0  8G09G17G28G10G04G12G27G02
 -29393819.46547 -22645657.94145  22223354.5864                   22223353.4494
 -87068809.64548 -67796078.16446  21813975.0084                   21813973.2154
-110150465.21147 -85791557.75845  22420770.2424                   22420769.0434
 -17404903.64847 -13518858.75044  22917249.2114                   22917249.6954
 -63368214.25048 -49327083.19946  20043895.6094                   20043893.4064
   1051469.14546    861987.85243  24493265.4384                   24493265.5514
 -44194316.83247 -33869059.77045  22566970.3914                   22566970.1254
 -32327690.41848 -25143194.43446  21870115.2114                   21870111.8444
 11  7 29  0 18 30.0000000  0  8G09G17G28G10G04G12G27G02
 -29507264.34047 -22734056.56645  22201766.3674                   22201765.3444
 -87146850.94548 -67856889.57446  21799125.2274                   21799122.5514
-110197257.55547 -85828019.38345  22411866.2114                   22411864.7424
 -17605868.07847 -13675454.30944  22879006.4454                   22879006.8204
 -63470345.96948 -49406666.34847  20024460.1644                   20024458.8874
    841942.71946    698720.50443  24453394.1644                   24453392.8594
 -44297214.31247 -33949239.64545  22547389.6484                   22547388.9104
 -32505705.91848 -25281907.77046  21836239.9384                   21836236.9344
 11  7 29  0 19  0.0000000  0  8G09G17G28G10G04G12G27G02
 -29619982.38747 -22821888.82445  22180317.3594                   22180314.8984
 -87224716.16048 -67917563.76646  21784307.6094                   21784305.5354
-110243593.80147 -85864125.60245  22403048.2814                   22403046.5784
 -17806550.95747 -13831830.47344  22840817.6884                   22840817.7974
 -63571846.97348 -49485758.03546  20005145.5784                   20005143.5864
    632515.43846    535530.41843  24413541.1724                   24413540.2814
 -44399547.77747 -34028980.03945  22527916.3364                   22527914.8834
 -32683287.23048 -25420282.77746  21802447.1884                   21802444.4064
 11  7 29  0 19 30.0000000  0  8G09G17G28G10G04G12G27G02
 -29731974.59447 -22909155.50445  22159005.9614                   22159004.3954
 -87302405.44947 -67978100.88346  21769523.2664                   21769521.4024
-110289474.23847 -85899876.63345  22394317.9694                   22394316.2704
 -18006949.02747 -13987984.69544  22802682.6334                   22802683.6054
 -63672718.57848 -49564359.28146  19985950.1254                   19985948.4654
    423188.94546    372418.92243  24373707.9534                   24373707.5514
 -44501318.43448 -34108281.86745  22508550.2734                   22508549.2934
 -32860434.12948 -25558319.28146  21768737.1804                   21768733.8914
 11  7 29  0 20  0.0000000  0  8G09G17G28G10G04G12G27G02
 -29843236.89547 -22995853.39845  22137833.1484                   22137831.9184
 -87379913.64147 -68038496.87546  21754774.2894                   21754772.2274
-110334894.73447 -85935269.27045  22385674.8134                   22385672.9774
 -18207054.50447 -14143910.95345  22764604.1484                   22764604.2274
 -63772957.47748 -49642467.51247  19966875.4454                   19966873.5164
    213970.13346    209391.32044  24333895.3594                   24333894.5434
 -44602522.32448 -34187142.07445  22489291.7584                   22489291.0514
 -33037140.30548 -25696012.36346  21735111.4614                   21735108.1994
 11  7 29  0 20 30.0000000  0  8G09G17G28G10G04G12G27G02
 -29953773.49247 -23081985.83645  22116798.4384                   22116797.4304
 -87457245.04748 -68098755.11346  21740058.9224                   21740056.5234
-110379859.64147 -85970306.88745  22377117.7504                   22377116.4574
 -18406867.22347 -14299609.06644  22726581.3524                   22726580.9304
 -63872568.35248 -49720086.37546  19947919.6254                   19947918.3984
      4857.22347     46446.21144  24294102.4144                   24294102.0004
 -44703163.87948 -34265564.08645  22470140.0944                   22470138.9534
 -33213408.76248 -25833364.37946  21701568.4384                   21701564.8714
 11  7 29  0 21  0.0000000  0  8G09G17G28G10G04G12G27G02
 -30063587.70347 -23167555.34045  22095901.5234                   22095900.8094
 -87534401.74247 -68158877.22346  21725376.1564                   21725373.9654
-110424371.88347 -86004991.81245  22368648.0234                   22368646.3634
 -18606386.54347 -14455078.55944  22688613.6644                   22688614.0864
 -63971555.14548 -49797218.94146  19929083.5554                   19929081.5864
   -204150.56647   -116416.98444  24254329.5234                   24254329.8754
 -44803246.71147 -34343550.73845  22451095.1334                   22451094.3404
 -33389240.93448 -25970376.42646  21668108.7034                   21668105.3164
 11  7 29  0 21 30.0000000  0  8G09G17G28G10G04G12G27G02
 -30172681.26247 -23252563.32845  22075142.1024                   22075139.9534
 -87611385.01647 -68218864.19546  21710726.7194                   21710724.9064
-110468433.58647 -86039325.66045  22360262.8754                   22360261.4774
 -18805610.33647 -14610317.79344  22650702.9144                   22650702.5234
 -64069920.34048 -49873867.13746  19910365.1254                   19910363.2234
   -413052.12947   -279197.34444  24214577.0004                   24214576.8204
 -44902773.02747 -34421103.73045  22432156.1024                   22432155.4414
 -33564637.48448 -26107049.03546  21634731.7814                   21634728.8324
 11  7 29  0 22  0.0000000  0  8G09G17G28G10G04G12G27G02
 -30281046.57047 -23337003.84845  22054520.7584                   22054519.2544
 -87688186.52747 -68278709.53946  21696111.9844                   21696109.9534
-110512036.99647 -86073302.37545  22351965.7814                   22351964.5204
 -19004526.96947 -14765317.66845  22612849.9304                   22612850.0784
 -64167657.19148 -49950025.72346  19891766.4534                   19891764.8674
   -621838.05947   -441887.68044  24174846.5474                   24174846.1884
 -45001735.51247 -34498217.37945  22413324.1254                   22413322.8714
 -33739589.43048 -26243375.17646  21601439.6724                   21601436.3594
 11  7 29  0 22 30.0000000  0  8G09G17G28G10G04G12G27G02
 -30388687.46147 -23420879.86745  22034037.0314                   22034035.9414
 -87764809.04748 -68338415.41046  21681531.1334                   21681529.0314
-110555185.85547 -86106924.91045  22343755.0704                   22343753.5124
 -19203135.91047 -14920077.78545  22575056.0314                   22575055.5784
 -64264769.80548 -50025697.89546  19873286.6094                   19873284.7464
   -830509.18446   -604488.50444  24135137.6644                   24135137.8984
 -45100138.20747 -34574894.83645  22394598.6174                   22394597.7344
 -33914098.59848 -26379356.31646  21568231.6484                   21568228.3204
 11  7 29  0 23  0.0000000  0  8G09G17G28G10G04G12G27G02
 -30495605.98047 -23504193.02045  22013691.7584                   22013690.5004
 -87841253.51248 -68397982.53946  21666984.7194                   21666982.1334
-110597881.46947 -86140194.25845  22335630.4304                   22335628.7734
 -19401434.78147 -15074596.31245  22537320.7734                   22537320.5744
 -64361260.64848 -50100885.55947  19854924.9774                   19854923.3914
  -1039064.29346   -766998.88344  24095451.0084                   24095450.7504
 -45197983.10947 -34651137.64545  22375979.6884                   22375978.2664
 -34088165.47748 -26514992.80546  21535107.9224                   21535104.1024
 11  7 29  0 23 30.0000000  0  8G09G17G28G10G04G12G27G02
 -30601804.13747 -23586944.85245  21993482.3524                   21993481.5004
 -87917521.09048 -68457411.83646  21652470.9454                   21652468.6954
-110640125.99647 -86173112.12145  22327591.4844                   22327589.2504
 -19599421.57047 -15228871.65244  22499645.3594                   22499644.8714
 -64457132.41448 -50175590.82047  19836680.8674                   19836679.4024
  -1247502.66847   -929418.35944  24055786.3284                   24055785.3244
 -45295272.42647 -34726947.53145  22357466.0784                   22357465.0314
 -34261790.27348 -26650284.82446  21502067.3914                   21502064.4574
 11  7 29  0 24  0.0000000  0  8G09G17G28G10G04G12G27G02
 -30707285.23847 -23669137.93045  21973410.0004                   21973409.6724
 -87993614.05148 -68516705.06246  21637991.3524                   21637988.7234
-110681922.48447 -86205680.87145  22319638.0314                   22319636.0124
 -19797095.30547 -15382903.04344  22462029.1804                   22462027.8714
 -64552388.88748 -50249816.64147  19818554.3444                   19818552.6644
  -1455825.12146  -1091747.44144  24016144.2734                   24016143.4224
 -45392009.86747 -34802327.39545  22339057.6094                   22339056.1844
 -34434974.95348 -26785233.89146  21469111.6644                   21469108.2934
 11  7 29  0 24 30.0000000  0  8G09G17G28G10G04G12G27G02
 -30812049.27747 -23750772.25445  21953474.3984                   21953472.9694
 -88069531.92248 -68575861.86345  21623544.1804                   21623541.9024
-110723270.73047 -86237900.33245  22311769.2194                   22311767.9654
 -19994451.68447 -15536687.14544  22424473.4304                   22424472.6884
 -64647030.56248 -50323563.40246  19800544.5634                   19800542.7424
  -1664028.60547  -1253983.82044  23976524.5234                   23976523.4414
 -45488195.46547 -34877277.23045  22320753.6724                   22320752.5004
 -34607717.70348 -26919838.59846  21436239.8524                   21436236.6484
 11  7 29  0 25  0.0000000  0  8G09G17G28G10G04G12G27G02
 -30916095.55547 -23831847.29745  21933674.7344                   21933673.4804
 -88145272.29747 -68634880.35546  21609131.6644                   21609129.2854
-110764169.64847 -86269769.68745  22303986.8674                   22303985.2814
 -20191485.75447 -15690220.09444  22386978.6334                   22386978.1334
 -64741057.32448 -50396831.00846  19782651.9224                   19782650.2114
  -1872109.68047  -1416124.84043  23936927.9774                   23936925.9144
 -45583829.00047 -34951796.89545  22302555.1254                   22302554.1294
 -34780016.28948 -27054097.19946  21403452.6174                   21403448.8284
 11  7 29  0 25 30.0000000  0  8G09G17G28G10G04G12G27G02
 -29444002.09847 -22684761.50845  22213805.1174                   22213803.7034
 -86645413.30547 -67466159.09046  21894544.9454                   21894542.9454
-109229199.44947 -85073689.05144  22596081.5474                   22596080.0314
 -18812767.96947 -14615894.48844  22649340.3674                   22649339.6604
 -63259048.02048 -49242018.55546  20064668.5554                   20064666.9884
   -504639.97347   -350563.95343  24197148.3524                   24197146.1644
 -44103488.81247 -33798285.08245  22584255.2894                   22584253.3754
 -33376444.66448 -25960404.98046  21670543.2814                   21670540.1844
 11  7 29  0 26  0.0000000  0  8G09G17G28G10G04G12G27G02
 -29546615.73047 -22764720.21145  22194278.2664                   22194276.7934
 -86720798.96948 -67524901.16846  21880199.8444                   21880197.6094
-109269202.49647 -85104860.28945  22588469.8834                   22588467.7384
 -19009147.16047 -14768917.13344  22611970.7584                   22611969.3674
 -63351849.22348 -49314331.16446  20047009.4774                   20047007.2384
   -712470.16447   -512509.45344  24157600.1254                   24157597.3714
 -44198021.28547 -33871946.77045  22566265.9454                   22566265.2464
 -33547851.95748 -26093969.07046  21637925.3674                   21637922.4614
 11  7 29  0 26 30.0000000  0  8G09G17G28G10G04G12G27G02
 -29648513.05548 -22844120.74245  22174888.5164                   22174887.0634
 -86796005.29747 -67583503.52746  21865888.1024                   21865886.2194
-109308757.12547 -85135682.13745  22580942.0314                   22580940.7704
 -19205192.50847 -14921679.65245  22574663.4534                   22574663.8284
 -63444038.37948 -49386166.87547  20029466.4614                   20029464.7974
   -920170.32847   -674353.71943  24118075.7584                   24118071.8594
 -44292003.50447 -33945179.69545  22548381.9064                   22548379.8014
 -33718811.17248 -26227184.02046  21605393.1094                   21605389.5634
 11  7 29  0 27  0.0000000  0  8G09G17G28G10G04G12G27G02
 -29749700.00047 -22922967.75045  22155632.4774                   22155631.3284
 -86871036.80548 -67641969.65246  21851610.6484                   21851608.4844
-109347868.90247 -85166158.89145  22573500.0394                   22573498.5664
 -19400904.90647 -15074182.73445  22537421.2974                   22537421.1724
 -63535621.90248 -49457530.65246  20012038.7504                   20012036.8094
  -1127743.01247   -836098.64543  24078575.7114                   24078573.4024
 -44385441.32047 -34017988.42645  22530601.1724                   22530600.4024
 -33889326.30148 -26360052.89546  21572944.9534                   21572942.2704
 11  7 29  0 27 30.0000000  0  8G09G17G28G10G04G12G27G02
 -29850179.39847 -23001263.41045  22136512.2274                   22136510.5274
 -86945895.71548 -67700301.30146  21837365.4384                   21837363.4344
-109386540.10947 -85196292.37144  22566141.4064                   22566139.6884
 -19596283.03947 -15226425.35545  22500241.7814                   22500241.3054
 -63626602.73048 -49528424.80146  19994725.7344                   19994723.9844
  -1335188.33647   -997744.29744  24039100.1334                   24039097.5554
 -44478337.68447 -34090375.21545  22512923.4614                   22512922.4804
 -34059398.56648 -26492576.70346  21540581.5784                   21540578.2074
 11  7 29  0 28  0.0000000  0  8G09G17G28G10G04G12G27G02
 -29949951.00848 -23079007.55145  22117526.3594                   22117525.1644
 -87020580.24248 -67758497.06646  21823153.4304                   21823151.8984
-109424770.42247 -85226082.28544  22558866.0704                   22558864.4494
 -19791322.16447 -15378403.81245  22463127.0084                   22463126.5164
 -63716981.43048 -49598849.75046  19977526.8204                   19977525.5984
  -1542503.07047  -1159288.18744  23999649.4144                   23999646.0124
 -44570692.53548 -34162340.06645  22495349.0634                   22495348.0594
 -34229025.59848 -26624753.56646  21508302.4384                   21508299.2934
 11  7 29  0 28 30.0000000  0  8G09G17G28G10G04G12G27G02
 -30049015.31247 -23156200.53545  22098675.3914                   22098673.4264
 -87095089.86348 -67816556.52346  21808974.4224                   21808972.8674
-109462560.05547 -85255528.77745  22551674.8984                   22551674.1644
 -19986018.47347 -15530115.12545  22426077.0474                   22426077.7774
 -63806758.84448 -49668806.16447  19960442.9774                   19960441.4454
  -1749683.96947  -1320727.80144  23960222.9384                   23960222.2814
 -44662506.60947 -34233883.52345  22477876.8444                   22477876.4064
 -34398206.48048 -26756582.78546  21476108.5234                   21476105.2734
 11  7 29  0 29  0.0000000  0  8G09G17G28G10G04G12G27G02
 -30147370.10547 -23232840.66045  22079959.3594                   22079957.3954
 -87169420.54747 -67874476.56646  21794830.2974                   21794827.8014
-109499906.49647 -85284629.97345  22544568.3834                   22544566.8594
 -20180365.07047 -15681553.95745  22389094.5084                   22389094.5164
 -63895933.18048 -49738292.66446  19943473.6564                   19943472.0944
  -1956726.34446  -1482059.45344  23920824.6334                   23920823.0004
 -44753777.85948 -34305004.02045  22460509.4064                   22460508.1804
 -34566937.12948 -26888061.16846  21444000.0084                   21443996.9064
 11  7 29  0 29 30.0000000  0  8G09G17G28G10G04G12G27G02
 -30245020.35948 -23308931.79745  22061376.9924                   22061374.9694
 -87243575.81648 -67932259.92246  21780718.8834                   21780716.8954
-109536814.11747 -85313389.19544  22537545.1644                   22537543.5594
 -20374362.59847 -15832720.78145  22352177.7034                   22352177.6024
 -63984509.88348 -49807313.46147  19926617.8754                   19926616.5084
  -2163631.75046  -1643284.36744  23881451.6334                   23881450.3244
 -44844511.19948 -34375705.34045  22443243.5784                   22443242.5634
 -34735220.64548 -27019191.14146  21411976.7424                   21411973.5944
 11  7 29  0 30  0.0000000  0  8G09G17G28G10G04G12G27G02
 -30341970.48047 -23384477.36345  22042927.5704                   22042926.5394
 -87317559.15648 -67989909.30546  21766640.2894                   21766638.3134
-109573287.06647 -85341809.73844  22530604.5314                   22530603.5234
 -20568010.83247 -15983615.42245  22315328.1174                   22315327.1764
 -64072493.49248 -49875872.12147  19909875.3834                   19909873.8244
  -2370401.21146  -1804403.36344  23842104.1024                   23842103.6254
 -44934710.87147 -34445990.82845  22426079.1254                   22426078.1884
 -34903059.50848 -27149974.63746  21380037.9064                   21380034.4614
 11  7 29  0 30 30.0000000  0  8G09G17G28G10G04G12G27G02
 -30438221.80148 -23459478.40245  22024611.4694                   22024610.3594
 -87391370.42648 -68047424.58646  21752594.2734                   21752592.3714
-109609326.35247 -85369892.34444  22523746.3674                   22523744.5824
 -20761306.32847 -16134235.22345  22278544.5554                   22278543.9614
 -64159885.88748 -49943970.08646  19893245.0474                   19893243.4574
  -2577032.60546  -1965414.72744  23802783.4694                   23802783.3674
 -45024378.44148 -34515861.69545  22409015.6884                   22409015.2734
 -35070452.95348 -27280411.03946  21348184.2504                   21348180.6994
 11  7 29  0 31  0.0000000  0  8G09G17G28G10G04G12G27G02
 -30533775.02748 -23533935.49245  22006428.9384                   22006427.8364
 -87465008.73847 -68104805.10546  21738581.9144                   21738579.2854
-109644932.37547 -85397637.36344  22516970.8444                   22516969.4774
 -20954245.19947 -16284577.13745  22241830.2734                   22241829.3094
 -64246688.11748 -50011608.18046  19876726.9064                   19876725.5704
  -2783523.16846  -2126316.36144  23763489.9924                   23763489.6524
 -45113514.93447 -34585318.72345  22392053.2114                   22392052.7504
 -35237400.25448 -27410499.80946  21316415.1724                   21316411.8834
 11  7 29  0 31 30.0000000  0  8G09G17G28G10G04G12G27G02
 -30628636.35947 -23607853.43045  21988376.4924                   21988376.1414
 -87538478.52747 -68162054.30146  21724601.0084                   21724598.7384
-109680110.63747 -85425049.04744  22510276.6024                   22510275.0904
 -21146828.78547 -16434642.20345  22205182.4844                   22205181.7464
 -64332906.72748 -50078791.51647  19860320.4454                   19860318.9414
  -2989875.87546  -2287110.62544  23724221.6884                   23724223.1524
 -45202126.40647 -34654366.64545  22375191.5704                   22375190.5084
 -35403905.57848 -27540244.17646  21284730.2344                   21284726.5474
 11  7 29  0 32  0.0000000  0  8G09G17G28G10G04G12G27G02
 -30722802.13748 -23681229.38745  21970457.9454                   21970457.1134
 -87611774.93047 -68219168.39546  21710652.9534                   21710650.6804
-109714857.28947 -85452124.43444  22503664.3984                   22503663.3554
 -21339048.87147 -16584424.02045  22168603.8134                   22168603.3204
 -64418538.50048 -50145517.56647  19844025.1174                   19844023.2424
  -3196084.02047  -2447792.22345  23684983.3524                   23684982.3524
 -45290209.37147 -34723002.73845  22358429.8284                   22358428.8984
 -35569963.47748 -27669639.90246  21253130.1804                   21253126.8524
 11  7 29  0 32 30.0000000  0  8G09G17G28G10G04G12G27G02
 -29240854.69147 -22526465.15245  22252462.7424                   22252462.5864
 -86109479.46147 -67048548.55946  21996530.3364                   21996528.5904
-108173756.28147 -84251266.58644  22796925.9534                   22796925.9264
 -19955479.75447 -15506318.14845  22431888.8364                   22431887.2074
 -62928166.33648 -48984188.61746  20127633.4064                   20127632.3874
  -1826722.16047  -1380756.97744  23945563.4614                   23945563.8594
 -43802346.39547 -33563629.03545  22641560.7274                   22641560.1484
 -34160151.54748 -26571085.11746  21521408.7274                   21521405.3954
 11  7 29  0 33  0.0000000  0  8G09G17G28G10G04G12G27G02
 -29333640.40248 -22598765.72745  22234807.0394                   22234805.5904
 -86182435.43048 -67105397.37946  21982647.1954                   21982645.1644
-108207649.64147 -84277677.05944  22790477.5704                   22790475.9224
 -20146969.75447 -15655531.06245  22395448.8364                   22395448.7664
 -63012636.29748 -49050009.37147  20111559.3914                   20111557.5234
  -2032640.55547  -1541212.80144  23906378.7584                   23906379.0434
 -43889383.25047 -33631449.98045  22624998.5944                   22624997.0664
 -34325319.09448 -26699787.05546  21489978.1254                   21489974.8794
 11  7 29  0 33 30.0000000  0  8G09G17G28G10G04G12G27G02
 -29425735.06647 -22670527.82445  22217281.2424                   22217281.1454
 -86255217.63347 -67162110.80546  21968797.0004                   21968795.4454
-108241114.48447 -84303753.64544  22784108.6484                   22784107.6484
 -20338086.72747 -15804453.31245  22359080.8914                   22359080.2194
 -63096525.00848 -49115377.19946  20095596.1024                   20095594.0234
  -2238408.67247  -1701551.56644  23867222.4614                   23867221.7664
 -43975896.16047 -33698862.67245  22608535.5704                   22608534.3164
 -34490037.82848 -26828139.28946  21458633.2734                   21458629.9144
 11  7 29  0 34  0.0000000  0  8G09G17G28G10G04G12G27G02
 -29517140.35247 -22741752.73045  22199887.3834                   22199886.7854
 -86327825.87948 -67218688.66446  21954980.0634                   21954978.4534
-108274151.84047 -84329497.06644  22777822.0234                   22777820.4384
 -20528827.28547 -15953082.24245  22322783.4924                   22322783.2074
 -63179834.03548 -49180293.32446  20079742.6724                   20079741.0664
  -2444023.77047  -1861771.14143  23828094.1094                   23828093.6094
 -44061886.68747 -33765868.31245  22592172.1254                   22592170.9024
 -34654307.39848 -26956141.51646  21427373.9694                   21427370.1294
 11  7 29  0 34 30.0000000  0  8G09G17G28G10G04G12G27G02
 -29607860.30547 -22812443.62945  22182624.1174                   22182623.4384
 -86400262.39548 -67275132.71546  21941196.7114                   21941193.9844
-108306765.46147 -84354910.35944  22771615.5554                   22771614.1254
 -20719190.28547 -16101417.00845  22286559.2114                   22286558.5314
 -63262567.66048 -49244761.09047  20063998.7734                   20063997.2234
  -2649486.58647  -2021872.03143  23788996.0784                   23788995.3094
 -44147358.68447 -33832469.89145  22575906.9534                   22575906.1994
 -34818129.43048 -27083795.00846  21396199.5784                   21396196.1564
 11  7 29  0 35  0.0000000  0  8G09G17G28G10G04G12G27G02
 -29697894.10247 -22882599.85245  22165491.6024                   22165490.7304
 -86472524.90647 -67331441.19146  21927445.0704                   21927443.0944
-108338953.94947 -84379992.35944  22765491.0474                   22765489.3444
 -20909170.50047 -16249453.47745  22250406.7894                   22250406.6764
 -63344725.38748 -49308780.10546  20048365.0004                   20048363.4344
  -2854792.38347  -2181850.56643  23749928.0164                   23749927.0044
 -44232311.42647 -33898666.87545  22559740.5474                   22559740.1914
 -34981501.36748 -27211097.77746  21365110.6174                   21365106.9694
 11  7 29  0 35 30.0000000  0  8G09G17G28G10G04G12G27G02
 -29787243.80547 -22952223.00845  22148488.5084                   22148488.1884
 -86544613.69548 -67387614.28546  21913726.9304                   21913724.8094
-108370718.85947 -84404744.32044  22759446.5394                   22759444.6994
 -21098765.05147 -16397189.43445  22214328.4534                   22214327.2934
 -63426309.93748 -49372352.49646  20032840.2274                   20032838.3404
  -3059939.51247  -2341705.49643  23710889.6174                   23710887.2034
 -44316747.02347 -33964460.89145  22543673.0944                   22543672.8674
 -35144423.39548 -27338049.98846  21334107.6724                   21334104.2814
 11  7 29  0 36  0.0000000  0  8G09G17G28G10G04G12G27G02
 -29875910.36348 -23021313.87145  22131616.1804                   22131615.5864
 -86616527.69548 -67443651.18446  21900042.3444                   21900040.1294
-108402060.48847 -84429166.45744  22753481.5704                   22753481.3874
 -21287970.10547 -16544621.87145  22178324.0004                   22178322.5744
 -63507322.03948 -49435478.81646  20017424.0314                   20017422.3364
  -3264925.10547  -2501434.50844  23671881.7894                   23671880.7774
 -44400666.38347 -34029852.63745  22527704.5704                   22527703.0234
 -35306894.27348 -27464650.65246  21303190.3524                   21303187.0824
 11  7 29  0 36 30.0000000  0  8G09G17G28G10G04G12G27G02
 -29963895.36347 -23089873.62545  22114872.9924                   22114872.1024
 -86688266.68448 -67499551.71546  21886390.5394                   21886388.7544
-108432979.83247 -84453259.50444  22747598.4534                   22747597.3954
 -21476782.15247 -16691748.09045  22142393.9614                   22142392.7664
 -63587763.55548 -49498160.52746  20002116.3524                   20002114.3954
  -3469747.40247  -2661036.25044  23632906.1254                   23632905.0514
 -44484070.92647 -34094843.23844  22511832.8204                   22511831.4964
 -35468913.59048 -27590899.45346  21272359.3984                   21272355.9024
 11  7 29  0 37  0.0000000  0  8G09G17G28G10G04G12G27G02
 -30051202.41047 -23157905.12545  22098259.3984                   22098258.1054
 -86759832.16448 -67555317.03946  21872772.1254                   21872770.1684
-108463480.06647 -84477025.98444  22741794.2974                   22741793.2704
 -21665200.07847 -16838567.19545  22106539.0394                   22106538.5164
 -63667638.57848 -49560400.80146  19986916.6484                   19986915.1994
  -3674406.00447  -2820510.43044  23593960.6334                   23593959.5474
 -44566964.49247 -34159435.66845  22496059.2034                   22496057.8484
 -35630482.75848 -27716797.48046  21241613.6254                   21241609.6484
 11  7 29  0 37 30.0000000  0  8G09G17G28G10G04G12G27G02
 -30137832.53947 -23225409.14845  22081774.2814                   22081772.8484
 -86831223.64548 -67610946.77346  21859187.2424                   21859184.7934
-108493561.70747 -84500466.28544  22736070.5004                   22736069.4614
 -21853219.57447 -16985075.84445  22070760.1334                   22070759.7464
 -63746947.85248 -49622200.24646  19971824.8134                   19971823.0664
  -3878897.99247  -2979854.81245  23555047.4774                   23555046.1134
 -44649347.91447 -34223630.58244  22480381.9534                   22480380.3134
 -35791600.82048 -27842343.99246  21210953.7424                   21210950.1644
 11  7 29  0 38  0.0000000  0  8G09G17G28G10G04G12G27G02
 -30223785.16047 -23292385.25845  22065418.1334                   22065416.3284
 -86902438.87548 -67666439.18445  21845635.3754                   21845633.4804
-108523223.69547 -84523579.57444  22730425.1884                   22730424.8674
 -22040835.41447 -17131269.94545  22035057.9224                   22035057.1954
 -63825691.44548 -49683558.89146  19956839.8444                   19956838.4414
  -4083219.37547  -3139066.21945  23516166.5704                   23516165.5904
 -44731220.72747 -34287427.62145  22464801.8914                   22464800.5274
 -35952265.30148 -27967537.05946  21180380.2504                   21180376.8204
 11  7 29  0 38 30.0000000  0  8G09G17G28G10G04G12G27G02
 -30309065.73447 -23358837.66845  22049189.5944                   22049188.4884
 -86973480.85548 -67721796.59046  21832116.0164                   21832113.9734
-108552470.71147 -84546369.53544  22724860.0944                   22724859.8874
 -22228048.09047 -17277149.91045  21999432.3284                   21999432.1684
 -63903874.76648 -49744480.96946  19941962.2424                   19941960.7624
  -4287371.31647  -3298145.60244  23477317.4694                   23477316.2424
 -44812588.27347 -34350830.93044  22449317.9694                   22449316.9024
 -36112479.37948 -28092379.17646  21149892.5394                   21149889.1374
 11  7 29  0 39  0.0000000  0  8G09G17G28G10G04G12G27G02
 -30393673.71947 -23424765.99645  22033089.1094                   22033088.2304
 -87044347.02348 -67777016.98045  21818631.4384                   21818628.9734
-108581301.51247 -84568835.18044  22719374.0864                   22719373.1484
 -22414851.91847 -17422711.28545  21963884.7734                   21963884.6724
 -63981497.18048 -49804965.96946  19927190.9844                   19927190.0274
  -4491349.08647  -3457089.26644  23438501.6334                   23438500.1484
 -44893449.28147 -34413839.54745  22433930.9454                   22433929.8554
 -36272240.08648 -28216868.01646  21119491.5394                   21119487.7704
 11  7 29  0 39 30.0000000  0  8G09G17G28G10G04G12G27G02
 -28902185.93047 -22262567.75045  22316909.8054                   22316908.8284
 -85539612.45347 -66604496.55546  22104972.3914                   22104970.7344
-107034294.05147 -83363374.85544  23013760.3594                   23013758.2114
 -21025814.97347 -16340344.80545  22228210.0474                   22228209.0204
 -62483136.10948 -48637411.88346  20212320.0704                   20212318.3324
  -3119721.77047  -2388288.71944  23699512.8834                   23699512.3164
 -43398380.63747 -33248851.03945  22718432.7974                   22718431.8984
 -34856119.67248 -27113397.52746  21388969.8754                   21388966.4184
 11  7 29  0 40  0.0000000  0  8G09G17G28G10G04G12G27G02
 -28985452.96547 -22327451.19545  22301064.8524                   22301063.5784
 -85610125.05948 -66659441.45346  22091554.6484                   22091552.8484
-107062294.82047 -83385193.72744  23008431.6564                   23008430.6334
 -21211790.05147 -16485260.38745  22192820.2894                   22192819.2704
 -62559641.85548 -48697026.76647  20197761.6024                   20197760.2034
  -3323344.10947  -2546955.42244  23660764.5944                   23660764.1764
 -43478233.08247 -33311073.74645  22703237.9384                   22703237.1174
 -35014971.58248 -27237178.20746  21358741.6174                   21358737.8554
 11  7 29  0 40 30.0000000  0  8G09G17G28G10G04G12G27G02
 -29068055.38747 -22391816.74245  22285345.9064                   22285344.8984
 -85680463.68747 -66714250.79345  22078169.4304                   22078167.6684
-107089885.64547 -83406693.14144  23003181.4774                   23003179.7704
 -21397349.37947 -16629852.02045  22157509.2034                   22157508.6564
 -62635595.41448 -48756211.35946  20183308.0704                   20183306.5554
  -3526788.62547  -2705483.52744  23622051.0784                   23622050.5784
 -43557587.12947 -33372908.11745  22688137.0474                   22688135.9654
 -35173372.36348 -27360607.35246  21328598.7274                   21328595.1804
 11  7 29  0 41  0.0000000  0  8G09G17G28G10G04G12G27G02
 -29149994.75047 -22455665.63745  22269753.8674                   22269752.6914
 -85750627.86747 -66768924.18745  22064817.5394                   22064815.5984
-107117067.24647 -83427873.69544  22998008.8364                   22998007.8484
 -21582489.09847 -16774116.70345  22122278.4304                   22122277.3954
 -62710998.44948 -48814966.97346  20168959.1644                   20168957.8954
  -3730052.42247  -2863870.83644  23583371.4924                   23583370.3914
 -43636444.16847 -33434355.19944  22673131.8364                   22673129.6994
 -35331320.84448 -27483684.05946  21298542.0474                   21298538.5704
 11  7 29  0 41 30.0000000  0  8G09G17G28G10G04G12G27G02
 -29231268.76247 -22518996.08245  22254287.8984                   22254286.2854
 -85820612.89847 -66823458.02045  22051499.8134                   22051498.1764
-107143836.96547 -83448733.30144  22992914.6484                   22992913.8674
 -21767201.80547 -16918048.62945  22087128.3984                   22087127.7774
 -62785848.57448 -48873291.75446  20154715.7974                   20154713.8954
  -3933129.44547  -3022112.63744  23544726.7344                   23544725.7774
 -43714801.75047 -33495413.09045  22658220.6564                   22658218.7114
 -35488812.70348 -27606404.95746  21268572.0554                   21268568.6094
 11  7 29  0 42  0.0000000  0  8G09G17G28G10G04G12G27G02
 -29311876.36347 -22581807.22345  22238948.6414                   22238947.5204
 -85890415.88348 -66877849.96545  22038217.2274                   22038214.9384
-107170192.90247 -83469270.46944  22987899.8284                   22987897.8444
 -21951481.44547 -17061643.10245  22052061.2584                   22052059.4884
 -62860145.12948 -48931185.16846  20140577.6254                   20140575.8524
  -4136014.79747  -3180205.04745  23506119.3444                   23506118.2424
 -43792658.79747 -33556080.94545  22643404.3204                   22643404.0704
 -35645845.10948 -27728767.84846  21238690.1094                   21238686.5434
 11  7 29  0 42 30.0000000  0  8G09G17G28G10G04G12G27G02
 -29391819.91847 -22644100.96145  22223736.0474                   22223734.7344
 -85960036.64147 -66932099.93445  22024968.6564                   22024966.6524
-107196136.57447 -83489486.37944  22982963.0784                   22982961.7154
 -22135325.37947 -17204898.05945  22017076.6414                   22017076.0164
 -62933890.14548 -48988648.81646  20126544.3914                   20126542.7304
  -4338706.62147  -3338146.66845  23467548.1174                   23467547.4774
 -43870017.48047 -33616360.47345  22628683.6644                   22628683.0704
 -35802417.71948 -27850772.44546  21208895.5634                   21208891.7034
 11  7 29  0 43  0.0000000  0  8G09G17G28G10G04G12G27G02
 -29471105.96547 -22705882.32845  22208648.5554                   22208647.4494
 -86029479.82447 -66986211.52345  22011753.9224                   22011751.5704
-107221673.76247 -83509385.57844  22978102.8834                   22978101.8874
 -22318734.35247 -17347814.10545  21982175.4774                   21982173.9344
 -63007090.34848 -49045687.93046  20112614.7424                   20112613.2624
  -4541206.74647  -3495938.90645  23429013.5314                   23429013.3014
 -43946884.06247 -33676256.52045  22614056.9224                   22614055.8054
 -35958534.71148 -27972422.02346  21179186.9614                   21179183.6094
 11  7 29  0 43 30.0000000  0  9G09G17G28G10G04G12G27G05G02
 -29549729.88747 -22767147.75845  22193686.5704                   22193685.9304
 -86098737.62148 -67040178.64845  21998574.4924                   21998572.1334
-107246799.14547 -83528963.87144  22973321.8204                   22973320.7814
 -22501698.71947 -17490383.68745  21947358.0234                   21947357.9344
 -63079741.02048 -49102298.84446  20098790.1334                   20098787.9804
  -4743506.44947  -3653574.96545  23390517.3204                   23390516.5204
 -44023253.47747 -33735765.19545  22599524.5944                   22599523.5784
   9137664.68056   7162217.05153  24644039.9924                   24644042.1844
 -36114189.14548 -28093711.16046  21149566.6564                   21149563.9694
 11  7 29  0 44  0.0000000  0  9G09G17G28G10G04G12G27G05G02
 -29627698.42247 -22827902.50045  22178849.9304                   22178848.7814
 -86167815.11747 -67094005.28545  21985429.7894                   21985427.6374
-107271518.34847 -83548225.67244  22968617.6094                   22968617.6214
 -22684219.81247 -17632607.87945  21912625.4304                   21912624.6334
 -63151848.90648 -49158486.81246  20085068.1174                   20085066.7234
  -4945608.00047  -3811056.60544  23352058.6884                   23352058.0944
 -44099132.46547 -33794891.71545  22585084.7584                   22585083.8674
   8925121.71146   6996599.45743  24603593.8054                   24603596.4804
 -36269385.69148 -28214643.50446  21120033.7814                   21120030.3834
 11  7 29  0 44 30.0000000  0  9G09G17G28G10G04G12G27G05G02
 -29705020.25447 -22888153.30545  22164135.7274                   22164135.4454
 -86236718.68448 -67147696.39845  21972318.0784                   21972315.7814
-107295840.34047 -83567177.95744  22963989.7814                   22963989.2894
 -22866301.71947 -17774489.83645  21877976.3204                   21877975.7774
 -63223422.91848 -49214258.77046  20071448.0474                   20071446.4574
  -5147516.41047  -3968387.77044  23313636.2504                   23313635.8794
 -44174529.86347 -33853642.96545  22570737.6484                   22570737.2584
   8712575.46146   6830979.30143  24563147.5784                   24563150.2894
 -36424131.15248 -28335224.35546  21090587.1094                   21090583.5824
 11  7 29  0 45  0.0000000  0  9G09G17G28G10G04G12G27G05G02
 -29781697.76647 -22947902.04345  22149544.6024                   22149544.1804
 -86305447.68048 -67201251.47745  21959239.1564                   21959236.9414
-107319765.90247 -83585821.32844  22959437.8444                   22959436.3914
 -23047941.07847 -17916026.95745  21843411.6094                   21843411.1134
 -63294465.12948 -49269616.33646  20057929.1804                   20057927.5314
  -5349229.21947  -4125566.50844  23275252.3284                   23275251.5274
 -44249447.46947 -33912020.35245  22556481.0234                   22556480.6844
   8500028.28946   6665358.43843  24522700.7344                   24522704.3244
 -36578425.20348 -28455453.46146  21061225.5784                   21061221.9614
 11  7 29  0 45 30.0000000  0  9G09G17G28G10G04G12G27G05G02
 -29857725.30947 -23007144.31645  22135077.2734                   22135076.8674
 -86373994.79347 -67254664.82445  21946195.0864                   21946192.6254
-107343288.79347 -83604150.93444  22954961.5704                   22954960.2194
 -23229126.97747 -18057210.72345  21808932.8914                   21808932.3444
 -63364969.97748 -49324555.17646  20044512.6724                   20044510.8634
  -5550736.27747  -4282584.96544  23236906.3364                   23236905.4344
 -44323879.37947 -33970019.27345  22542317.0704                   22542316.8134
   8287490.63746   6499745.01643  24482256.0944                   24482259.5434
 -36732260.11748 -28575324.79346  21031951.7814                   21031948.3634
 11  7 29  0 46  0.0000000  0  9G09G17G28G10G04G12G27G05G02
 -29933106.02047 -23065882.57445  22120732.7734                   22120732.4384
 -86442360.33648 -67307936.68745  21933185.6414                   21933183.1214
-107366411.22347 -83622168.50044  22950561.4844                   22950559.9104
 -23409857.40247 -18198039.57845  21774541.0474                   21774540.5314
 -63434940.56248 -49379077.70746  20031197.8204                   20031195.6684
  -5752036.53547  -4439442.28544  23198600.3054                   23198598.6954
 -44397828.63747 -34027642.10945  22528244.8674                   22528244.4884
   8074964.06647   6334140.20744  24441813.2814                   24441816.3014
 -36885636.47748 -28694838.80946  21002765.1024                   21002761.8914
 11  7 29  0 46 30.0000000  0  9G09G17G28G10G04G12G27G05G02
 -30007840.58647 -23124117.31645  22106510.9774                   22106510.6844
 -86510542.89548 -67361065.96545  21920210.6484                   21920208.6134
-107389133.54347 -83639874.26644  22946237.3284                   22946235.7274
 -23590127.97347 -18338510.10945  21740237.4384                   21740235.8874
 -63504377.89848 -49433184.72346  20017984.2504                   20017982.4344
  -5953126.35547  -4596135.64144  23160334.0634                   23160333.0944
 -44471296.05147 -34084889.46545  22514264.8834                   22514264.4654
   7862451.80147   6168546.54744  24401373.7664                   24401376.1804
 -37038553.05148 -28813994.55546  20973666.5784                   20973662.9264
 11  7 29  0 47  0.0000000  0  9G09G17G28G10G04G12G27G05G02
 -28506504.11347 -21954244.76645  22392205.8594                   22392205.7704
 -85003115.07847 -66186446.89845  22207064.7664                   22207062.4304
-105836031.47747 -82429664.94544  23241782.2584                   23241781.4734
 -22194504.71547 -17251011.40645  22005814.9694                   22005813.9734
 -61997856.68048 -48259272.07446  20304665.4694                   20304663.6094
  -4578572.13347  -3525054.41845  23421902.9064                   23421902.0664
 -42968856.10547 -32914157.08645  22800169.2114                   22800169.6094
   9225388.73847   7230575.62144  24660731.9384                   24660734.4384
 -35615579.89548 -27705184.28146  21244448.8204                   21244445.5864
 11  7 29  0 47 30.0000000  0  9G09G17G28G10G04G12G27G05G02
 -28579937.42647 -22011465.56245  22378232.4694                   22378232.1024
 -85070914.66048 -66239277.75845  22194163.3054                   22194160.9844
-105857942.02047 -82446738.16444  23237613.1484                   23237612.6524
 -22373830.57047 -17390745.79745  21971690.4304                   21971689.7894
 -62066217.68048 -48312540.38746  20291656.7814                   20291655.3364
  -4779218.99647  -3681402.56645  23383721.2034                   23383719.8674
 -43041349.67647 -32970645.61345  22786374.2584                   22786374.0634
   9012929.34047   7065023.14844  24620302.5554                   24620304.4104
 -35767560.95348 -27823611.06646  21215528.1484                   21215524.5204
 11  7 29  0 48  0.0000000  0  9G09G17G28G10G04G12G27G05G02
 -28652717.75447 -22068177.50845  22364382.5234                   22364382.4184
 -85138516.70748 -66291954.70345  22181299.2974                   22181296.8874
-105879442.70347 -82463492.00044  23233521.3524                   23233521.5004
 -22552673.49647 -17530103.87545  21937658.1174                   21937657.5234
 -62134038.16048 -48365387.50846  20278751.0164                   20278749.2934
  -4979634.67247  -3837570.60245  23345583.3204                   23345582.4614
 -43113353.61747 -33026752.61745  22772672.1254                   22772671.9844
   8800505.77347   6899498.59843  24579878.9224                   24579880.6884
 -35919068.16448 -27941668.61346  21186697.1024                   21186693.3754
 11  7 29  0 48 30.0000000  0  9G09G17G28G10G04G12G27G05G02
 -28724852.53947 -22124386.44945  22350655.3204                   22350654.9694
 -85205926.27748 -66344481.65646  22168471.3594                   22168469.4024
-105900540.83247 -82479932.16844  23229507.1724                   23229506.0204
 -22731035.81247 -17669087.45345  21903716.5704                   21903715.7544
 -62201325.35548 -48417819.08646  20265946.7194                   20265944.9924
  -5179822.93047  -3993561.39845  23307488.5704                   23307487.3984
 -43184874.97747 -33082483.58645  22759062.0234                   22759061.8284
   8588115.75046   6734000.17243  24539461.6024                   24539463.8714
 -36070106.80148 -28059361.03546  21157955.2974                   21157951.9344
 11  7 29  0 49  0.0000000  0  9G09G17G28G10G04G12G27G05G02
 -28796337.46947 -22180089.02345  22337053.0704                   22337052.0394
 -85273136.00047 -66396852.88745  22155681.3524                   22155679.6524
-105921230.40647 -82496053.99244  23225569.6644                   23225569.5664
 -22908907.46147 -17807688.69145  21869868.8054                   21869867.8284
 -62268074.64848 -48469831.51646  20253244.9694                   20253243.2384
  -5379774.03947  -4149367.43445  23269439.1414                   23269437.8524
 -43255909.12547 -33137834.91445  22745545.3594                   22745544.7584
   8375768.30946   6568534.90243  24499052.3754                   24499055.3554
 -36220670.17248 -28176683.12946  21129304.1254                   21129300.7074
 11  7 29  0 49 30.0000000  0  9G09G17G28G10G04G12G27G05G02
 -28867173.12147 -22235285.64845  22323573.1334                   22323572.6024
 -85340143.26647 -66449066.36345  22142930.4224                   22142928.8984
-105941510.91847 -82511857.06644  23221710.7344                   23221710.3714
 -23086283.73447 -17945903.92245  21836115.0234                   21836113.8954
 -62334286.63748 -48521425.27046  20240645.2344                   20240643.7814
  -5579484.14847  -4304985.64845  23231435.8524                   23231433.1844
 -43326456.27347 -33192806.73845  22732120.4534                   22732120.0204
   8163467.77746   6403106.14843  24458653.5234                   24458655.6644
 -36370755.80148 -28293632.94946  21100743.9614                   21100740.2154
 11  7 29  0 50  0.0000000  0  9G09G17G28G10G04G12G27G05G02
 -28937361.23047 -22289977.69945  22310216.3754                   22310215.9884
 -85406948.08647 -66501122.07845  22130218.2274                   22130216.2274
-105961384.22747 -82527342.85244  23217928.8054                   23217928.8554
 -23263161.18047 -18083730.46945  21802456.4144                   21802455.4064
 -62399963.00048 -48572601.65246  20228147.1484                   20228145.8794
  -5778950.72747  -4460414.14145  23193478.3834                   23193475.7814
 -43396518.23047 -33247400.53544  22718787.7344                   22718787.7664
   7951217.27746   6237716.40243  24418262.7034                   24418265.6884
 -36520364.04748 -28410210.79346  21072274.2664                   21072270.5554
 11  7 29  0 50 30.0000000  0  9G09G17G28G10G04G12G27G05G02
 -29006900.58247 -22344164.24645  22296984.0864                   22296983.6414
 -85473546.62147 -66553017.07046  22117544.9924                   22117542.8874
-105980847.93447 -82542509.44944  23214224.9614                   23214224.8594
 -23439533.18447 -18221163.14545  21768893.8754                   21768892.8244
 -62465102.37548 -48623359.61346  20215751.7194                   20215750.0824
  -5978167.83247  -4615648.23844  23155568.9614                   23155566.0554
 -43466093.47347 -33301615.03944  22705548.1644                   22705548.5434
   7739023.35946   6072370.71943  24377884.5864                   24377886.0824
 -36669491.07048 -28526413.65246  21043896.3054                   21043892.5234
 11  7 29  0 51  0.0000000  0  9G09G17G28G10G04G12G27G05G02
 -29075796.26247 -22397849.21945  22283873.3204                   22283873.0554
 -85539941.41047 -66604753.28945  22104910.3984                   22104908.9804
-105999906.32447 -82557360.19544  23210598.8594                   23210598.4964
 -23615399.64848 -18358201.89845  21735427.4064                   21735426.7114
 -62529709.78148 -48673703.04746  20203457.4924                   20203455.9414
  -6177135.94547  -4770688.31644  23117706.1414                   23117703.1134
 -43535187.04347 -33355454.23844  22692400.2974                   22692399.7624
   7526885.29746   5907068.54343  24337515.7034                   24337517.6884
 -36818139.75448 -28642243.78546  21015609.0944                   21015605.8014
 11  7 29  0 51 30.0000000  0  9G09G17G28G10G04G12G27G05G02
 -29144048.94147 -22451033.16445  22270885.0394                   22270884.7344
 -85606129.38748 -66656328.35245  22092315.1174                   22092313.5354
-106018558.92247 -82571894.77744  23207048.2584                   23207048.6644
 -23790755.38747 -18494842.68745  21702058.1174                   21702057.1374
 -62593785.35248 -48723632.06246  20191263.7894                   20191262.3874
  -6375850.32847  -4925530.71544  23079892.0084                   23079889.4694
 -43603798.75447 -33408917.94545  22679343.5554                   22679343.7194
   7314807.99246   5741813.78944  24297158.3754                   24297160.6174
 -36966307.94948 -28757699.50846  20987413.8984                   20987410.2304
 11  7 29  0 52  0.0000000  0  9G09G17G28G10G04G12G27G05G02
 -29211657.23847 -22503715.00045  22258019.7504                   22258019.6024
 -85672106.70747 -66707739.27345  22079760.1724                   22079758.3204
-106036803.76246 -82586111.61744  23203576.8754                   23203577.1564
 -23965593.76647 -18631080.34445  21668787.5314                   21668786.6684
 -62657327.85948 -48773145.71546  20179172.4534                   20179170.8284
  -6574305.38347  -5080170.99644  23042127.6804                   23042124.6524
 -43671927.29747 -33462005.17645  22666380.2504                   22666379.4064
   7102797.35546   5576610.94943  24256813.2894                   24256815.8014
 -37113991.91448 -28872777.90246  20959310.3204                   20959306.9144
 11  7 29  0 52 30.0000000  0  9G09G17G28G10G04G12G27G05G02
 -29278623.67247 -22555896.66045  22245276.4534                   22245275.9694
 -85737873.57048 -66758986.19545  22067244.8134                   22067243.3054
-106054642.53147 -82600012.03143  23200182.9694                   23200181.4264
 -24139912.00447 -18766912.69145  21635615.7274                   21635615.3484
 -62720339.49248 -48822245.69546  20167181.7584                   20167180.2194
  -6772498.94147  -5234607.51244  23004412.1094                   23004409.5784
 -43739574.91047 -33514717.64544  22653506.7664                   22653506.0004
   6890855.93846   5411462.09444  24216481.7734                   24216484.4964
 -37261192.00848 -28987479.25846  20931299.4774                   20931295.7384
 11  7 29  0 53  0.0000000  0  9G09G17G28G10G04G12G27G05G02
 -29344951.29747 -22607580.56645  22232654.9064                   22232654.2734
 -85803430.29348 -66810069.38345  22054769.7814                   22054768.2074
-106072077.24246 -82613597.65243  23196864.4304                   23196865.5904
 -24313707.70747 -18902337.86345  21602543.9774                   21602543.2194
 -62782823.09448 -48870934.22346  20155291.6414                   20155290.2704
  -6970429.41447  -5388839.00044  22966747.2424                   22966744.4494
 -43806744.20347 -33567057.39844  22640724.8984                   22640724.2934
   6678986.21146   5246369.03143  24176163.5234                   24176166.3364
 -37407909.07048 -29101804.22346  20903380.2424                   20903376.3554
 11  7 29  0 53 30.0000000  0  9G09G17G28G10G04G12G27G05G02
 -29410643.37947 -22658769.23445  22220154.0004                   22220153.4694
 -85868776.75447 -66860988.72345  22042334.6954                   22042333.2854
-106089109.66846 -82626869.74643  23193624.3914                   23193623.3754
 -24486978.29347 -19037353.85945  21569571.6094                   21569570.4024
 -62844781.65248 -48919213.64146  20143501.2274                   20143499.6954
  -7168094.49247  -5542863.72344  22929133.2194                   22929129.9304
 -43873437.85247 -33619026.52045  22628033.0864                   22628033.6954
   6467190.07046   5081333.37544  24135861.0704                   24135862.6454
 -37554143.40648 -29215753.04746  20875552.5784                   20875549.0354
 11  7 29  0 54  0.0000000  0  9G09G17G28G10G04G12G27G05G02
 -29475703.35547 -22709465.35545  22207773.5314                   22207772.5984
 -85933913.70348 -66911744.80145  22029940.4924                   22029938.2704
-106105742.80546 -82639830.71943  23190458.5554                   23190458.3134
 -24659722.08248 -19171959.36745  21536699.0634                   21536697.9384
 -62906218.59848 -48967086.59446  20131810.3134                   20131808.3714
  -7365493.30147  -5696680.93445  22891569.1564                   22891567.2894
 -43939659.23047 -33670627.63744  22615432.2894                   22615430.7234
   6255468.42246   4916355.72744  24095571.3754                   24095573.1054
 -37699896.55548 -29329326.91046  20847816.6334                   20847813.0634
 11  7 29  0 54 30.0000000  0  9G09G17G28G10G04G12G27G05G02
 -27964711.80147 -21532069.37545  22495305.5634                   22495305.4924
 -84423418.89548 -65734735.87145  22317377.4844                   22317375.8404
-104546558.03146 -81424881.62543  23487161.5314                   23487160.8594
 -23256510.82848 -18078547.95745  21803721.2504                   21803720.3954
 -61391714.19148 -47786953.30546  20420010.5704                   20420008.8714
  -5987197.07847  -4622683.87545  23153849.6564                   23153847.4304
 -42429988.61747 -32494260.95344  22902712.9384                   22902711.5164
   7619251.34846   5979044.03544  24355090.5784                   24355092.7074
 -36269743.84448 -28214922.17646  21119965.3134                   21119962.0274
 11  7 29  0 55  0.0000000  0  9G09G17G28G10G04G12G27G05G02
 -28028514.73047 -21581785.99245  22483164.8834                   22483164.4534
 -84488135.39148 -65785164.34045  22305062.7424                   22305060.5594
-104562396.62947 -81437223.48843  23484148.7894                   23484147.1134
 -23428191.43447 -18212325.00845  21771051.4694                   21771050.1334
 -61452113.64848 -47834017.83646  20408517.2664                   20408515.6094
  -6184055.65647  -4776080.13345  23116389.3754                   23116387.4104
 -42495271.35947 -32545130.68445  22890290.0704                   22890289.8674
   7407688.47346   5814190.12544  24314830.3524                   24314832.7114
 -36414533.68448 -28327745.39846  21092412.8524                   21092409.5164
 11  7 29  0 55 30.0000000  0  9G09G17G28G10G04G12G27G05G02
 -28091694.50047 -21631017.02745  22471142.1024                   22471141.3674
 -84552642.43747 -65835429.57845  22292786.2344                   22292785.1564
-104577842.00047 -81449258.90243  23481208.5634                   23481207.9304
 -23599337.25048 -18345685.35245  21738483.8204                   21738482.3164
 -61511999.04748 -47880681.80546  20397121.1564                   20397119.5554
  -6380641.77347  -4929264.11745  23078980.0164                   23078977.0784
 -42560089.49247 -32595638.34844  22877955.7814                   22877955.1564
   7196207.52746   5649400.03944  24274586.7814                   24274589.6564
 -36558843.26648 -28440194.40246  21064951.7734                   21064947.9224
 11  7 29  0 56  0.0000000  0  9G09G17G28G10G04G12G27G05G02
 -28154255.56647 -21679765.94145  22459237.8054                   22459236.4454
 -84616941.64847 -65885532.89145  22280551.1174                   22280549.2544
-104592897.64547 -81460990.65643  23478344.0704                   23478343.4104
 -23769947.70747 -18478628.52045  21706017.3054                   21706016.0514
 -61571374.86748 -47926948.69946  20385822.2504                   20385820.8164
  -6576955.14847  -5082235.53545  23041622.8444                   23041620.7234
 -42624447.30547 -32645787.33244  22865708.6954                   22865708.4344
   6984809.06346   5484674.23043  24234358.6484                   24234360.0864
 -36702675.05948 -28552271.09846  21037581.6414                   21037578.1564
 11  7 29  0 56 30.0000000  0  9G09G17G28G10G04G12G27G05G02
 -28216200.80547 -21728034.98045  22447448.8594                   22447449.1334
 -84681033.05148 -65935474.26645  22268355.6564                   22268353.4964
-104607565.14147 -81472419.96143  23475553.6024                   23475552.0044
 -23940019.80148 -18611152.18445  21673653.9454                   21673652.8054
 -61630243.77048 -47972820.59446  20374619.8444                   20374618.4534
  -6772993.56647  -5234992.71545  23004317.2734                   23004315.9614
 -42688347.31647 -32695579.58644  22853549.3524                   22853548.1644
   6773495.49246   5320014.59843  24194147.1024                   24194149.6054
 -36846029.26648 -28663975.64546  21010302.3364                   21010298.3714
 11  7 29  0 57  0.0000000  0  9G09G17G28G10G04G12G27G05G02
 -28277528.84847 -21775823.10545  22435778.8054                   22435778.3244
 -84744912.32848 -65985250.33645  22256199.6254                   22256197.8404
-104621842.52347 -81483545.27743  23472836.1954                   23472835.9024
 -24109546.91848 -18743251.21145  21641393.8134                   21641392.4454
 -61688604.14148 -48018296.21946  20363515.0704                   20363513.0354
  -6968751.15247  -5387531.03545  22967066.6024                   22967064.6954
 -42751787.98047 -32745013.91444  22841476.8444                   22841476.9184
   6562273.50046   5155426.28944  24153953.1254                   24153954.8714
 -36988902.44948 -28775305.36346  20983114.5394                   20983110.5864
 11  7 29  0 57 30.0000000  0  9G09G17G28G10G04G12G27G05G02
 -28338245.19947 -21823134.58645  22424225.2034                   22424224.7894
 -84808582.15247 -66034863.19945  22244083.4454                   22244081.6134
-104635734.40246 -81494370.19543  23470191.9064                   23470192.6684
 -24278529.43747 -18874925.85945  21609237.9774                   21609235.7854
 -61746461.09448 -48063379.56246  20352504.4694                   20352503.0594
  -7164228.17647  -5539850.69945  22929868.8134                   22929866.6884
 -42814774.45347 -32794094.33645  22829491.1024                   22829490.4264
   6351142.84847   4990909.14544  24113776.8524                   24113777.1914
 -37131297.48848 -28886262.50446  20956017.4454                   20956013.7894
 11  7 29  0 58  0.0000000  0  9G09G17G28G10G04G12G27G05G02
 -28398352.61347 -21869971.57045  22412787.3594                   22412785.9494
 -84872041.67648 -66084312.18745  22232007.9774                   22232005.7234
-104649242.22746 -81504895.84843  23467622.7974                   23467621.6844
 -24446964.27747 -19006173.74245  21577185.6024                   21577184.4104
 -61803816.74248 -48108072.29346  20341590.0004                   20341589.0124
  -7359422.07447  -5691949.79745  22892724.3134                   22892722.5474
 -42877308.69547 -32842822.34445  22817591.2894                   22817590.2704
   6140106.25447   4826465.28944  24073617.6804                   24073619.4534
 -37273214.36348 -28996847.06646  20929011.2584                   20929008.0664
 11  7 29  0 58 30.0000000  0  9G09G17G28G10G04G12G27G05G02
 -28457854.96947 -21916337.07845  22401464.2344                   22401463.3324
 -84935291.54347 -66133597.82845  22219971.0164                   22219969.6024
-104662368.84846 -81515124.49243  23465125.3134                   23465124.4534
 -24614849.58247 -19136993.42645  21545237.9454                   21545236.4304
 -61860674.65248 -48152377.17246  20330770.4224                   20330768.8364
  -7554331.32047  -5843827.06245  22855634.7894                   22855632.9614
 -42939394.16047 -32891200.67644  22805776.6954                   22805776.4024
   5929165.24246   4662095.91444  24033476.0864                   24033477.9924
 -37414654.17648 -29107059.87146  20902096.1094                   20902093.0354
 11  7 29  0 59  0.0000000  0  9G09G17G28G10G04G12G27G05G02
 -28516754.79347 -21962233.07845  22390256.2424                   22390254.9804
 -84998331.19947 -66182719.66445  22207975.2734                   22207973.7544
-104675115.79746 -81525057.25043  23462699.1724                   23462698.3524
 -24782182.24247 -19267382.49245  21513395.4534                   21513394.3874
 -61917036.87548 -48196295.80546  20320045.1484                   20320043.9024
  -7748953.78547  -5995480.88745  22818598.4614                   22818597.0274
 -43001033.07047 -32939231.02344  22794047.3284                   22794046.4694
   5718322.59847   4497803.18844  23993354.9534                   23993356.4654
 -37555617.53148 -29216901.42646  20875271.6954                   20875268.2974
 11  7 29  0 59 30.0000000  0  9G09G17G28G10G04G12G27G05G02
 -28575054.82047 -22007661.69945  22379161.8914                   22379161.0434
 -85061160.69147 -66231677.74645  22196019.3754                   22196017.5474
-104687484.75046 -81534695.50043  23460345.6644                   23460345.0594
 -24948959.65247 -19397338.88345  21481659.2194                   21481657.8404
 -61972906.04348 -48239830.22346  20309413.5554                   20309411.7704
  -7943287.04747  -6146909.33245  22781617.6644                   22781616.7504
 -43062227.73447 -32986915.21945  22782402.3594                   22782401.9804
   5507581.08647   4333589.22344  23953251.4614                   23953252.9144
 -37696104.37948 -29326371.67646  20848537.9304                   20848534.3794
 11  7 29  1  0  0.0000000  0  9G09G17G28G10G04G12G27G05G02
 -28632759.98847 -22052626.79345  22368181.3834                   22368179.4884
 -85123781.92248 -66280473.52345  22184102.7974                   22184100.7624
-104699479.77746 -81544042.32443  23458061.9774                   23458061.8484
 -25115181.43047 -19526862.30945  21450027.7814                   21450026.7624
 -62028286.48448 -48282983.82046  20298875.0314                   20298873.5434
  -8137330.69547  -6298112.10945  22744692.7974                   22744691.2424
 -43122982.93047 -33034256.99244  22770841.0474                   22770839.8834
   5296941.22347   4169454.48444  23913167.6724                   23913168.7114
 -37836117.27748 -29435472.61346  20821894.5234                   20821890.4264
 11  7 29  1  0 30.0000000  0  9G09G17G28G10G04G12G27G05G02
 -28689876.52747 -22097133.21944  22357312.2194                   22357310.9884
 -85186197.62147 -66329109.13745  22172226.0864                   22172223.8284
-104711105.87546 -81553101.71143  23455850.2894                   23455850.6024
 -25280847.76247 -19655952.93045  21418502.5474                   21418501.1134
 -62083184.18448 -48325761.26246  20288428.6564                   20288426.9844
  -8331086.12947  -6449090.32045  22707822.2664                   22707821.1684
 -43183304.29347 -33081260.69544  22759361.8984                   22759361.7154
   5086402.26647   4005398.36344  23873102.8284                   23873104.8134
 -37975659.91848 -29544207.11346  20795340.6804                   20795336.7304
 11  7 29  1  1  0.0000000  0  9G09G17G28G10G04G12G27G05G02
 -28746408.10247 -22141183.84445  22346554.3524                   22346553.1174
 -85248408.07047 -66377584.83245  22160387.2504                   22160385.9734
-104722365.70346 -81561875.69943  23453708.5004                   23453708.3984
 -25445956.79347 -19784609.29345  21387083.1644                   21387082.0944
 -62137602.12548 -48368164.85246  20278073.0164                   20278071.5434
  -8524551.58647  -6599842.57845  22671006.9614                   22671005.3714
 -43243194.99247 -33127928.82444  22747965.1884                   22747965.3554
   4875966.18847   3841422.40244  23833058.2034                   23833059.9574
 -38114733.30548 -29652575.96946  20768875.5864                   20768871.7424
 11  7 29  1  1 30.0000000  0  9G09G17G28G10G04G12G27G05G02
 -28802355.50447 -22184779.25445  22335907.7814                   22335908.0204
 -85310411.16447 -66425898.96145  22148588.6254                   22148587.0704
-104733258.81646 -81570363.91443  23451634.9064                   23451635.0744
 -25610503.72347 -19912827.64845  21355771.2894                   21355769.8834
 -62191540.54748 -48410194.80546  20267808.9694                   20267807.5704
  -8717722.44547  -6750365.26645  22634248.0704                   22634246.8444
 -43302655.23847 -33174261.52044  22736650.6414                   22736649.6804
   4665637.81346   3677530.39144  23793032.8674                   23793035.5044
 -38253335.60548 -29760577.73046  20742500.0474                   20742496.4024
 11  7 29  1  2  0.0000000  0  9G09G17G28G10G04G12G27G05G02
 -27282300.70747 -21000321.00445  22625164.1644                   22625164.1054
 -83796785.55948 -65246450.45345  22436622.5164                   22436620.4844
-103168367.79746 -80350968.39543  23749423.6804                   23749423.5634
 -24199061.95747 -18813002.87545  21624359.7424                   21624358.2894
 -60669581.42248 -47224252.63346  20557428.2034                   20557426.6994
  -7335171.19147  -5673052.58245  22897338.7814                   22897336.6844
 -41786266.84847 -31992660.23044  23025209.6884                   23025209.3954
   6030845.40247   4741328.69144  24052824.3524                   24052825.6724
 -36816043.58248 -28640609.90246  21016008.0004                   21016004.6804
 11  7 29  1  2 30.0000000  0  9G09G17G28G10G04G12G27G05G02
 -27337089.57047 -21043013.65244  22614738.9534                   22614737.7894
 -83858374.19147 -65294441.62945  22424902.0864                   22424900.4064
-103178534.81246 -80358890.81643  23747488.8984                   23747489.1764
 -24362478.78948 -18940340.63745  21593262.5084                   21593262.0634
 -60722570.19548 -47265542.59046  20547344.9774                   20547343.1174
  -7527747.56247  -5823112.04345  22860692.4924                   22860691.2814
 -41844875.35947 -32038329.25044  23014056.8754                   23014056.7114
   5820738.48847   4577609.23044  24012841.9694                   24012842.5204
 -36953706.39148 -28747879.59846  20989811.6954                   20989808.0354
 11  7 29  1  3  0.0000000  0  9G09G17G28G10G04G12G27G05G02
 -27391309.19547 -21085262.74644  22604421.4774                   22604420.1094
 -83919760.30947 -65342275.01245  22413221.5554                   22413218.8594
-103188346.84446 -80366536.62943  23745622.6804                   23745622.1054
 -24525331.94947 -19067239.17245  21562272.3284                   21562271.3014
 -60775092.99248 -47306469.44546  20537350.2344                   20537348.3954
  -7720027.98047  -5972940.90645  22824102.7664                   22824100.5394
 -41903067.16047 -32083673.55145  23002983.2194                   23002983.6644
   5610741.02746   4413975.00844  23972880.8914                   23972881.6414
 -37090905.49648 -28854787.97746  20963703.5394                   20963699.8634
 11  7 29  1  3 30.0000000  0  9G09G17G28G10G04G12G27G05G02
 -27444963.23447 -21127071.11744  22594211.8984                   22594210.1414
 -83980944.68747 -65389951.18745  22401577.9774                   22401576.3484
-103197806.84846 -80373908.14543  23743822.2974                   23743821.6604
 -24687619.50848 -19193696.98445  21531389.8134                   21531389.0634
 -60827153.10548 -47347035.77746  20527443.0864                   20527441.9614
  -7912012.02047  -6122538.82445  22787569.6954                   22787567.4884
 -41960845.62147 -32128695.76644  22991988.4534                   22991988.4304
   5400854.80946   4250427.50444  23932939.5634                   23932941.2814
 -37227642.11348 -28961335.96946  20937683.3054                   20937679.5664
 11  7 29  1  4  0.0000000  0  9G09G17G28G10G04G12G27G05G02
 -27498051.41847 -21168438.55144  22584108.8364                   22584108.0434
 -84041923.75847 -65437467.39145  22389973.9224                   22389971.9654
-103206913.02746 -80381003.92643  23742089.5004                   23742089.0784
 -24849335.47348 -19319709.39846  21500616.5164                   21500615.3874
 -60878749.78548 -47387240.99646  20517624.7974                   20517623.3014
  -8103693.48447  -6271901.00445  22751093.6724                   22751091.6724
 -42018209.84047 -32173395.19144  22981072.5164                   22981072.4184
   5191085.75046   4086971.27744  23893022.2584                   23893023.5634
 -37363913.36748 -29067521.34046  20911751.6254                   20911747.8284
 11  7 29  1  4 30.0000000  0  9G09G17G28G10G04G12G27G05G02
 -27550578.12147 -21209368.50045  22574113.4064                   22574112.0944
 -84102698.24247 -65484824.17645  22378409.2664                   22378407.1564
-103215669.14846 -80387826.95743  23740423.6414                   23740422.5864
 -25010478.96947 -19445275.73045  21469951.9924                   21469950.6564
 -60929886.91848 -47427088.11746  20507893.7424                   20507891.9534
  -8295071.63347  -6421026.83245  22714675.2664                   22714672.6214
 -42075163.85547 -32217774.96944  22970233.7274                   22970233.9964
   4981434.85946   3923607.10544  23853127.0164                   23853127.5084
 -37499721.16848 -29173345.58646  20885908.5784                   20885904.8634
 11  7 29  1  5  0.0000000  0  9G09G17G28G10G04G12G27G05G02
 -27602550.63347 -21249866.59044  22564223.6644                   22564222.2584
 -84163272.48847 -65532024.91045  22366882.3364                   22366879.5594
-103224080.81646 -80394381.58643  23738822.7274                   23738822.1024
 -25171051.89848 -19570397.47746  21439395.9614                   21439394.9304
 -60980571.43748 -47466582.56646  20498248.6094                   20498247.3204
  -8486148.15247  -6569917.61745  22678314.8524                   22678312.1094
 -42131714.36347 -32261840.35544  22959473.5474                   22959473.1604
   4771900.83647   3760334.02344  23813253.6564                   23813254.9694
 -37635070.34048 -29278812.45346  20860152.3054                   20860148.3954
 11  7 29  1  5 30.0000000  0  9G09G17G28G10G04G12G27G05G02
 -27653970.73047 -21289934.24245  22554438.6804                   22554437.5314
 -84223644.60947 -65579068.17245  22355394.0474                   22355391.9344
-103232149.14546 -80400668.64543  23737286.4384                   23737287.0044
 -25331049.96147 -19695071.25845  21408949.3754                   21408948.1334
 -61030804.30948 -47505725.07846  20488689.8754                   20488688.3914
  -8676919.42247  -6718570.56245  22642012.0234                   22642009.8164
 -42187862.72747 -32305592.34444  22948788.3754                   22948787.9774
   4562487.73447   3597155.12944  23773403.9694                   23773404.4734
 -37769959.75448 -29383921.06246  20834483.3444                   20834479.9884
 11  7 29  1  6  0.0000000  0  9G09G17G28G10G04G12G27G05G02
 -27704842.16047 -21329574.34845  22544757.9144                   22544756.6954
 -84283814.55547 -65625953.87945  22343944.2034                   22343942.1484
-103239876.75446 -80406690.25043  23735816.8674                   23735816.3284
 -25490471.68448 -19819295.94946  21378612.5004                   21378611.5204
 -61080588.60548 -47544518.03946  20479216.3834                   20479214.5744
  -8867383.16847  -6866983.86345  22605768.2344                   22605766.0044
 -42243612.07847 -32349033.45344  22938179.8524                   22938179.9024
   4353197.71947   3434072.18444  23733577.0394                   23733578.1564
 -37904390.78148 -29488672.50846  20808902.1724                   20808898.7854
 11  7 29  1  6 30.0000000  0  9G09G17G28G10G04G12G27G05G02
 -27755166.48447 -21368788.15645  22535182.4694                   22535181.3714
 -84343781.55947 -65672681.44545  22332532.6644                   22332531.0864
-103247264.26246 -80412446.85243  23734411.1334                   23734410.2974
 -25649313.15248 -19943068.50046  21348385.7114                   21348385.1684
 -61129925.97748 -47582962.75046  20469827.8204                   20469826.2974
  -9057536.64847  -7015155.39845  22569582.9694                   22569580.9614
 -42298963.90247 -32392164.78944  22927647.2274                   22927646.5394
   4144034.32047   3271087.87944  23693774.9844                   23693776.1134
 -38038362.61348 -29593066.13346  20783408.4064                   20783404.2344
 11  7 29  1  7  0.0000000  0  9G09G17G28G10G04G12G27G05G02
 -27804951.12947 -21407581.41844  22525707.9694                   22525707.2464
 -84403548.92647 -65719253.45345  22321159.6024                   22321157.5744
-103254317.61346 -80417943.08243  23733068.4694                   23733067.7154
 -25807575.77748 -20066389.99246  21318269.3984                   21318268.1174
 -61178822.75448 -47621064.14546  20460522.9144                   20460521.2274
  -9247381.56647  -7163086.47745  22533456.2814                   22533454.7074
 -42353924.81247 -32434991.52044  22917188.4844                   22917188.4144
   3934996.02346   3108201.02744  23653995.2584                   23653995.8094
 -38171879.80148 -29697105.48446  20758000.5474                   20757997.1334
 11  7 29  1  7 30.0000000  0  9G09G17G28G10G04G12G27G05G02
 -27854194.46947 -21445952.90244  22516337.2034                   22516336.7704
 -84463111.83247 -65765666.14145  22309825.3524                   22309823.1454
-103261034.14546 -80423176.78143  23731790.7034                   23731790.4344
 -25965252.61748 -20189255.03546  21288264.8674                   21288263.6724
 -61227276.80148 -47658820.55146  20451302.3364                   20451301.0664
  -9436910.57447  -7310771.38745  22497390.8054                   22497388.5084
 -42408492.68747 -32477511.94144  22906804.2664                   22906804.1174
   3726090.33247   2945417.50444  23614242.0554                   23614243.3054
 -38304938.46548 -29800787.55146  20732680.4384                   20732676.8164
 11  7 29  1  8  0.0000000  0  9G09G17G28G10G04G12G27G05G02
 -27902904.92647 -21483909.13744  22507068.2814                   22507067.4304
 -84522475.12547 -65811923.29345  22298528.5234                   22298527.0354
-103267421.22746 -80428153.89143  23730574.7894                   23730575.7234
 -26122347.03148 -20311666.22746  21258370.8054                   21258369.0474
 -61275295.84048 -47696237.99646  20442165.1174                   20442163.7234
  -9626126.88747  -7458212.64545  22461383.7734                   22461382.3834
 -42462675.32447 -32519732.22744  22896493.5634                   22896493.4344
   3517314.77747   2782735.41844  23574513.7584                   23574514.1914
 -38437544.21548 -29904116.69946  20707446.4144                   20707442.6094
 11  7 29  1  8 30.0000000  0  9G09G17G28G10G04G12G27G05G02
 -27951089.18047 -21521455.33644  22497899.1954                   22497898.1804
 -84581641.82047 -65858027.24245  22287269.1484                   22287267.5204
-103273484.14546 -80432878.30543  23729422.4144                   23729421.5164
 -26278859.68748 -20433624.10945  21228586.7814                   21228585.5634
 -61322885.82448 -47733321.11746  20433108.5394                   20433106.9534
  -9815031.14847  -7605410.73845  22425436.9454                   22425434.6804
 -42516478.70747 -32561656.99244  22886256.0164                   22886255.9064
   3308668.74247   2620154.25044  23534809.2424                   23534810.3164
 -38569700.79348 -30007095.83646  20682297.5234                   20682293.7584
 11  7 29  1  9  0.0000000  0  9G09G17G28G10G04G12G27G05G02
 -27998745.80947 -21558590.39545  22488830.3054                   22488829.5784
 -84640606.84447 -65903974.02745  22276049.1174                   22276046.9774
-103279219.91446 -80437347.82043  23728330.5164                   23728330.1764
 -26434783.51648 -20555123.17646  21198915.5554                   21198914.8244
 -61370044.81648 -47770068.39146  20424134.7974                   20424133.1564
 -10003616.35547  -7752360.23045  22389550.4304                   22389547.3094
 -42569901.11747 -32603284.89544  22876089.3444                   22876089.1954
   3100159.42247   2457679.57444  23495131.3204                   23495131.3244
 -38701404.32448 -30109721.95746  20657235.5864                   20657231.7074
 11  7 29  1  9 30.0000000  0  9G09G17G28G10G04G12G27G05G02
 -26470458.73047 -20367717.39845  22779654.0314                   22779653.1524
 -83123950.83247 -64722164.16445  22564658.8054                   22564657.2504
-101709213.73447 -79213966.47743  24027092.0944                   24027092.3404
 -25014693.29348 -19448559.32446  21469149.7734                   21469148.4774
 -59841355.94148 -46578882.25846  20715034.2424                   20715032.9384
  -8616456.43447  -6671456.37945  22653518.0474                   22653514.8324
 -41047526.03947 -31417018.63344  23165787.9924                   23165787.7664
   4467213.58247   3522916.77044  23755272.3594                   23755274.2304
 -37257233.80948 -28984394.27746  20932051.8284                   20932048.3714
 11  7 29  1 10  0.0000000  0  9G09G17G28G10G04G12G27G05G02
 -26517073.34047 -20404040.50845  22770783.7114                   22770782.9924
 -83182516.04747 -64767799.39845  22553514.2504                   22553512.2344
-101714306.86747 -79217935.23443  24026124.1564                   24026123.1454
 -25169436.27348 -19569138.23445  21439702.9534                   21439702.2034
 -59887664.28948 -46614966.69546  20706221.8594                   20706220.9064
  -8804400.87547  -6817906.56645  22617753.5554                   22617749.2274
 -41100198.74247 -31458062.34444  23155764.4224                   23155764.5234
   4258981.33647   3360658.04344  23715648.1254                   23715648.7934
 -37388037.45348 -29086319.17246  20907160.8914                   20907157.3984
 11  7 29  1 10 30.0000000  0  9G09G17G28G10G04G12G27G05G02
 -26563173.30147 -20439962.59845  22762011.2034                   22762010.4414
 -83240882.26647 -64813279.57445  22542407.4144                   22542406.1174
-101719082.52346 -79221656.60243  24025214.6724                   24025214.8914
 -25323586.62148 -19689255.35545  21410369.1414                   21410367.6684
 -59933552.43448 -46650723.69146  20697489.9614                   20697488.1024
  -8992022.86347  -6964105.49245  22582049.9144                   22582046.9694
 -41152501.97347 -31498818.13744  23145811.5314                   23145811.2304
   4050890.28147   3198509.30144  23676049.0394                   23676050.0864
 -37518393.33648 -29187895.16846  20882355.2194                   20882351.1564
 11  7 29  1 11  0.0000000  0  9G09G17G28G10G04G12G27G05G02
 -26608762.51247 -20475486.67245  22753335.8204                   22753335.1294
 -83299050.06647 -64858605.12545  22531338.2034                   22531337.1914
-101723543.82846 -79225132.96143  24024366.2734                   24024366.4884
 -25477143.32448 -19808909.89146  21381148.1564                   21381147.1804
 -59979024.05148 -46686156.12946  20688836.4224                   20688835.6954
  -9179320.86347  -7110051.94145  22546408.0474                   22546406.1374
 -41204439.15647 -31539288.70344  23135928.3524                   23135927.9964
   3842942.27347   3036472.05144  23636477.4304                   23636478.3324
 -37648302.88748 -29289123.36746  20857634.0164                   20857630.5354
 11  7 29  1 11 30.0000000  0  9G09G17G28G10G04G12G27G05G02
 -26653844.24647 -20510615.33645  22744757.1884                   22744756.3484
 -83357018.79347 -64903775.56245  22520307.3674                   22520305.8634
-101727692.91046 -79228366.14143  24023576.9534                   24023577.2074
 -25630103.76648 -19928099.81246  21352041.0394                   21352039.8754
 -60024081.68448 -46721265.97746  20680263.0084                   20680261.2154
  -9366292.47747  -7255744.05545  22510828.3364                   22510826.4654
 -41256012.98847 -31579476.18444  23126114.7814                   23126114.2344
   3635140.00447   2874548.35244  23596933.7274                   23596934.6454
 -37777766.73848 -29390004.26646  20832997.9844                   20832993.8674
 11  7 29  1 12  0.0000000  0  9G09G17G28G10G04G12G27G05G02
 -26698426.60247 -20545354.88345  22736273.8594                   22736273.6914
 -83414793.51647 -64948794.82445  22509312.9384                   22509311.5864
-101731536.75046 -79231361.32043  24022845.1564                   24022845.4734
 -25782470.66448 -20046827.23446  21323046.6334                   21323045.1454
 -60068732.38748 -46756058.73446  20671765.6484                   20671764.1884
  -9552940.41847  -7401183.95345  22475310.6334                   22475308.1994
 -41307231.26647 -31619386.58644  23116368.0164                   23116367.7034
   3427481.30947   2712736.49245  23557418.1024                   23557418.4964
 -37906790.44148 -29490542.20346  20808445.6094                   20808441.7234
 11  7 29  1 12 30.0000000  0  9G09G17G28G10G04G12G27G05G02
 -26742512.55947 -20579707.62945  22727884.3204                   22727884.0784
 -83472373.23447 -64993662.14145  22498356.4694                   22498354.4224
-101735077.20746 -79234120.19543  24022171.1804                   24022171.5704
 -25934241.46548 -20165090.16046  21294165.4224                   21294164.4224
 -60112978.62148 -46790536.32446  20663346.2814                   20663344.8284
  -9739261.58647  -7546369.24645  22439854.9304                   22439852.2814
 -41358096.26647 -31659021.71144  23106688.3204                   23106689.0354
   3219968.99647   2551038.74644  23517930.2664                   23517929.8834
 -38035374.47748 -29590737.52346  20783976.6804                   20783972.7894
 11  7 29  1 13  0.0000000  0  9G09G17G28G10G04G12G27G05G02
 -26786107.69547 -20613677.86745  22719588.0004                   22719587.5744
 -83529759.97747 -65038379.07045  22487435.8984                   22487434.0704
-101738318.42646 -79236645.92243  24021553.7194                   24021554.9304
 -26085416.41448 -20282888.80546  21265397.4924                   21265396.6414
 -60156825.27048 -46824702.54346  20655002.6884                   20655001.1294
  -9925256.08647  -7691299.98845  22404461.4774                   22404458.2624
 -41408612.94547 -31698385.41444  23097074.8754                   23097075.1094
   3012604.02047   2389455.76644  23478469.9614                   23478469.8054
 -38163521.82848 -29690592.57846  20759591.3674                   20759587.3244
 11  7 29  1 13 30.0000000  0  9G09G17G28G10G04G12G27G05G02
 -26829214.69147 -20647267.75845  22711384.9384                   22711385.2194
 -83586952.75047 -65082944.87945  22476552.1024                   22476551.0354
-101741262.12146 -79238939.73843  24020994.4844                   24020993.8094
 -26235992.43748 -20400220.73446  21236743.9304                   21236742.8014
 -60200274.21548 -46858558.87146  20646734.2584                   20646732.9844
 -10110921.02747  -7835973.94545  22369130.2894                   22369128.5084
 -41458783.44947 -31737479.37144  23087528.5554                   23087528.1414
   2805389.43447   2227989.98444  23439037.7344                   23439038.1334
 -38291232.34848 -29790107.23846  20735288.9224                   20735284.6604
 11  7 29  1 14  0.0000000  0  9G09G17G28G10G04G12G27G05G02
 -26871832.96547 -20680476.84845  22703276.0314                   22703274.6954
 -83643947.33647 -65127356.25445  22465706.2114                   22465705.4144
-101743906.35546 -79241000.27342  24020492.3444                   24020491.3754
 -26385963.45348 -20517081.22746  21208205.3674                   21208203.8204
 -60243324.07848 -46892104.23046  20638542.0394                   20638540.6214
 -10296250.21147  -7980386.25445  22333863.8054                   22333861.0234
 -41508606.53547 -31776302.60544  23078047.8754                   23078047.4924
   2598331.53947   2066646.28144  23399636.1484                   23399635.7234
 -38418503.00448 -29889279.14546  20711069.6174                   20711065.9654
 11  7 29  1 14 30.0000000  0  9G09G17G28G10G04G12G27G05G02
 -26913969.45347 -20713310.48445  22695256.4534                   22695256.9144
 -83700747.13747 -65171615.84445  22454898.1094                   22454896.0124
-101746257.18446 -79242832.18443  24020044.0704                   24020044.1604
 -26535331.07447 -20633471.54745  21179781.7114                   21179780.6094
 -60285981.12548 -46925343.48846  20630425.0474                   20630423.1684
 -10481244.86347  -8124537.91845  22298660.0234                   22298657.8014
 -41558088.68047 -31814860.17244  23068630.4924                   23068631.6994
   2391429.51247   1905424.05944  23360263.5084                   23360264.0124
 -38545337.93048 -29988111.51646  20686934.0474                   20686930.0044
 11  7 29  1 15  0.0000000  0  9G09G17G28G10G04G12G27G05G02
 -26955628.13347 -20745771.84445  22687329.4614                   22687329.2384
 -83757352.41447 -65215723.84445  22444126.8444                   22444124.8164
-101748317.14846 -79244437.40243  24019651.3914                   24019652.7234
 -26684093.85548 -20749390.56646  21151473.7194                   21151472.0634
 -60328248.42648 -46958279.05546  20622381.9454                   20622379.9344
 -10665903.02747  -8268427.36345  22263520.8444                   22263518.8984
 -41607233.23047 -31853154.71144  23059279.0864                   23059279.6844
   2184685.99647   1744325.31344  23320921.3754                   23320921.4384
 -38671738.70748 -30086605.59846  20662880.7974                   20662876.4844
 11  7 29  1 15 30.0000000  0  9G09G17G28G10G04G12G27G05G02
 -26996812.22347 -20777863.37145  22679492.1254                   22679492.5204
 -83813762.78947 -65259679.99645  22433392.0554                   22433390.3244
-101750088.19146 -79245817.57843  24019315.3984                   24019316.1604
 -26832249.77048 -20864836.70346  21123280.3364                   21123278.8794
 -60370128.57048 -46990912.93046  20614412.2034                   20614410.8594
 -10850222.68047  -8412053.03545  22228446.0004                   22228443.7424
 -41656043.06647 -31891188.39844  23049991.7734                   23049991.6134
   1978103.15647   1583351.78544  23281609.3444                   23281610.1644
 -38797706.10548 -30184761.98046  20638909.9144                   20638905.7934
 11  7 29  1 16  0.0000000  0  9G09G17G28G10G04G12G27G05G02
 -27037526.96947 -20809589.18445  22671744.8204                   22671744.5984
 -83869979.75447 -65303485.43745  22422694.2194                   22422692.4414
-101751574.59446 -79246975.93443  24019031.8134                   24019032.1994
 -26979798.19947 -20979809.46546  21095202.4454                   21095201.1334
 -60411626.02348 -47023248.62546  20606515.7734                   20606514.3834
 -11034203.01247  -8555414.29745  22193435.5234                   22193434.5664
 -41704522.77047 -31928964.84444  23040765.9534                   23040765.9884
   1771681.99247   1422504.25844  23242329.4224                   23242328.7464
 -38923242.31248 -30282582.37146  20615020.7814                   20615017.1054
 11  7 29  1 16 30.0000000  0  9G09G17G28G10G04G12G27G05G02
 -27077774.60247 -20840951.02045  22664085.1884                   22664085.3634
 -83926001.96547 -65347139.10945  22412033.4694                   22412031.8094
-101752777.38746 -79247913.24243  24018804.0164                   24018803.9064
 -27126736.16448 -21094306.54345  21067240.9534                   21067239.6564
 -60452742.34848 -47055287.33646  20598691.2504                   20598689.7854
 -11217840.60247  -8698508.50045  22158490.7584                   22158488.9304
 -41752674.20747 -31966485.50444  23031602.7504                   23031603.1024
   1565426.37947   1261785.69544  23203079.9454                   23203079.7934
 -39048347.40248 -30380066.83246  20591214.4144                   20591210.1764
 11  7 29  1 17  0.0000000  0  9G09G17G28G10G04G12G27G05G02
 -25542138.78147 -19644351.73044  22956307.3054                   22956307.3554
 -82406408.53547 -64163040.33245  22701202.2274                   22701200.8754
-100178280.06646 -78021032.35543  24318420.5704                   24318421.6484
 -25697638.36348 -19980723.81246  21339189.3674                   21339188.0744
 -58918060.01648 -45859430.98446  20890731.8524                   20890729.9384
  -9825708.52347  -7613730.22745  22423404.6254                   22423402.5664
 -40225079.82847 -30776152.30144  23322295.1484                   23322294.9104
   2934764.46947   2328802.48444  23463656.2814                   23463656.4264
 -37597599.87948 -29249614.17246  20867282.4144                   20867278.5164
 11  7 29  1 17 30.0000000  0  9G09G17G28G10G04G12G27G05G02
 -25581466.37947 -19674996.64844  22948823.7584                   22948824.2704
 -82462043.56647 -64206392.33645  22690615.9384                   22690614.2584
-100178925.84446 -78021535.68443  24318297.0704                   24318298.4344
 -25843353.15648 -20094267.77346  21311460.5944                   21311459.0394
 -58958425.23448 -45890884.40646  20883050.7974                   20883049.0664
 -10008657.32847  -7756287.72745  22388590.5314                   22388588.3954
 -40272586.49647 -30813170.55144  23313255.0394                   23313255.0944
   2728844.34847   2168345.35244  23424470.9224                   23424470.3204
 -37721848.71548 -29346431.41046  20843638.3834                   20843634.2344
 11  7 29  1 18  0.0000000  0  9G09G17G28G10G04G12G27G05G02
 -25620337.14547 -19705285.59845  22941426.7424                   22941426.7384
 -82517482.66847 -64249591.65645  22680065.5234                   22680063.7034
-100179294.61346 -78021823.14543  24318227.7664                   24318228.8914
 -25988451.38348 -20207331.29746  21283849.2664                   21283847.6994
 -58998416.57848 -45922046.50046  20875440.6174                   20875439.1884
 -10191256.14547  -7898572.51645  22353843.0704                   22353841.0704
 -40319773.08247 -30849939.36744  23304276.0944                   23304275.8054
   2523097.87147   2008023.54744  23385318.0234                   23385318.2034
 -37845668.52048 -29442914.33646  20820076.3284                   20820072.2114
 11  7 29  1 18 30.0000000  0  9G09G17G28G10G04G12G27G05G02
 -25658758.89147 -19735224.67244  22934115.8834                   22934115.8594
 -82572730.24247 -64292641.72745  22669552.8284                   22669550.5044
-100179392.80146 -78021899.77043  24318208.3834                   24318209.9024
 -26132935.75448 -20319916.48446  21256354.9614                   21256353.4414
 -59038041.53548 -45952923.09846  20867899.9304                   20867898.7704
 -10373507.28547  -8040586.36745  22319161.3984                   22319160.0084
 -40366646.80547 -30886464.38744  23295355.6724                   23295355.6414
   2317523.58647   1847835.89145  23346198.8134                   23346199.2344
 -37969064.60548 -29539067.09446  20796595.1884                   20796591.0234
 11  7 29  1 19  0.0000000  0  9G09G17G28G10G04G12G27G05G02
 -25696733.44147 -19764815.28945  22926889.3834                   22926889.3324
 -82627784.28147 -64335540.99645  22659076.0944                   22659074.3834
-100179220.94946 -78021766.02043  24318242.0234                   24318242.6524
 -26276802.46548 -20432020.38346  21228977.8594                   21228976.0634
 -59077300.84048 -45983514.77046  20860429.1094                   20860428.0124
 -10555406.94947  -8182326.34845  22284547.3674                   22284545.5274
 -40413209.10247 -30922746.78144  23286495.0944                   23286495.7504
   2112125.41447   1687785.48445  23307113.4924                   23307112.5864
 -38092036.46548 -29634889.28946  20773194.1094                   20773190.1054
 11  7 29  1 19 30.0000000  0  9G09G17G28G10G04G12G27G05G02
 -25734261.48447 -19794057.96144  22919747.7424                   22919747.9304
 -82682641.60247 -64378286.95745  22648637.6884                   22648635.3874
-100178778.43046 -78021421.32043  24318326.7894                   24318326.7814
 -26420047.12948 -20543639.56246  21201719.2344                   21201718.1844
 -59116194.32448 -46013821.39846  20853028.6954                   20853026.8134
 -10736949.46148  -8323788.01246  22250001.2584                   22249999.4344
 -40459459.78547 -30958786.34844  23277693.5634                   23277694.0784
   1906909.18047   1527876.82445  23268061.1414                   23268061.7734
 -38214581.85948 -29730379.17246  20749874.4454                   20749870.4494
 11  7 29  1 20  0.0000000  0  9G09G17G28G10G04G12G27G05G02
 -25771349.39547 -19822957.68044  22912689.8984                   22912689.6134
 -82737304.49247 -64420881.44145  22638235.6484                   22638233.6054
-100178070.63345 -78020869.86343  24318460.9064                   24318461.5394
 -26562670.43448 -20654774.57446  21174579.2814                   21174577.2114
 -59154727.21148 -46043847.02746  20845695.7274                   20845694.2934
 -10918135.74248  -8464972.09045  22215522.9304                   22215521.1414
 -40505404.64847 -30994587.60244  23268950.6724                   23268951.2424
   1701874.69147   1368109.82445  23229044.7274                   23229044.1954
 -38336704.66848 -29825539.77046  20726635.3524                   20726631.1414
 11  7 29  1 20 30.0000000  0  9G09G17G28G10G04G12G27G05G02
 -25808001.78547 -19851518.02344  22905715.1644                   22905715.7664
 -82791774.14147 -64463325.34045  22627869.7664                   22627867.7584
-100177100.99246 -78020114.45342  24318644.8054                   24318646.3164
 -26704671.52348 -20765424.74246  21147556.9694                   21147555.7074
 -59192903.50848 -46073594.79346  20838430.8364                   20838429.1604
 -11098964.62548  -8605877.67245  22181111.9384                   22181110.2304
 -40551047.94547 -31030153.85244  23260265.3754                   23260266.0744
   1497023.51247   1208485.63345  23190062.5474                   23190062.7384
 -38458406.98448 -29920372.71546  20703476.2664                   20703472.4884
 11  7 29  1 21  0.0000000  0  8G09G17G10G04G12G27G05G02
 -25844222.50847 -19879742.02344  22898823.4224                   22898822.9964
 -82846050.53147 -64505618.64145  22617541.6254                   22617539.6804
 -26846049.17648 -20875589.11746  21120653.8754                   21120652.0784
 -59230726.29748 -46103067.11346  20831233.5394                   20831232.1804
 -11279434.02748  -8746503.14546  22146769.7114                   22146767.8524
 -40596393.00847 -31065487.74244  23251636.4144                   23251636.3444
   1292357.59047   1049005.81345  23151115.6024                   23151115.8954
 -38579690.08648 -30014879.00846  20680396.5004                   20680392.6454
 11  7 29  1 21 30.0000000  0  8G09G17G10G04G12G27G05G02
 -25880013.95747 -19907631.51644  22892012.0314                   22892012.0594
 -82900132.29747 -64547760.30145  22607250.6644                   22607248.2504
 -26986800.68748 -20985265.57846  21093869.0084                   21093867.7504
 -59268196.83248 -46132264.94546  20824103.2664                   20824101.7074
 -11459540.62148  -8886845.90245  22112496.7034                   22112494.1094
 -40641441.50047 -31100590.51644  23243063.4844                   23243064.9184
   1087881.00847    889673.53945  23112204.9534                   23112205.2344
 -38700553.51648 -30109058.29746  20657396.8984                   20657393.2074
 11  7 29  1 22  0.0000000  0  8G09G17G10G04G12G27G05G02
 -25915378.71547 -19935188.53544  22885283.0084                   22885282.5784
 -82954017.98047 -64589749.15645  22596995.8524                   22596994.0164
 -27126923.46548 -21094452.12946  21067204.9144                   21067203.9344
 -59305316.83248 -46161189.62146  20817039.4694                   20817037.6604
 -11639280.62948  -9026903.02345  22078293.0164                   22078291.3524
 -40686195.38347 -31135463.73044  23234548.2584                   23234548.6994
    883597.42647    730491.63745  23073331.2974                   23073330.9924
 -38820997.46948 -30202910.71546  20634477.3594                   20634473.0554
 11  7 29  1 22 30.0000000  0  8G09G17G10G04G12G27G05G02
 -25950316.84447 -19962413.08244  22878634.3524                   22878634.3714
 -83007703.98047 -64631582.42645  22586779.7894                   22586778.7624
 -27266411.93748 -21203144.42246  21040661.2814                   21040659.6564
 -59342085.38748 -46189840.45346  20810042.5474                   20810041.3134
 -11818648.91048  -9166670.47345  22044160.8284                   22044158.3054
 -40730653.81247 -31170106.72744  23226088.0394                   23226088.3444
    679513.07047    571464.97745  23034495.2974                   23034495.2114
 -38941019.17648 -30296434.10546  20611638.0164                   20611633.6024
 11  7 29  1 23  0.0000000  0  8G09G17G10G04G12G27G05G02
 -25984825.85947 -19989303.27744  22872067.7114                   22872067.2074
 -83061183.69547 -64673254.94545  22576603.5004                   22576601.7854
 -27405258.26248 -21311336.32846  21014239.6954                   21014238.3554
 -59378498.74248 -46218214.52046  20803113.4774                   20803112.1134
 -11997636.77048  -9306141.51245  22010100.1644                   22010098.2584
 -40774813.71147 -31204517.10944  23217684.6414                   23217684.7774
    475636.85547    412600.53545  22995699.0554                   22995698.3524
 -39060613.39848 -30389624.39846  20588880.0784                   20588876.1054
 11  7 29  1 23 30.0000000  0  8G09G17G10G04G12G27G05G02
 -26018917.81647 -20015868.46944  22865579.9304                   22865579.8834
 -83114465.59847 -64714773.31245  22566463.7974                   22566462.3404
 -27543469.36748 -21419033.27346  20987939.2034                   20987937.1914
 -59414568.46948 -46246320.81646  20796249.5164                   20796247.9064
 -12176250.64848  -9445321.13745  21976111.6174                   21976109.2274
 -40818686.73047 -31238703.94944  23209336.1024                   23209336.4184
    271962.65647    253893.47745  22956941.0004                   22956941.0514
 -39179790.04348 -30482489.29746  20566201.3204                   20566197.3324
 11  7 29  1 24  0.0000000  0  8G09G17G10G04G12G27G05G02
 -26052593.67647 -20042109.45344  22859171.8054                   22859171.8634
 -83167547.08247 -64756135.53145  22556362.8834                   22556361.1604
 -27681041.31648 -21526232.16046  20961759.6094                   20961758.3404
 -59450294.73848 -46274159.48046  20789450.8054                   20789449.6644
 -12354485.82448  -9584205.67645  21942194.1024                   21942191.9804
 -40862273.48047 -31272667.70744  23201041.8984                   23201042.0434
     68495.52047     95347.77045  22918222.6094                   22918221.4774
 -39298547.52348 -30575027.58246  20543602.3984                   20543598.5904
 11  7 29  1 24 30.0000000  0  8G09G17G10G04G12G27G05G02
 -26085858.81247 -20068030.40244  22852841.2734                   22852841.5274
 -83220429.20347 -64797342.41845  22546299.7034                   22546298.1094
 -27817973.94948 -21632932.88746  20935702.4774                   20935700.9414
 -59485681.41848 -46301733.52346  20782717.0474                   20782715.6374
 -12532341.20348  -9722794.27346  21908349.1884                   21908346.8524
 -40905578.49647 -31306411.94944  23192800.7734                   23192801.1884
   -134763.25047    -63035.57445  22879542.9924                   22879542.9924
 -39416888.51248 -30667241.33246  20521082.8834                   20521079.0514
 11  7 29  1 25  0.0000000  0  8G09G17G10G04G12G27G05G02
 -24543304.73847 -18866040.25044  23146379.9844                   23146380.0664
 -81697699.22747 -63610799.59445  22836065.3834                   22836064.5274
 -26378850.33648 -20511537.84046  21209558.4924                   21209557.2504
 -57945319.39148 -45101451.43446  21075838.4064                   21075836.5004
 -11134397.98048  -8633487.85546  22174369.0084                   22174366.9884
 -39373192.42647 -30112344.96944  23484403.6644                   23484404.8954
   1237606.82047   1006343.78545  23140696.8674                   23140696.0354
 -37959398.98448 -29531535.19146  20798434.2194                   20798430.3404
 11  7 29  1 25 30.0000000  0  8G09G17G10G04G12G27G05G02
 -24575772.14147 -18891339.57844  23140201.1954                   23140201.6994
 -81750195.27347 -63651705.65245  22826076.0234                   22826074.8754
 -26514512.69548 -20617248.74646  21183742.6024                   21183741.5824
 -57980048.17248 -45128512.83246  21069229.8594                   21069228.4104
 -11311500.56648  -8771489.84846  22140667.4454                   22140665.5394
 -39415955.80147 -30145667.14844  23476267.1724                   23476266.4344
   1034759.84847    848281.32445  23102095.9304                   23102096.0354
 -38076922.73848 -29623112.12146  20776070.1414                   20776066.3444
 11  7 29  1 26  0.0000000  0  8G09G17G10G04G12G27G05G02
 -24607845.13347 -18916331.61344  23134098.9064                   23134098.6414
 -81802496.78547 -63692460.09045  22816123.3364                   22816122.1844
 -26649536.71548 -20722462.25046  21158048.5944                   21158047.4024
 -58014450.77348 -45155320.07046  21062683.1174                   21062681.4774
 -11488222.14848  -8909194.96546  22107038.3524                   22107036.3754
 -39458451.74246 -30178780.90244  23468179.8594                   23468179.8244
    832123.62147    690383.07845  23063535.4064                   23063535.3204
 -38194038.24648 -29714370.94546  20753783.5474                   20753780.0354
 11  7 29  1 26 30.0000000  0  8G09G17G10G04G12G27G05G02
 -24639528.93047 -18941020.32444  23128068.6724                   23128069.2464
 -81854605.24647 -63733064.12145  22806207.4064                   22806206.0354
 -26783922.38748 -20827178.34046  21132476.1334                   21132474.7034
 -58048531.68748 -45181876.63346  21056198.0554                   21056196.1954
 -11664562.46548  -9046602.98446  22073481.7274                   22073480.4144
 -39500685.24646 -30211690.18044  23460143.9064                   23460143.4184
    629699.06647    532649.75045  23025015.5164                   23025014.6884
 -38310748.66848 -29805314.10546  20731574.3364                   20731570.2544
 11  7 29  1 27  0.0000000  0  8G09G17G10G04G12G27G05G02
 -24670824.87947 -18965406.87144  23122113.3524                   23122114.6724
 -81906518.09047 -63773515.70745  22796328.5784                   22796327.8324
 -26917665.89148 -20931394.03946  21107025.3054                   21107023.8954
 -58082291.18448 -45208182.73446  21049773.7974                   21049772.0234
 -11840516.84447  -9183710.28946  22039999.2344                   22039997.3204
 -39542657.02746 -30244395.55944  23452156.1484                   23452156.7664
    427491.24247    375085.31645  22986536.7274                   22986535.9734
 -38427052.54748 -29895940.48046  20709442.2814                   20709438.2584
 11  7 29  1 27 30.0000000  0  8G09G17G10G04G12G27G05G02
 -24701738.89547 -18989495.72744  23116231.0394                   23116231.7114
 -81958237.36347 -63813816.46545  22786486.9614                   22786485.8324
 -27050768.20348 -21035110.10546  21081697.0314                   21081695.6884
 -58115733.98848 -45234242.06646  21043409.5944                   21043408.1884
 -12016085.22748  -9320516.82046  22006589.5944                   22006588.0784
 -39584372.12546 -30276900.89543  23444218.5314                   23444218.8794
    225500.83247    217690.30145  22948098.7664                   22948098.5514
 -38542953.56248 -29986252.96546  20687387.3364                   20687383.6174
 11  7 29  1 28  0.0000000  0  8G09G17G10G04G12G27G05G02
 -24732274.80147 -19013289.99644  23110420.2504                   23110420.1804
 -82009762.53547 -63853965.96545  22776682.2194                   22776680.5704
 -27183227.93448 -21138325.45746  21056490.5704                   21056489.2034
 -58148862.90248 -45260056.81646  21037105.3984                   21037103.7464
 -12191265.18748  -9457020.67646  21973253.7734                   21973251.7504
 -39625833.52346 -30309208.57044  23436328.6174                   23436329.0354
     23730.25447     60466.55145  22909702.5314                   22909702.4614
 -38658452.25848 -30076251.93746  20665408.4454                   20665404.8014
 11  7 29  1 28 30.0000000  0  8G09G17G10G04G12G27G05G02
 -24762440.73847 -19036796.00044  23104679.9304                   23104680.9494
 -82061098.22347 -63893967.81645  22766913.5234                   22766912.1134
 -27315048.46148 -21241042.73446  21031405.9614                   21031404.4694
 -58181685.35548 -45285632.75446  21030859.6024                   21030857.9804
 -12366059.28948  -9593223.88746  21939991.9064                   21939989.5704
 -39667049.09447 -30341324.64144  23428484.9774                   23428485.9534
   -177822.55547    -96587.46945  22871348.2894                   22871348.5314
 -38773554.43748 -30165941.93046  20643505.4304                   20643501.2854
 11  7 29  1 29  0.0000000  0  8G09G17G10G04G12G27G05G02
 -24792236.28946 -19060013.37544  23099009.4844                   23099010.4384
 -82112240.28147 -63933818.78945  22757181.4304                   22757179.3714
 -27446224.39148 -21343257.71546  21006444.3594                   21006442.9844
 -58214199.44948 -45310968.42646  21024672.2424                   21024670.9694
 -12540461.19547  -9729121.48446  21906804.2344                   21906802.0204
 -39708017.61747 -30373248.23844  23420689.5944                   23420690.0904
   -379150.61347   -253466.38345  22833037.3594                   22833036.4774
 -38888257.47348 -30255320.90246  20621678.2274                   20621673.9384
 11  7 29  1 29 30.0000000  0  8G09G17G10G04G12G27G05G02
 -24821662.07847 -19082942.64544  23093411.3284                   23093411.4304
 -82163184.89947 -63973515.88745  22747486.5944                   22747485.2894
 -27576750.80148 -21444966.58646  20981605.9774                   20981603.9024
 -58246404.67648 -45336063.39846  21018543.3834                   21018542.3754
 -12714465.42647  -9864709.17246  21873692.3984                   21873690.5904
 -39748738.93446 -30404979.20744  23412940.1884                   23412941.4104
   -580248.14547   -410165.65645  22794770.0394                   22794769.8204
 -39002558.89148 -30344386.93746  20599927.0234                   20599923.1604
 11  7 29  1 30  0.0000000  0  8G09G17G10G04G12G27G05G02
 -24850727.02347 -19105590.70344  23087880.1334                   23087879.5164
 -82213937.44547 -64013063.33645  22737828.9144                   22737827.3634
 -27706631.66048 -21546172.41846  20956890.3134                   20956888.5044
 -58278308.93448 -45360923.84846  21012472.5164                   21012471.0354
 -12888075.04748  -9999989.38346  21840655.0164                   21840653.4574
 -39789221.31247 -30436523.98444  23405236.7814                   23405237.8524
   -781117.71547   -566687.31645  22756545.4774                   22756544.5864
 -39116465.39148 -30433145.23046  20578251.5634                   20578247.8324
 11  7 29  1 30 30.0000000  0  8G09G17G10G04G12G27G05G02
 -24879433.48447 -19127959.44144  23082416.5784                   23082417.8404
 -82264496.39547 -64052459.91845  22728207.9304                   22728205.8164
 -27835864.45348 -21646873.26646  20932298.0634                   20932296.2234
 -58309913.78548 -45385551.00846  21006458.1094                   21006457.2624
 -13061286.55548 -10134959.35546  21807694.0864                   21807692.7384
 -39829466.80147 -30467884.17244  23397579.2424                   23397579.3134
   -981755.70747   -723028.50445  22718365.4614                   22718364.8954
 -39229976.83248 -30521595.70346  20556650.9534                   20556647.0274
 11  7 29  1 31  0.0000000  0  8G09G17G10G04G12G27G05G02
 -24907786.96146 -19150053.12144  23077022.3754                   23077022.4224
 -82314863.19147 -64091706.77745  22718623.1884                   22718621.8404
 -27964449.96148 -21747069.73846  20907829.0164                   20907827.4384
 -58341223.64848 -45409948.31246  21000500.3134                   21000498.9884
 -13234099.84848 -10269619.03546  21774808.7344                   21774807.5864
 -39869480.03946 -30499063.37544  23389963.9064                   23389965.2114
  -1182161.13347   -879188.47745  22680228.8914                   22680227.8634
 -39343096.10248 -30609740.59046  20535124.8834                   20535120.8794
 11  7 29  1 31 30.0000000  0  8G09G17G10G04G12G27G05G02
 -24935791.46947 -19171874.88344  23071692.6174                   23071693.4264
 -82365037.80147 -64130803.87945  22709075.9924                   22709073.9184
 -28092387.12148 -21846761.00046  20883482.9384                   20883481.4024
 -58372241.13748 -45434117.78146  20994597.6484                   20994596.3594
 -13406512.63748 -10403966.64846  21741999.9924                   21741998.1094
 -39909264.28146 -30530064.12944  23382393.3524                   23382394.7234
  -1382331.15247  -1035165.03145  22642138.1724                   22642137.5164
 -39455824.55948 -30697580.93446  20513673.1724                   20513669.4264
 11  7 29  1 32  0.0000000  0  8G09G17G10G04G12G27G05G02
 -24963448.81247 -19193426.10544  23066429.7734                   23066429.4264
 -82415018.18047 -64169749.63745  22699564.3984                   22699563.0124
 -28219672.78948 -21945944.59846  20859261.6724                   20859260.0514
 -58402967.00448 -45458060.02046  20988750.8364                   20988749.6054
 -13578520.73847 -10537998.91846  21709267.8594                   21709265.8674
 -39948820.73447 -30560887.43044  23374866.9534                   23374867.0434
  -1582261.73847  -1190955.00045  22604092.2034                   22604091.6844
 -39568161.40248 -30785116.11346  20492296.8054                   20492292.7734
 11  7 29  1 32 30.0000000  0  8G09G17G10G04G12G27G05G02
 -24990767.22347 -19214713.25844  23061231.7034                   23061231.6094
 -82464808.83647 -64208547.55545  22690089.6174                   22690087.7424
 -28346310.26248 -22044623.11746  20835163.1724                   20835161.5864
 -58433408.39148 -45481780.58246  20982958.1884                   20982956.9454
 -13750126.71548 -10671717.82046  21676611.8674                   21676610.2384
 -39988157.23446 -30591539.29744  23367381.6174                   23367382.3914
  -1781954.71147  -1346559.80945  22566092.5474                   22566091.0904
 -39680112.53948 -30872350.75446  20470992.7734                   20470988.8634
 11  7 29  1 33  0.0000000  0  8G09G17G10G04G12G27G05G02
 -23442326.80947 -18008136.38744  23355889.7504                   23355889.7974
 -80938984.83647 -63019593.80545  22980444.4924                   22980443.1954
 -26896871.59448 -20915190.35546  21110981.9614                   21110980.5084
 -56888144.18448 -44277678.60246  21277011.7344                   21277010.5204
 -12345899.50447  -9577514.74246  21943827.3524                   21943825.8244
 -38451852.69546 -29394418.94944  23659730.4304                   23659731.3674
   -405977.80947   -274369.91845  22827931.8594                   22827930.2274
 -38216252.59048 -29731680.65246  20749556.0164                   20749552.2034
 11  7 29  1 33 30.0000000  0  8G09G17G10G04G12G27G05G02
 -23468974.68447 -18028901.03944  23350818.5944                   23350819.1214
 -80988390.80547 -63058091.96945  22971042.4924                   22971041.3324
 -27022205.24648 -21012852.91046  21087131.6804                   21087130.1454
 -56918020.33248 -44300958.72346  21271327.2274                   21271325.6254
 -12516690.04747  -9710598.25046  21911326.7504                   21911325.1994
 -38490754.17647 -29424731.82843  23652327.3524                   23652327.4344
   -605183.01247   -429594.64845  22790024.4924                   22790022.8794
 -38327431.48848 -29818313.54746  20728399.5004                   20728395.4384
 11  7 29  1 34  0.0000000  0  8G09G17G10G04G12G27G05G02
 -23495291.55547 -18049407.72744  23345810.4694                   23345811.2344
 -81037602.78147 -63096439.00445  22961677.8914                   22961676.2384
 -27146884.34448 -21110005.41846  21063406.1174                   21063404.4844
 -56947616.48048 -44324020.66046  21265695.4924                   21265693.9494
 -12687068.60248  -9843360.72346  21878905.0234                   21878903.2424
 -38529441.62546 -29454877.94143  23644965.0634                   23644965.8524
   -804139.22747   -584625.36345  22752164.1484                   22752163.3754
 -38438225.02348 -29904646.15246  20707316.1564                   20707312.0234
 11  7 29  1 34 30.0000000  0  8G09G17G10G04G12G27G05G02
 -23521285.50847 -18069662.81644  23340864.4304                   23340864.5474
 -81086625.23447 -63134638.33645  22952348.7894                   22952347.9344
 -27270912.10948 -21206650.39146  21039804.0234                   21039802.8404
 -56976939.76248 -44346869.97746  21260114.8524                   21260113.5984
 -12857037.15248  -9975803.69546  21846561.1884                   21846559.2384
 -38567922.59846 -29484863.15244  23637642.9224                   23637643.8794
  -1002848.58647   -739463.72345  22714350.7974                   22714348.7894
 -38548638.80148 -29990682.85946  20686304.8914                   20686300.9344
 11  7 29  1 35  0.0000000  0  8G09G17G10G04G12G27G05G02
 -23546960.77047 -18089669.59044  23335978.6884                   23335979.0824
 -81135458.87147 -63172690.54345  22943056.3834                   22943055.2114
 -27394288.13748 -21302787.53946  21016326.9144                   21016325.3204
 -57005993.23048 -44369509.05946  21254586.3204                   21254585.0784
 -13026594.50048 -10107926.26246  21814295.6414                   21814294.0274
 -38606200.56246 -29514690.18044  23630358.6884                   23630359.8324
  -1201308.64147   -894107.81645  22676584.5784                   22676583.9264
 -38658674.60248 -30076425.02746  20665366.1094                   20665362.0044
 11  7 29  1 35 30.0000000  0  8G09G17G10G04G12G27G05G02
 -23572320.01647 -18109430.10244  23331153.0704                   23331153.5164
 -81184101.50847 -63210593.93444  22933800.3594                   22933798.8324
 -27517010.03548 -21398414.95746  20992973.7664                   20992971.7584
 -57034778.27748 -44391938.96146  21249108.5084                   21249107.3014
 -13195737.02748 -10239725.58646  21782109.6024                   21782107.1764
 -38644277.48446 -29544360.57444  23623113.1174                   23623114.0204
  -1399515.54747  -1048554.65245  22638866.9384                   22638866.0824
 -38768332.19548 -30161872.50046  20644499.1334                   20644495.0124
 11  7 29  1 36  0.0000000  0  8G09G17G10G04G12G27G05G02
 -23597368.53547 -18128948.47744  23326386.5864                   23326387.1844
 -81232554.26647 -63248349.35944  22924579.9454                   22924578.0824
 -27639078.61348 -21493533.30146  20969744.6724                   20969742.8914
 -57063298.90248 -44414162.83646  21243681.1564                   21243680.0004
 -13364464.04348 -10371201.14546  21750001.2114                   21749999.6374
 -38682157.92246 -29573877.86744  23615904.9064                   23615905.1374
  -1597468.27047  -1202803.41045  22601197.7664                   22601197.3364
 -38877614.52348 -30247027.54746  20623703.1414                   20623699.1214
 11  7 29  1 36 30.0000000  0  9G09G17G25G10G04G12G27G05G02
 -23622108.79747 -18148226.64544  23321677.9064                   23321679.8014
 -81280816.35247 -63285956.18744  22915396.1484                   22915394.6134
  20180836.10556  15764258.34853  24648479.1334                   24648480.4304
 -27760491.52348 -21588140.74246  20946640.4454                   20946638.0274
 -57091556.02748 -44436181.39146  21238304.1254                   21238302.7034
 -13532771.94548 -10502350.12946  21717973.4454                   21717970.9414
 -38719843.53146 -29603243.34044  23608733.7034                   23608734.0554
  -1795162.52747  -1356850.79345  22563578.0784                   22563576.9304
 -38986521.33648 -30331889.98446  20602979.0864                   20602974.8984
 11  7 29  1 37  0.0000000  0  9G09G17G25G10G04G12G27G05G02
 -23646547.41847 -18167269.78144  23317027.8914                   23317027.9774
 -81328890.28947 -63323416.42644  22906247.5164                   22906246.1724
  19978571.61346  15606649.69143  24609988.6334                   24609990.7274
 -27881250.49248 -21682238.61746  20923660.8914                   20923659.0124
 -57119555.57848 -44457999.22346  21232975.8984                   21232974.2704
 -13700661.37548 -10633173.03546  21686024.9224                   21686022.9304
 -38757340.49246 -29632461.79743  23601598.2114                   23601599.5514
  -1992599.12147  -1510697.38345  22526007.0004                   22526005.7114
 -39095057.01648 -30416463.23446  20582325.3674                   20582321.2774
 11  7 29  1 37 30.0000000  0  9G09G17G25G10G04G12G27G05G02
 -23670691.14847 -18186083.15244  23312433.3674                   23312434.4614
 -81376778.55547 -63360732.00044  22897135.8284                   22897132.8164
  19776459.41447  15449159.66443  24571528.6334                   24571529.2814
 -28001357.87148 -21775828.75046  20900805.5314                   20900803.7344
 -57147302.95348 -44479620.56646  21227695.9304                   21227694.5204
 -13868133.52748 -10763670.78546  21654156.1564                   21654153.8674
 -38794654.94546 -29661538.05143  23594497.4774                   23594498.1484
  -2189778.03147  -1664343.19545  22488485.2814                   22488484.5904
 -39203225.61748 -30500750.43746  20561741.5314                   20561737.7154
 11  7 29  1 38  0.0000000  0  9G09G17G25G10G04G12G27G05G02
 -23694547.56647 -18204672.59044  23307894.4774                   23307894.2704
 -81424484.96147 -63397905.82444  22888057.1094                   22888055.9144
  19574497.76247  15291786.94143  24533096.0164                   24533096.8524
 -28120816.91448 -21868913.69146  20878072.8134                   20878071.5944
 -57174804.61348 -44501050.43046  21222462.6564                   21222461.3794
 -14035190.16048 -10893844.75846  21622366.2894                   21622363.6024
 -38831793.89146 -29690477.56243  23587429.9384                   23587430.6334
  -2386700.64547  -1817789.28145  22451011.9064                   22451011.0044
 -39311032.64548 -30584755.89847  20541226.3914                   20541222.1214
 11  7 29  1 38 30.0000000  0  9G09G17G25G10G04G12G27G05G02
 -23718115.71547 -18223037.44944  23303409.8284                   23303409.9924
 -81472004.92247 -63434934.39144  22879014.6334                   22879012.9064
  19372693.32447  15134536.80143  24494694.2974                   24494694.6804
 -28239621.77048 -21961488.88746  20855465.1804                   20855463.5474
 -57202058.51648 -44522287.25446  21217276.4924                   21217275.1644
 -14201824.36748 -11023689.57446  21590656.4224                   21590654.7664
 -38868755.77347 -29719279.05943  23580396.3364                   23580396.4304
  -2583359.64147  -1971029.97745  22413588.7584                   22413587.7074
 -39418474.43048 -30668476.76646  20520781.1484                   20520776.7544
 11  7 29  1 39  0.0000000  0  9G09G17G25G10G04G12G27G05G02
 -23741400.73047 -18241181.66844  23298978.1564                   23298978.5004
 -81519339.37947 -63471818.41845  22870006.7894                   22870005.7734
  19171047.16447  14977409.99243  24456322.0004                   24456322.1134
 -28357773.23048 -22053554.94546  20832981.5004                   20832979.5084
 -57229068.32448 -44543333.87546  21212136.7424                   21212135.1954
 -14368035.22748 -11153204.48846  21559027.6414                   21559025.9344
 -38905544.86346 -29747945.97743  23573395.7734                   23573396.0594
  -2779753.57847  -2124064.14145  22376216.3444                   22376215.2114
 -39525553.54348 -30751915.01646  20500404.5004                   20500400.3094
 11  7 29  1 39 30.0000000  0  9G09G17G25G10G04G12G27G05G02
 -23764404.53147 -18259106.75444  23294601.6024                   23294601.6524
 -81566486.15647 -63508556.18045  22861034.9384                   22861034.0904
  18969563.07847  14820409.50043  24417979.9694                   24417980.6724
 -28475268.34848 -22145109.55946  20810622.9844                   20810620.8754
 -57255834.74648 -44564190.85546  21207042.5474                   21207041.7934
 -14533818.80948 -11282386.48446  21527480.2194                   21527477.9064
 -38942162.64146 -29776479.32843  23566427.7664                   23566428.5354
  -2975878.25047  -2276888.48045  22338894.5554                   22338893.7274
 -39632269.37148 -30835070.19146  20480097.0234                   20480092.8134
 11  7 29  1 40  0.0000000  0  9G09G17G25G10G04G12G27G05G02
 -23787132.03547 -18276816.52744  23290276.2194                   23290276.7194
 -81613446.07447 -63545148.36745  22852099.1414                   22852097.7234
  18768242.06347  14663536.05543  24379669.6254                   24379670.1994
 -28592107.76648 -22236153.23046  20788389.0864                   20788387.6054
 -57282361.50048 -44584861.07046  21201995.0704                   21201993.8524
 -14699173.87548 -11411234.57846  21496014.2274                   21496011.7664
 -38978613.31646 -29804882.48443  23559491.7814                   23559491.7624
  -3171732.20747  -2429501.86745  22301625.1484                   22301624.0124
 -39738624.77348 -30917944.51246  20459858.2734                   20459854.1884
 11  7 29  1 40 30.0000000  0  9G09G17G25G10G04G12G27G05G02
 -22234165.10547 -17066712.49644  23585796.3674                   23585796.3794
 -80084796.44547 -62353992.83645  23142991.4694   23142990.6294   20142514.19547
  15734397.52343                  24641184.9064                   24641185.5354
 -27132865.75848 -21099081.51646  21066073.7664                   21066072.2774
 -55733229.11748 -43377744.93045  21496785.5314                   21496784.1954
 -13288672.24248 -10312142.37546  21764423.7894                   21764421.1454
 -37439477.30546 -28605555.80543  23852380.1024                   23852379.9924
  -1791884.82847  -1354296.03945  22564200.8594                   22564199.9454
 -38269196.01248 -29772935.07846  20739481.2504                   20739476.7154
 11  7 29  1 41  0.0000000  0  9G09G17G25G10G04G12G27G05G02
 -22256347.06247 -17083997.16444  23581575.2424                   23581575.8524
 -80131378.08647 -62390290.26245  23134127.0634   23134125.8444   19941530.29746
  15577786.77743                  24602938.5704                   24602939.1524
 -27248387.28948 -21189098.27346  21044090.6804                   21044089.1764
 -55759279.64148 -43398044.03945  21491828.0864                   21491826.3984
 -13453160.60548 -10440315.12146  21733122.5554                   21733119.5124
 -37475598.28546 -28633702.05543  23845506.4064                   23845506.2114
  -1987184.60247  -1506477.60545  22527036.5234                   22527035.9774
 -38374829.32848 -29855246.75046  20719379.8204                   20719375.7424
 11  7 29  1 41 30.0000000  0  9G09G17G25G10G04G12G27G05G02
 -22278259.98047 -17101072.23044  23577405.7814                   23577405.6454
 -80177768.87947 -62426438.94945  23125299.8444   23125297.9574   19740719.91047
  15421311.24243                  24564726.5474                   24564725.8444
 -27363246.98848 -21278599.32046  21022233.6724                   21022231.7424
 -55785094.12948 -43418159.24645  21486915.6884                   21486914.1414
 -13617210.37948 -10568146.10546  21701905.2344                   21701902.4734
 -37511557.42246 -28661722.23443  23838663.9064                   23838663.7704
  -2182201.70747  -1658438.91045  22489925.9694                   22489925.0864
 -38480101.97348 -29937277.36746  20699346.7974                   20699342.7934
 11  7 29  1 42  0.0000000  0  9G09G17G25G10G04G12G27G05G02
 -22299908.90246 -17117941.57444  23573285.5164                   23573285.8404
 -80223969.51247 -62462439.45745  23116507.2664   23116506.5944   19540084.02747
  15264971.69543                  24526546.0394                   24526547.0274
 -27477445.52748 -21367585.16846  21000502.1884                   21000500.5394
 -55810676.08648 -43438093.25446  21482047.6564                   21482046.0664
 -13780820.83648 -10695634.75046  21670770.8754                   21670768.5664
 -37547359.12946 -28689619.67244  23831850.5234                   23831851.0824
  -2376934.55947  -1810178.73045  22452869.3834                   22452868.5784
 -38585016.41048 -30019028.87147  20679382.7504                   20679378.5784
 11  7 29  1 42 30.0000000  0  9G09G17G25G10G04G12G27G05G02
 -22321296.19147 -17134607.06244  23569215.7194                   23569216.6724
 -80269978.21147 -62498290.41445  23107752.4694   23107751.1684   19339626.32046
  15108770.96543                  24488399.3524                   24488401.1334
 -27590980.42647 -21456053.90246  20978897.1174                   20978895.7074
 -55836026.65248 -43457846.95746  21477223.3284                   21477222.0474
 -13943988.34047 -10822778.25446  21639721.1644                   21639718.6454
 -37583004.93746 -28717395.66444  23825067.3834                   23825068.0044
  -2571379.43747  -1961694.15245  22415867.6724                   22415867.1024
 -38689572.48448 -30100501.10946  20659486.2274                   20659482.4804
 11  7 29  1 43  0.0000000  0  9G09G17G25G10G04G12G27G05G02
 -22342427.44547 -17151073.04344  23565194.3134                   23565194.9344
 -80315796.50847 -62533993.00445  23099033.7424   23099032.2814   19139347.21946
  14952709.41842                  24450287.6254                   24450288.6254
 -27703853.43048 -21544006.86746  20957418.0084                   20957416.4964
 -55861150.06248 -43477423.65245  21472443.1024                   21472441.4454
 -14106712.35947 -10949576.18746  21608755.7504                   21608753.4344
 -37618499.78146 -28745054.06244  23818313.3444                   23818313.8164
  -2765535.14547  -2112984.22345  22378921.1254                   22378920.6524
 -38793773.36348 -30181696.59046  20639656.9144                   20639653.5784
 11  7 29  1 43 30.0000000  0  9G09G17G25G10G04G12G27G05G02
 -22363303.17646 -17167339.88744  23561221.6254                   23561222.6374
 -80361421.16047 -62569544.69145  23090351.6954   23090350.4344   18939252.14846
  14796791.23843                  24412211.6644                   24412212.2974
 -27816060.62548 -21631441.01646  20936066.0634                   20936064.6454
 -55886045.68448 -43496822.84445  21467705.0944                   21467703.9264
 -14268987.84048 -11076024.59446  21577875.8674                   21577873.8634
 -37653843.69946 -28772594.82443  23811587.3444                   23811587.7034
  -2959396.06647  -2264044.61745  22342030.9844                   22342029.6024
 -38897616.93748 -30262613.66446  20619897.0864                   20619892.9964
 11  7 29  1 44  0.0000000  0  9G09G17G25G10G04G12G27G05G02
 -22383929.28147 -17183412.22744  23557297.2114                   23557297.5164
 -80406854.13347 -62604947.02345  23081705.3834   23081704.7344   18739341.11346
  14641016.49643                  24374168.8834                   24374171.0004
 -27927603.55948 -21718357.58246  20914840.0554                   20914838.4224
 -55910717.99648 -43516048.04345  21463010.2664                   21463009.1764
 -14430815.03148 -11202123.70746  21547081.3204                   21547078.6804
 -37689041.64146 -28800021.85943  23804889.2584                   23804890.1484
  -3152961.55147  -2414874.79745  22305196.2424                   22305195.5234
 -39001106.89548 -30343255.17646  20600203.0634                   20600198.8444
 11  7 29  1 44 30.0000000  0  9G09G17G25G10G04G12G27G05G02
 -22404306.78547 -17199290.84044  23553419.2974                   23553419.8674
 -80452092.43447 -62640197.66445  23073097.4224   23073096.2194   18539618.89146
  14485388.86343                  24336163.3914                   24336164.7114
 -28038479.27348 -21804754.22346  20893741.0554                   20893739.2074
 -55935166.68448 -43535098.98045  21458357.9924                   21458356.5634
 -14592189.12548 -11327869.75046  21516372.7734                   21516370.4534
 -37724094.08646 -28827335.53143  23798218.9454                   23798220.1804
  -3346226.23447  -2565470.59045  22268419.7194                   22268418.4064
 -39104241.99648 -30423620.17646  20580577.2424                   20580573.3164
 11  7 29  1 45  0.0000000  0  9G09G17G25G10G04G12G27G05G02
 -22424444.97747 -17214982.98844  23549587.7664                   23549587.5124
 -80497141.64847 -62675300.94945  23064524.8284   23064523.8794   18340082.34447
  14329905.87543                  24298193.8594                   24298194.8484
 -28148692.75848 -21890634.84046  20872767.9844                   20872766.4414
 -55959400.01248 -43553982.10245  21453746.7114                   21453744.8244
 -14753113.41448 -11453265.28146  21485749.4774                   21485747.3674
 -37759009.90246 -28854542.72744  23791574.3284                   23791575.9964
  -3539193.26247  -2715834.42245  22231699.1564                   22231697.5704
 -39207028.80148 -30503713.77746  20561017.7504                   20561013.5864
 11  7 29  1 45 30.0000000  0  9G09G17G25G10G04G12G27G05G02
 -22444347.19147 -17230491.27744  23545799.9614                   23545800.4064
 -80542001.07047 -62710256.34045  23055988.1254   23055986.8634   18140734.10547
  14174569.62143                  24260259.5004                   24260260.7074
 -28258243.09848 -21975998.73046  20851921.4614                   20851919.7274
 -55983419.71948 -43572698.79345  21449175.7584                   21449174.2114
 -14913585.46947 -11578308.44546  21455212.9064                   21455210.3244
 -37793791.57046 -28881645.39843  23784955.7274                   23784957.5904
  -3731859.52747  -2865963.90246  22195035.6484                   22195034.4574
 -39309468.31248 -30583536.76247  20541523.8594                   20541519.9384
 11  7 29  1 46  0.0000000  0  9G09G17G25G10G04G12G27G05G02
 -22464015.26247 -17245817.10244  23542057.0944                   23542057.4224
 -80586668.30147 -62745061.97745  23047488.4454   23047487.9144   17941578.35547
  14019383.35243                  24222361.0084                   24222363.0274
 -28367127.79748 -22060843.92246  20831201.3284                   20831199.3244
 -56007226.39548 -43591249.47345  21444645.4304                   21444643.9574
 -15073600.84848 -11702995.74646  21424763.0234                   21424761.0164
 -37828440.14546 -28908644.40244  23778362.8524                   23778364.0594
  -3924220.45747  -3015855.47745  22158430.7114                   22158429.5124
 -39411560.01648 -30663088.72346  20522096.4774                   20522092.6954
 11  7 29  1 46 30.0000000  0  9G09G17G25G10G04G12G27G05G02
 -22483453.39847 -17260963.74644  23538358.5084                   23538358.7424
 -80631143.93447 -62779718.31645  23039025.0004   23039024.1294   17742616.87947
  13864348.48844                  24184500.0314                   24184502.4304
 -28475346.91848 -22145170.48846  20810607.6884                   20810606.0634
 -56030822.77048 -43609636.26245  21440155.2734                   21440153.8484
 -15233158.74247 -11827326.55546  21394400.0474                   21394397.5514
 -37862959.24246 -28935542.47343  23771795.0394                   23771795.4774
  -4116273.85547  -3165507.39845  22121884.0634                   22121882.8594
 -39513305.83248 -30742371.16446  20502734.7894                   20502731.1294
 11  7 29  1 47  0.0000000  0  9G09G17G25G10G04G12G27G05G02
 -22502665.93746 -17275934.63744  23534701.6564                   23534703.2234
 -80675428.27347 -62814225.61345  23030598.0944   23030596.8204   17543851.33247
  13709466.28944                  24146676.1334                   24146677.7934
 -28582900.55948 -22228978.50046  20790141.0864                   20790139.2154
 -56054211.69148 -43627861.43045  21435704.5004                   21435703.2814
 -15392257.38347 -11951299.52046  21364124.6094                   21364121.6484
 -37897352.55146 -28962342.52343  23765249.1024                   23765251.0434
  -4308018.00447  -3314918.35945  22085396.1884                   22085395.6054
 -39614707.60948 -30821385.52746  20483438.7504                   20483434.8094
 11  7 29  1 47 30.0000000  0  9G09G17G25G10G04G12G27G05G02
 -22521658.31246 -17290733.96543  23531088.6024                   23531088.8834
 -80719522.63747 -62848584.85545  23022207.7814   23022206.3874   17345282.24247
  13554737.16444                  24108890.0864                   24108891.8594
 -28689790.30548 -22312269.19546  20769800.7344                   20769798.8094
 -56077397.52348 -43645928.32445  21431292.3914                   21431290.7974
 -15550896.49648 -12074914.41846  21333936.7814                   21333934.6484
 -37931624.84446 -28989048.30143  23758727.9224                   23758729.7934
  -4499451.56247  -3464087.30545  22048967.6094                   22048966.7704
 -39715768.32848 -30900134.12146  20464207.4144                   20464203.8324
 11  7 29  1 48  0.0000000  0  9G09G17G25G10G04G12G27G05G02
 -22540433.44546 -17305363.96944  23527515.8054                   23527515.7704
 -80763426.19947 -62882795.43044  23013852.7814   23013851.2194   17146912.71547
  13400163.53544                  24071141.2894                   24071143.1094
 -28796014.85548 -22395041.55946  20749586.9304                   20749584.7894
 -56100381.94148 -43663838.28145  21426918.6644                   21426917.4924
 -15709072.98448 -12198168.82046  21303836.7504                   21303833.9574
 -37965778.37546 -29015661.55543  23752228.4924                   23752230.3794
  -4690571.26247  -3613011.67645  22012598.9064                   22012597.7114
 -39816488.65248 -30978617.48046  20445040.9224                   20445037.4144
 11  7 29  1 48 30.0000000  0  9G09G17G25G10G04G12G27G05G02
 -20983571.33647 -16092224.71143  23823776.0944                   23823777.2584
 -79231714.11747 -61689253.55144  23305327.7664   23305326.6884   18524174.57047
  14473354.61344                  24333225.2664                   24333226.8164
 -27326148.00848 -21249690.73446  21029292.9844                   21029291.2774
 -54547743.44548 -42453990.11745  21722376.0634                   21722374.4344
 -14291356.94948 -11093455.03546  21573618.8674                   21573616.6454
 -36424392.17246 -27814581.48843  24045544.1564                   24045545.5594
  -3305945.19147  -2534082.21145  22276084.0944                   22276082.9414
 -38341443.44548 -29829231.58646  20725733.0634                   20725728.9304
 11  7 29  1 49  0.0000000  0  9G09G17G25G10G04G12G27G05G02
 -21001918.77347 -16106521.41444  23820285.5314                   23820285.7504
 -79275231.25446 -61723162.99644  23297046.5314   23297045.3204   18326214.94947
  14319100.43044                  24295554.8054                   24295556.6174
 -27431038.17248 -21331423.30946  21009333.1024                   21009331.2854
 -54570327.66448 -42471588.22745  21718078.3834                   21718076.9264
 -14448598.72348 -11215981.07846  21543696.4694                   21543694.5204
 -36458313.54746 -27841013.78143  24039089.8674                   24039090.7034
  -3496425.36747  -2682508.25045  22239836.7584                   22239835.8364
 -38441482.79748 -29907184.32046  20706695.8834                   20706692.0594
 11  7 29  1 49 30.0000000  0  9G09G17G25G10G04G12G27G05G02
 -21020056.19547 -16120654.52743  23816833.9304                   23816834.2544
 -79318552.90247 -61756920.13744  23288802.7814   23288801.3634   18128465.62546
  14165010.12143                  24257923.7894                   24257925.5554
 -27535258.52048 -21412633.95746  20989500.8754                   20989498.8134
 -54592713.39848 -42489031.67645  21713818.3754                   21713817.4774
 -14605368.14548 -11338139.06646  21513864.5704                   21513862.3914
 -36492121.37146 -27867357.62143  24032656.5004                   24032657.2274
  -3686580.15247  -2830680.74645  22203651.9694                   22203650.7774
 -38541181.69948 -29984871.75847  20687723.9614                   20687719.9384
 11  7 29  1 50  0.0000000  0  9G09G17G25G10G04G12G27G05G02
 -21037991.07847 -16134629.83243  23813421.5864                   23813421.1024
 -79361683.00847 -61790528.02044  23280594.8914   23280593.5784   17930925.18446
  14011082.56643                  24220332.8284                   24220334.7854
 -27638813.07448 -21493325.79746  20969795.2894                   20969793.0984
 -54614906.75048 -42506325.21545  21709594.9694                   21709593.8324
 -14761666.93048 -11459930.31646  21484121.3834                   21484119.6484
 -36525822.68046 -27893618.49643  24026243.3834                   24026244.7424
  -3876410.61747  -2978600.51646  22167528.1174                   22167526.6254
 -38640545.65248 -30062298.19946  20668815.9144                   20668811.6604
 11  7 29  1 50 30.0000000  0  9G09G17G25G10G04G12G27G05G02
 -21055727.76647 -16148450.71943  23810045.7424                   23810046.2934
 -79404621.96947 -61823986.94544  23272424.2664   23272422.5274   17733595.11346
  13857318.96143                  24182782.4534                   24182784.3094
 -27741701.72748 -21573498.76246  20950215.5864                   20950214.0904
 -54636910.86748 -42523471.31245  21705407.3444                   21705406.7384
 -14917494.02048 -11581354.01246  21454469.0084                   21454467.4804
 -36559421.37546 -27919799.38343  24019849.4144                   24019851.6414
  -4065914.58247  -3126265.88745  22131466.2894                   22131465.1414
 -38739576.46148 -30139465.04346  20649970.6414                   20649966.4454
 11  7 29  1 51  0.0000000  0  9G09G17G25G10G04G12G27G05G02
 -21073265.77047 -16162116.76244  23806709.1254                   23806709.0784
 -79447364.97347 -61857293.15644  23264290.5554   23264288.6524   17536482.28546
  13703724.60543                  24145272.8364                   24145274.2074
 -27843920.08248 -21653149.40646  20930764.1804                   20930762.4574
 -54658723.53148 -42540468.18745  21701257.1804                   21701255.8204
 -15072842.80948 -11702405.00446  21424907.2274                   21424905.2074
 -36592915.74246 -27945898.97343  24013476.5234                   24013477.7814
  -4255085.18447  -3273671.48046  22095468.8594                   22095466.6604
 -38838271.09848 -30216369.93746  20631189.6564                   20631185.7504
 11  7 29  1 51 30.0000000  0  9G09G17G25G10G04G12G27G05G02
 -21090611.98847 -16175633.32844  23803407.7814                   23803408.4384
 -79489915.26247 -61890449.22344  23256193.7734   23256192.0784   17339585.55547
  13550298.59043                  24107804.7274                   24107806.4534
 -27945471.77048 -21732280.58646  20911439.5704                   20911438.0474
 -54680350.53148 -42557320.40245  21697141.3984                   21697140.6994
 -15227714.64148 -11823084.35546  21395435.9534                   21395434.2424
 -36626312.34046 -27971922.36343  24007120.8054                   24007122.7074
  -4443923.28547  -3420818.00845  22059533.8754                   22059532.3284
 -38936634.42248 -30293016.68046  20612471.5314                   20612467.5354
 11  7 29  1 52  0.0000000  0  9G09G17G25G10G04G12G27G05G02
 -21107773.43047 -16189005.96144  23800142.1564                   23800142.0124
 -79532276.34847 -61923457.86744  23248132.3284   23248130.8754   17142903.60247
  13397039.96943                  24070377.8134                   24070378.0904
 -28046360.01648 -21810894.78946  20892241.4614                   20892239.4774
 -54701797.70748 -42574032.49645  21693060.5004                   21693058.7974
 -15382111.19148 -11943393.34046  21366055.3834                   21366053.2154
 -36659617.73046 -27997874.70343  24000783.4774                   24000785.0474
  -4632429.94147  -3567706.24246  22023662.3444                   22023660.8364
 -39034671.27048 -30369409.01646  20593816.2194                   20593811.8674
 11  7 29  1 52 30.0000000  0  9G09G17G25G10G04G12G27G05G02
 -21124749.96147 -16202234.50444  23796911.7734                   23796912.0904
 -79574443.81647 -61956315.66044  23240108.6644   23240106.5164   16946442.94147
  13243953.71543                  24032992.7194                   24032992.8014
 -28146580.71948 -21888988.84446  20873169.5234                   20873167.9494
 -54723063.19148 -42590603.00845  21689013.7034                   21689012.8284
 -15536026.27048 -12063327.16046  21336766.2584                   21336763.9264
 -36692830.90246 -28023755.19943  23994463.4774                   23994464.0514
  -4820598.35247  -3714330.92646  21987854.7194                   21987853.5594
 -39132379.01648 -30445544.90647  20575222.9304                   20575218.9264
 11  7 29  1 53  0.0000000  0  9G09G17G25G10G04G12G27G05G02
 -21141549.05147 -16215324.74244  23793714.7424                   23793715.4804
 -79616420.89147 -61989025.09444  23232120.9534   23232119.1414   16750202.37147
  13091038.99643                  23995649.1804                   23995649.8914
 -28246137.30948 -21966565.39846  20854224.7974                   20854223.0634
 -54744152.67648 -42607036.38745  21684999.9924                   21684999.5664
 -15689461.88348 -12182887.35946  21307568.5554                   21307566.2774
 -36725958.62546 -28049569.07443  23988158.5704                   23988160.7734
  -5008429.73047  -3860692.98446  21952111.5634                   21952110.6054
 -39229762.34848 -30521428.01246  20556691.1884                   20556687.0594
 11  7 29  1 53 30.0000000  0  9G09G17G25G10G04G12G27G05G02
 -21158169.78147 -16228276.03543  23790551.5474                   23790553.4844
 -79658203.05947 -62021582.61744  23224169.4144   23224168.0514   16554188.73847
  12938301.13744                  23958348.7734                   23958349.6914
 -28345025.54748 -22043621.16046  20835406.7194                   20835405.2194
 -54765064.12948 -42623331.04745  21681020.9614                   21681020.1024
 -15842411.35548 -12302068.74246  21278462.7734                   21278460.6914
 -36758999.26646 -28075315.09043  23981871.7504                   23981873.1684
  -5195916.52047  -4006786.53146  21916434.3914                   21916433.4104
 -39326818.36748 -30597056.07847  20538222.4534                   20538218.0864
 11  7 29  1 54  0.0000000  0  9G09G17G25G10G04G12G27G05G02
 -21174616.97347 -16241092.09444  23787422.3364                   23787423.7034
 -79699791.64847 -62053989.31244  23216255.4924   23216254.0124   16358402.97747
  12785740.87944                  23921092.1024                   23921092.7034
 -28443246.62948 -22120157.05946  20816716.2894                   20816714.4144
 -54785801.19548 -42639489.82045  21677075.3444                   21677074.1454
 -15994873.87148 -12420870.69546  21249450.1254                   21249448.0164
 -36791957.18446 -28100996.68743  23975599.8594                   23975600.7114
  -5383058.03547  -4152611.03946  21880821.7814                   21880820.8444
 -39423549.85548 -30672431.25046  20519814.8984                   20519810.7154
 11  7 29  1 54 30.0000000  0  9G09G17G25G10G04G12G27G05G02
 -21190895.12547 -16253776.46143  23784324.0164                   23784326.1134
 -79741187.19947 -62086245.59444  23208378.7274   23208377.3364   16162846.53547
  12633359.28544                  23883878.8204                   23883879.7194
 -28540801.21948 -22196173.60946  20798151.9534                   20798150.4024
 -54806366.78548 -42655514.96945  21673162.1334                   21673160.9414
 -16146848.83648 -12539292.72346  21220530.3364                   21220528.3594
 -36824836.17246 -28126616.77743  23969343.7424                   23969344.2774
  -5569852.09447  -4298164.80146  21845276.2734                   21845275.1334
 -39519958.83648 -30747555.12946  20501468.7114                   20501464.4414
 11  7 29  1 55  0.0000000  0  9G09G17G25G10G04G12G27G05G02
 -21207007.54347 -16266331.65244  23781258.6724                   23781259.9774
 -79782388.86747 -62118350.81244  23200538.1024   23200536.3754   15967522.27747
  12481158.58644                  23846710.1094                   23846710.8014
 -28637689.13748 -22271670.68446  20779714.9224                   20779713.0394
 -54826762.70348 -42671407.89145  21669280.5084                   21669279.3364
 -16298333.78548 -12657332.92646  21191703.6724                   21191701.8524
 -36857638.85546 -28152177.41843  23963101.2584                   23963102.3874
  -5756295.93047  -4443445.67246  21809797.5394                   21809796.2114
 -39616046.41448 -30822428.56246  20483183.8444                   20483179.8794
 11  7 29  1 55 30.0000000  0  9G09G17G25G10G04G12G27G05G02
 -21222957.78546 -16278760.51644  23778223.4144                   23778225.7774
 -79823396.39147 -62150304.75844  23192734.7424   23192732.8874   15772432.67647
  12329140.77344                  23809585.1174                   23809586.5594
 -28733910.38348 -22346648.26646  20761404.5784                   20761402.8324
 -54846990.98848 -42687170.20345  21665431.0634                   21665429.7664
 -16449326.29748 -12774989.40246  21162970.8984                   21162969.1724
 -36890368.22346 -28177680.90243  23956873.2894                   23956874.4734
  -5942386.85247  -4588451.52746  21774385.3444                   21774383.9844
 -39711813.80148 -30897052.50046  20464959.9844                   20464955.8014
 11  7 29  1 56  0.0000000  0  9G09G17G25G10G04G12G27G05G02
 -21238752.21147 -16291067.93744  23775218.6174                   23775219.1914
 -79864212.86347 -62182109.81244  23184967.6884   23184965.7424   15577577.23047
  12177305.42644                  23772504.5864                   23772506.1724
 -28829467.98848 -22421108.73846  20743220.8444                   20743218.5434
 -54867056.94148 -42702806.02045  21661612.3134                   21661611.4064
 -16599827.78547 -12892263.25846  21134331.2274                   21134329.2034
 -36923030.12546 -28203131.82443  23950659.1254                   23950659.6644
  -6128125.04347  -4733182.51646  21739040.7274                   21739039.5084
 -39807265.03948 -30971430.09047  20446796.4224                   20446792.1454
 11  7 29  1 56 30.0000000  0  9G09G17G25G10G04G12G27G05G02
 -21254390.33247 -16303253.55144  23772242.6724                   23772243.3204
 -79904833.64847 -62213762.38344  23177237.2344   23177236.0664   15382962.39147
  12025657.56644                  23735471.7974                   23735473.1334
 -28924357.94948 -22495048.94546  20725163.7584                   20725161.6564
 -54886958.63348 -42718313.84045  21657825.7344                   21657824.2544
 -16749832.26248 -13009149.84046  21105786.6564                   21105784.3634
 -36955623.35246 -28228529.20743  23944455.3834                   23944456.9924
  -6313504.25447  -4877633.81646  21703763.9774                   21703762.4924
 -39902397.59048 -31045559.34446  20428693.3054                   20428689.2154
 11  7 29  1 57  0.0000000  0  9G09G17G25G10G04G12G27G05G02
 -19694457.74246 -15087721.75844  24069087.4534                   24069088.3404
 -78369839.53547 -61017663.10244  23469336.9384   23469335.4414   16764014.77347
  13101802.31644                  23998278.1804                   23998278.4144
 -27443159.40248 -21340868.25446  21007026.4774                   21007024.5004
 -53331279.66448 -41506096.48045  21953861.3594                   21953860.3754
 -15323914.66848 -11898045.19546  21377129.2894                   21377127.7424
 -35412732.32846 -27026276.57843  24238058.8594                   24238059.6374
  -4923097.68747  -3794200.07846  21968349.2664                   21968348.2704
 -38421791.98448 -29891840.68746  20710443.1564                   20710438.9384
 11  7 29  1 57 30.0000000  0  9G09G17G25G10G04G12G27G05G02
 -19709798.47347 -15099675.67244  24066168.3134                   24066169.2974
 -78410072.56647 -61049013.52344  23461680.8284   23461679.0634   16569884.46147
  12950531.93844                  23961335.3524                   23961336.0084
 -27536718.42648 -21413771.37546  20989222.4774                   20989220.7234
 -53350863.09848 -41521356.32045  21950134.7504                   21950133.3954
 -15472922.87948 -12014155.46946  21348774.0784                   21348771.9264
 -35445201.43046 -27051577.24643  24231879.7114                   24231881.2814
  -5107754.57447  -3938088.51246  21933210.6254                   21933208.8404
 -38516295.32848 -29965479.66446  20692459.6644                   20692455.7304
 11  7 29  1 58  0.0000000  0  9G09G17G25G10G04G12G27G05G02
 -19724996.74647 -15111518.50844  24063276.7974                   24063276.9064
 -78450112.13347 -61080213.21544  23454062.2664   23454060.5164   16375999.05147
  12799452.46944                  23924440.1724                   23924441.2704
 -27629613.40248 -21486157.07046  20971545.3984                   20971543.3834
 -53370291.37948 -41536495.23845  21946437.7424                   21946436.3554
 -15621431.70348 -12129876.60946  21320513.8204                   21320511.8444
 -35477613.57046 -27076833.53543  24225711.9454                   24225713.6174
  -5292047.33247  -4081693.20346  21898140.7664                   21898139.4144
 -38610486.79348 -30038875.59446  20674535.7974                   20674531.7194
 11  7 29  1 58 30.0000000  0  9G09G17G25G10G04G12G27G05G02
 -19740055.72747 -15123252.87143  24060411.5474                   24060411.8054
 -78489957.83647 -61111261.84844  23446479.7114   23446477.7664   16182361.36347
  12648565.99644                  23887592.0164                   23887593.2034
 -27721844.18048 -21558025.19946  20953994.2664                   20953992.7034
 -53389566.57848 -41551514.88745  21942769.9454                   21942768.5824
 -15769438.43448 -12245206.50046  21292349.1564                   21292346.8324
 -35509971.60546 -27102047.69143  24219554.5004                   24219555.4964
  -5475973.00447  -4225011.87546  21863140.8984                   21863139.5434
 -38704367.78948 -30112029.61346  20656670.6024                   20656666.5204
 11  7 29  1 59  0.0000000  0  9G09G17G25G10G04G12G27G05G02
 -19754978.73446 -15134881.29343  24057571.0554                   24057571.7814
 -78529609.38347 -61142159.15244  23438933.4844   23438932.2504   15988974.31647
  12497874.80544                  23850791.4384                   23850792.9614
 -27813410.63347 -21629375.68446  20936569.6484                   20936567.8054
 -53408690.02748 -41566416.27745  21939130.6174                   21939129.3404
 -15916940.65248 -12360143.28146  21264280.1254                   21264277.8284
 -35542277.84446 -27127221.45343  24213406.8984                   24213408.2274
  -5659528.61347  -4368042.16846  21828211.0394                   21828209.3204
 -38797939.05548 -30184942.28946  20638864.4384                   20638860.5594
 11  7 29  1 59 30.0000000  0  9G09G17G25G10G04G12G27G05G02
 -19769769.38746 -15146406.55543  24054756.8524                   24054757.4414
 -78569066.21147 -61172904.75444  23431425.0704   23431424.3324   15795840.09447
  12347380.61344                  23814039.2504                   23814040.7664
 -27904313.20748 -21700208.84446  20919271.8914                   20919269.6024
 -53427664.21148 -41581201.38345  21935519.8524                   21935518.6524
 -16063937.01248 -12474685.88746  21236308.1484                   21236305.5164
 -35574535.54346 -27152357.39843  24207268.4064                   24207269.9804
  -5842711.85247  -4510782.29746  21793352.4534                   21793351.5164
 -38891201.98048 -30257614.69946  20621117.1334                   20621113.1684
 11  7 29  2  0  0.0000000  0  9G09G17G25G10G04G12G27G05G02
 -19784434.23047 -15157833.75844  24051966.4454                   24051967.3204
 -78608330.78546 -61203500.54744  23423954.1804   23423952.4964   15602958.40247
  12197083.15644                  23777335.1724                   23777337.5554
 -27994554.94548 -21770527.07446  20902099.2584                   20902097.4304
 -53446493.97348 -41595873.94145  21931936.6884                   21931935.6724
 -16210427.64848 -12588834.41446  21208431.7894                   21208429.3364
 -35606750.45746 -27177460.01243  24201137.7344                   24201139.6684
  -6025522.95747  -4653232.46146  21758564.3594                   21758563.2074
 -38984160.82048 -30330050.15646  20603427.8444                   20603423.8244
 11  7 29  2  0 30.0000000  0  9G09G17G25G10G04G12G27G05G02
 -19798973.59847 -15169163.24644  24049199.8444                   24049200.6024
 -78647400.23047 -61233944.31244  23416519.7894   23416517.4884   15410334.68047
  12046986.69944                  23740680.5864                   23740681.8554
 -28084132.92248 -21840328.08646  20885053.2814                   20885051.2894
 -53465178.39148 -41610433.22745  21928381.6564                   21928380.4654
 -16356408.48048 -12702585.69946  21180652.3754                   21180649.8204
 -35638922.37546 -27202529.06643  24195016.0084                   24195017.0824
  -6207956.33648  -4795388.28946  21723849.0164                   21723847.4654
 -39076813.89148 -30402247.35546  20585796.3914                   20585792.2704
 11  7 29  2  1  0.0000000  0  9G09G17G25G10G04G12G27G05G02
 -19813393.57847 -15180399.68743  24046455.7734                   24046456.1914
 -78686276.83647 -61264237.80144  23409121.0394   23409120.0234   15217968.76647
  11897091.19543                  23704074.1024                   23704076.0164
 -28173050.14148 -21909614.22346  20868132.1804                   20868130.7114
 -53483722.05148 -41624882.84045  21924853.1334                   21924851.3914
 -16501880.26248 -12815940.32046  21152970.2734                   21152967.4064
 -35671056.91846 -27227569.06643  24188901.5004                   24188902.2424
  -6390012.06648  -4937249.85546  21689204.7894                   21689203.5634
 -39169165.26648 -30474209.46946  20568222.2034                   20568218.5314
 11  7 29  2  1 30.0000000  0  9G09G17G25G10G04G12G27G05G02
 -19827698.14547 -15191546.16043  24043733.0554                   24043733.7974
 -78724960.55547 -61294380.96144  23401759.9454   23401758.7504   15025863.11347
  11747398.46543                  23667517.2194                   23667518.1134
 -28261307.32448 -21978386.03946  20851337.9384                   20851336.2304
 -53502126.93448 -41639224.29745  21921350.1254                   21921348.7464
 -16646841.16448 -12928896.85246  21125385.1414                   21125382.3284
 -35703157.13746 -27252582.32043  24182792.3594                   24182794.4454
  -6571687.78948  -5078815.30946  21654633.0084                   21654630.9844
 -39261216.04748 -30545937.34846  20550705.6724                   20550701.3364
 11  7 29  2  2  0.0000000  0  9G09G17G25G10G04G12G27G05G02
 -19841890.32447 -15202605.03544  24041033.1174                   24041033.5394
 -78763450.85247 -61324373.41044  23394435.4224   23394434.4774   14834020.35947
  11597910.55943                  23631010.5004                   23631010.4924
 -28348904.46948 -22046643.55146  20834668.7974                   20834667.1094
 -53520395.09848 -41653459.25045  21917873.8834                   21917872.4184
 -16791289.29748 -13041453.83246  21097897.5164                   21097895.3874
 -35735225.49246 -27277570.69942  24176689.6564                   24176692.5274
  -6752980.46948  -5220082.28146  21620134.1954                   21620132.7854
 -39352967.43448 -30617431.92246  20533246.2424                   20533242.2234
 11  7 29  2  2 30.0000000  0  9G09G17G25G10G04G12G27G05G02
 -19855972.90247 -15213578.53943  24038352.8134                   24038354.2194
 -78801747.25847 -61354214.78944  23387148.0634   23387146.8754   14642443.54746
  11448629.97743                  23594554.6724                   23594555.3244
 -28435841.77047 -22114386.89146  20818124.8134                   20818123.4384
 -53538527.96148 -41667588.75445  21914423.4694                   21914422.1844
 -16935222.24648 -13153609.37946  21070507.8364                   21070505.4064
 -35767264.34046 -27302536.15242  24170594.3444                   24170595.2974
  -6933887.29348  -5361048.58646  21585708.5004                   21585707.2704
 -39444420.58648 -30688694.12146  20515843.4534                   20515839.4734
 11  7 29  2  3  0.0000000  0  9G09G17G25G10G04G12G27G05G02
 -19869949.70347 -15224469.61744  24035693.7504                   24035694.8954
 -78839849.25447 -61383904.66844  23379897.4064   23379895.9344   14451135.09847
  11299558.47744                  23558150.0864                   23558150.9224
 -28522119.59848 -22181616.36346  20801707.0164                   20801705.3754
 -53556527.34048 -41681614.23045  21910998.1334                   21910997.3714
 -17078637.96548 -13265361.87546  21043216.5314                   21043214.3594
 -35799276.75446 -27327480.96542  24164502.1564                   24164504.5864
  -7114405.83248  -5501712.33646  21551357.1884                   21551355.9924
 -39535576.98048 -30759725.07446  20498496.8524                   20498492.7664
 11  7 29  2  3 30.0000000  0  9G09G17G25G10G04G12G27G05G02
 -19883821.99646 -15235279.25044  24033053.1724                   24033055.3014
 -78877754.58247 -61413441.32044  23372684.3444   23372682.8364   14260099.67247
  11150699.75044                  23521796.8204                   23521798.5004
 -28607736.18448 -22248330.59046  20785414.5474                   20785412.7584
 -53574393.31648 -41695535.77045  21907598.8834                   21907597.2854
 -17221532.63748 -13376708.37546  21016025.0864                   21016022.2424
 -35831263.36346 -27352405.66442  24158415.2734                   24158417.9264
  -7294531.05548  -5642069.60246  21517080.1954                   21517078.8674
 -39626435.41448 -30830523.84046  20481206.9384                   20481202.4924
 11  7 29  2  4  0.0000000  0  9G09G17G25G10G04G12G27G05G02
 -19897596.58646 -15246012.77043  24030431.4534                   24030433.6994
 -78915466.30947 -61442827.08244  23365508.2274   23365506.5204   14069336.46947
  11002053.14544                  23485497.0474                   23485498.5474
 -28692695.50448 -22314532.64146  20769247.3524                   20769245.6254
 -53592131.09848 -41709357.41445  21904223.1884                   21904222.1334
 -17363908.20748 -13487650.37146  20988931.8984                   20988929.5234
 -35863230.27346 -27377315.11342  24152332.4774                   24152334.4144
  -7474263.96148  -5782121.16446  21482878.2504                   21482876.6484
 -39717000.19548 -30901093.78946  20463973.1484                   20463969.2704
 11  7 29  2  4 30.0000000  0  9G09G17G25G10G04G12G27G05G02
 -19911273.75446 -15256670.36343  24027830.1954                   24027831.0004
 -78952981.33647 -61472059.56244  23358369.3914   23358367.6484   13878851.05947
  10853623.00444                  23449248.1884                   23449250.5634
 -28776994.75448 -22380220.35946  20753206.0314                   20753204.1334
 -53609739.41048 -41723078.18045  21900872.5314                   21900871.1724
 -17505759.49248 -13598183.84046  20961938.2344                   20961935.8134
 -35895177.25046 -27402208.91043  24146253.5474                   24146255.3054
  -7653598.91048  -5921862.63346  21448752.0164                   21448750.3794
 -39807269.94148 -30971433.83646  20446795.5474                   20446790.9574
 11  7 29  2  5  0.0000000  0  9G09G17G25G10G04G12G27G05G02
 -18349436.52347 -14039654.39544  24325037.9924                   24325039.0314
 -77414878.50447 -60273537.89544  23651060.3754   23651058.6524   15264072.10547
  11933016.09445                  23712847.3134                   23712849.3484
 -27285211.86748 -21217792.10946  21037082.6174                   21037080.9414
 -52051800.00048 -40509099.41045  22197338.7894                   22197337.5084
 -16071660.55148 -12480704.13346  21234838.0864                   21234835.7704
 -34351686.36346 -26199488.81242  24439969.4144                   24439971.2894
  -6257107.60248  -4833687.54346  21714495.6334                   21714493.9884
 -38321822.80548 -29813942.55546  20729466.3984                   20729462.4694
 11  7 29  2  5 30.0000000  0  9G09G17G25G10G04G12G27G05G02
 -18362933.87947 -14050171.85543  24322468.3674                   24322470.4694
 -77452004.16447 -60302466.97744  23643995.3674   23643994.4884   15074144.99247
  11785021.00444                  23676705.4144                   23676707.4804
 -27368197.75848 -21282456.42646  21021291.1334                   21021289.5004
 -52069160.16447 -40522626.81245  22194035.0394                   22194033.9964
 -16212463.15248 -12590420.44946  21208044.3204                   21208042.6804
 -34383606.96946 -26224362.10943  24433894.7974                   24433897.3914
  -6435643.98048  -4972806.75446  21680521.0864                   21680519.4064
 -38411511.28548 -29883829.68746  20712399.5164                   20712395.4384
 11  7 29  2  6  0.0000000  0  9G09G17G25G10G04G12G27G05G02
 -18376348.12546 -14060624.58243  24319916.6564                   24319917.9654
 -77488936.12947 -60331245.16044  23636967.7504   23636966.2974   14884499.33647
  11637245.23044                  23640616.3674                   23640618.0904
 -27450529.32848 -21346610.87546  21005623.7034                   21005621.8244
 -52086400.70747 -40536060.99245  22190754.0164                   22190753.0124
 -16352740.32448 -12699727.32846  21181350.2814                   21181348.6844
 -34415520.04746 -26249229.50843  24427822.5634                   24427824.9454
  -6613778.81648  -5111613.07446  21646622.9614                   21646621.2664
 -38500912.56248 -29953493.00447  20695386.6254                   20695382.6684
 11  7 29  2  6 30.0000000  0  9G09G17G25G10G04G12G27G05G02
 -18389677.59846 -14071011.21143  24317379.9144                   24317381.6564
 -77525669.12547 -60359868.28944  23629978.0704   23629976.0234   14695142.73447
  11489694.68044                  23604583.5634                   23604584.6294
 -27532202.06248 -21410251.95746  20990082.0004                   20990080.3284
 -52103518.27747 -40549399.35945  22187496.7114                   22187495.8914
 -16492485.01648 -12808619.27746  21154758.0784                   21154755.6564
 -34447423.39146 -26274089.34443  24421751.6254                   24421754.0594
  -6791504.46148  -5250100.54346  21612803.2424                   21612801.4184
 -38590022.73048 -30022929.48846  20678429.6094                   20678425.2704
 11  7 29  2  7  0.0000000  0  9G09G17G25G10G04G12G27G05G02
 -18402930.37146 -14081338.06243  24314857.8284                   24314859.3094
 -77562207.94147 -60388340.08644  23623024.6564   23623022.9454   14506073.04347
  11342367.71544                  23568604.3054                   23568606.3794
 -27613221.36348 -21473383.86346  20974664.7584                   20974662.9884
 -52120519.53947 -40562647.06645  22184261.7194                   22184260.2234
 -16631700.64848 -12917098.97746  21128266.2344                   21128263.8954
 -34479324.47746 -26298947.48442  24415681.4924                   24415683.1484
  -6968823.05148  -5388270.83246  21579060.5314                   21579058.5004
 -38678848.12948 -30092144.06246  20661526.8834                   20661522.3554
 11  7 29  2  7 30.0000000  0  9G09G17G25G10G04G12G27G05G02
 -18416108.00846 -14091606.43043  24312350.6254                   24312351.6844
 -77598550.22747 -60416658.77044  23616108.4384   23616107.1954   14317294.53947
  11195267.65244                  23532681.1414                   23532683.0004
 -27693586.20748 -21536005.80946  20959371.4614                   20959369.9454
 -52137404.40247 -40575804.07445  22181048.5864                   22181047.1604
 -16770383.59048 -13025163.60246  21101875.4614                   21101873.7464
 -34511224.36746 -26323804.61742  24409610.2664                   24409612.9694
  -7145730.55948  -5526120.79746  21545395.8984                   21545394.2814
 -38767387.90248 -30161136.07046  20644678.3204                   20644674.1414
 11  7 29  2  8  0.0000000  0  9G09G17G25G10G04G12G27G05G02
 -18429214.37546 -14101819.23443  24309856.2504                   24309857.0704
 -77634696.37147 -60444824.60544  23609230.2274   23609229.0984   14128809.16847
  11048395.99244                  23496813.8674                   23496814.9924
 -27773297.67247 -21598118.61746  20944202.8914                   20944201.2304
 -52154175.38747 -40588872.36345  22177856.9144                   22177855.5784
 -16908532.60948 -13132812.17246  21075586.9224                   21075584.2854
 -34543126.24245 -26348663.35242  24403539.8204                   24403542.0234
  -7322225.08648  -5663648.95746  21511810.3204                   21511808.2504
 -38855644.03548 -30229907.07446  20627883.5314                   20627879.7034
 11  7 29  2  8 30.0000000  0  9G09G17G25G10G04G12G27G05G02
 -18442254.55947 -14111980.45743  24307375.0394                   24307375.6564
 -77670647.79347 -60472838.70344  23602389.0944   23602387.6414   13940618.12147
  10901753.69544                  23461002.1094                   23461002.8204
 -27852357.82447 -21659723.92246  20929158.2584                   20929156.8164
 -52170835.83647 -40601854.50845  22174686.3204                   22174685.0354
 -17046147.54748 -13240044.58246  21049399.6414                   21049397.0394
 -34575034.17245 -26373526.69142  24397468.5314                   24397470.6414
  -7498305.30148  -5800854.28146  21478303.2274                   21478301.5904
 -38943619.42648 -30298459.30946  20611142.6804                   20611138.4144
 11  7 29  2  9  0.0000000  0  9G09G17G25G10G04G12G27G05G02
 -18455226.37946 -14122088.37143  24304907.1024                   24304908.0044
 -77706398.62947 -60500696.49244  23595586.6334   23595584.9804   13752729.61747
  10755347.12144                  23425248.2194                   23425249.0514
 -27930762.02048 -21720818.08646  20914238.5704                   20914236.3134
 -52187381.89147 -40614747.52045  22171538.0314                   22171536.9184
 -17183221.02748 -13346855.07846  21023315.4534                   21023312.8324
 -34606945.52345 -26398392.80542  24391396.4534                   24391398.7544
  -7673962.98448  -5937730.35546  21444876.4454                   21444874.5824
 -39031309.37148 -30366789.10946  20594455.3914                   20594451.4774
 11  7 29  2  9 30.0000000  0  9G09G17G25G10G04G12G27G05G02
 -18468136.27346 -14132148.09443  24302450.4924                   24302451.6174
 -77741951.73047 -60528400.23844  23588820.5704   23588819.0784   13565142.87547
  10609175.69944                  23389552.0944                   23389553.0084
 -28008514.25048 -21781404.22346  20899442.8594                   20899441.1684
 -52203818.62547 -40627555.33645  22168409.8914                   22168409.3874
 -17319754.50848 -13453244.80546  20997333.7504                   20997331.2584
 -34638866.22345 -26423266.25442  24385322.0314                   24385325.2464
  -7849199.22348  -6074278.03946  21411529.9614                   21411528.4304
 -39118718.66448 -30434900.25046  20577822.1414                   20577818.1954
 11  7 29  2 10  0.0000000  0  9G09G17G25G10G04G12G27G05G02
 -18480989.28546 -14142163.45743  24300003.7114                   24300005.5274
 -77777308.55546 -60555951.05544  23582092.3674   23582091.2154   13377858.64547
  10463239.99644                  23353912.9064                   23353913.5434
 -28085617.15248 -21841484.40246  20884770.9064                   20884769.0434
 -52220149.62547 -40640280.77045  22165302.6724                   22165301.0204
 -17455748.75448 -13559214.32846  20971454.8204                   20971452.3754
 -34670800.83645 -26448150.46942  24379244.6174                   24379248.8984
  -8024013.30948  -6210496.76246  21378263.8364                   21378262.7194
 -39205850.53948 -30502795.21146  20561241.7734                   20561237.5554
 11  7 29  2 10 30.0000000  0  9G09G17G25G10G04G12G27G05G02
 -18493789.25846 -14152137.52743  24297569.3204                   24297569.5634
 -77812469.67647 -60583349.34044  23575401.8284   23575400.2664   13190878.95347
  10317541.59844                  23318331.0554                   23318332.1724
 -28162072.16448 -21901059.74246  20870221.3594                   20870219.7304
 -52236376.96547 -40652925.41045  22162214.6804                   22162213.0474
 -17591202.43048 -13664762.62546  20945678.7114                   20945676.6804
 -34702752.74245 -26473048.17642  24373165.3834                   24373168.2974
  -8198403.39148  -6346385.09446  21345078.4694                   21345077.1174
 -39292706.77048 -30570475.37546  20544713.1094                   20544709.1604
 11  7 29  2 11  0.0000000  0  9G09G17G25G10G04G12G27G05G02
 -18506538.08246 -14162071.74243  24295142.0704                   24295144.1454
 -77847433.26646 -60610593.74644  23568748.1254   23568747.0474   13004207.96147
  10172083.75444                  23282808.4844                   23282809.7464
 -28237878.34048 -21960129.48846  20855796.0084                   20855794.2734
 -52252501.00847 -40665489.57445  22159146.1644                   22159145.2234
 -17726112.23048 -13769887.13346  20920005.9844                   20920004.3794
 -34734723.07045 -26497960.26242  24367080.6644                   24367083.8984
  -8372365.27748  -6481939.77346  21311974.8594                   21311973.2584
 -39379286.91848 -30637940.41446  20528237.7274                   20528233.7274
 11  7 29  2 11 30.0000000  0  9G09G17G25G10G04G12G27G05G02
 -18519241.01646 -14171970.19143  24292724.9614                   24292727.2734
 -77882201.31646 -60637685.75444  23562131.7814   23562130.6174   12817846.23047
  10026866.89544                  23247344.5944                   23247346.3404
 -28313038.55148 -22018695.86746  20841493.6094                   20841491.8754
 -52268525.49647 -40677976.16445  22156096.5554                   22156095.7854
 -17860478.55948 -13874588.14846  20894437.3674                   20894435.2934
 -34766716.46545 -26522890.28942  24360992.5004                   24360996.2854
  -8545898.77048  -6617160.62946  21278952.2584                   21278950.6844
 -39465594.14148 -30705192.77346  20511814.0004                   20511809.7154
 11  7 29  2 12  0.0000000  0  9G09G17G25G10G04G12G27G05G02
 -18531898.99646 -14181833.58243  24290316.5784                   24290318.2074
 -77916771.43046 -60664623.53544  23555553.5234   23555552.8284   12631798.43447
   9881894.64144                  23211941.4224                   23211942.5354
 -28387551.68748 -22076758.04346  20827314.0474                   20827312.2814
 -52284450.19947 -40690384.99645  22153066.5394                   22153065.2854
 -17994297.90648 -13978862.96146  20868972.4844                   20868970.1604
 -34798733.48445 -26547838.64142  24354899.7894                   24354903.7774
  -8718999.15248  -6752044.01246  21246012.2894                   21246011.1524
 -39551627.68748 -30772231.88746  20495442.3754                   20495438.3874
 11  7 29  2 12 30.0000000  0  9G09G17G25G10G04G12G27G05G02
 -18544516.15246 -14191665.18743  24287915.3134                   24287917.7934
 -77951143.95346 -60691407.39544  23549012.9924   23549011.5984   12446066.39147
   9737168.42644                  23176597.8914                   23176598.8874
 -28461419.39848 -22134317.29346  20813257.5394                   20813256.1054
 -52300277.43447 -40702717.89845  22150054.6884                   22150053.2544
 -18127569.35948 -14082710.82846  20843611.5234                   20843609.3984
 -34830777.56246 -26572808.21542  24348802.7734                   24348805.7664
  -8891664.66448  -6886588.52346  21213155.3594                   21213153.5004
 -39637389.53948 -30839059.28146  20479122.3984                   20479118.3634
 11  7 29  2 13  0.0000000  0  8G09G17G25G10G04G12G05G02
 -16981675.84446 -12973867.58243  24585314.3284                   24585316.4104
 -76409898.11746 -59490436.62944  23842301.6414   23842300.4844   13836078.35547
  10820294.69144                  23441108.3364                   23441109.5274
 -26959220.81648 -20963772.94946  21099116.5394                   21099114.7934
 -50740589.03147 -39487376.26645  22446854.0864                   22446851.6214
 -16684867.50448 -12958527.55946  21118148.3364                   21118146.1484
  -7488467.79348  -5793188.32046  21480174.5554                   21480173.4144
 -38147458.79348 -29678074.27346  20762647.0164                   20762642.9884
 11  7 29  2 13 30.0000000  0  8G09G17G25G10G04G12G05G02
 -16994221.12146 -12983643.16843  24582927.7344                   24582929.0634
 -76443874.84047 -59516912.06644  23835836.8444   23835835.6844   13650985.95347
  10676066.87544                  23405886.2974                   23405888.0864
 -27031800.18448 -21020328.29746  21085305.1884                   21085303.3524
 -50756226.30147 -39499561.12945  22443878.1484                   22443876.7894
 -16817038.39548 -13061517.86346  21092996.9614                   21092994.7704
  -7660256.43048  -5927049.56246  21447484.4774                   21447482.4694
 -38232680.84448 -29744481.07046  20746429.6094                   20746425.3954
 11  7 29  2 14  0.0000000  0  8G09G17G25G10G04G12G05G02
 -17006730.09846 -12993390.43742  24580546.8914                   24580548.6254
 -76477648.03547 -59543228.85944  23829410.1724   23829408.5124   13466222.38747
  10532095.28544                  23370727.4844                   23370728.2734
 -27103731.77048 -21076378.87146  21071616.8364                   21071615.6294
 -50771765.78547 -39511669.81245  22440920.8674                   22440919.2274
 -16948651.57048 -13164073.57046  21067952.2734                   21067949.7464
  -7831597.75848  -6060562.24646  21414879.0394                   21414877.3914
 -38317629.78148 -29810675.05946  20730264.1804                   20730260.2194
 11  7 29  2 14 30.0000000  0  8G09G17G25G10G04G12G05G02
 -17019206.59446 -13003112.44942  24578172.1254                   24578174.5234
 -76511217.91447 -59569387.21144  23823021.5944   23823020.5234   13281789.97347
  10388381.75445                  23335630.7734                   23335632.7584
 -27175016.79348 -21131925.63346  21058051.8204                   21058050.3984
 -50787209.51647 -39523703.91445  22437981.3524                   22437980.4964
 -17079705.66048 -13266193.64846  21043012.8754                   21043010.7304
  -8002489.69948  -6193724.75846  21382359.5474                   21382357.8634
 -38402307.23448 -29876657.48447  20714150.8054                   20714146.7544
 11  7 29  2 15  0.0000000  0  8G09G17G25G10G04G12G05G02
 -17031650.50845 -13012809.06642  24575804.9304                   24575807.0514
 -76544580.90647 -59595384.37944  23816672.4064   23816671.4694   13097694.42647
  10244930.68845                  23300598.3834                   23300600.2624
 -27245652.98848 -21186966.82446  21044610.4924                   21044608.5314
 -50802555.92647 -39535662.18445  22435060.9224                   22435060.1564
 -17210195.82848 -13367874.30146  21018182.0004                   21018179.8324
  -8172926.64848  -6326532.73446  21349926.6174                   21349924.6604
 -38486710.98448 -29942426.62946  20698088.8204                   20698085.0664
 11  7 29  2 15 30.0000000  0  8G09G17G25G10G04G12G05G02
 -17044071.45345 -13022487.75842  24573441.0554                   24573444.0744
 -76577743.62947 -59621225.51244  23810362.5554   23810361.1804   12913931.89147
  10101739.12944                  23265629.6094                   23265631.2304
 -27315647.55548 -21241508.03546  21031290.8134                   21031289.0864
 -50817813.15247 -39547550.96545  22432157.9224                   22432156.7424
 -17340127.67248 -13469119.89146  20993456.8134                   20993454.6844
  -8342912.70748  -6458989.36746  21317579.3444                   21317577.5274
 -38570848.76248 -30007988.51246  20682078.3524                   20682074.3014
 11  7 29  2 16  0.0000000  0  8G09G17G25G10G04G12G05G02
 -17056472.49245 -13032150.99242  24571080.4384                   24571083.5274
 -76610705.59447 -59646910.19544  23804090.1094   23804088.9734   12730505.04347
   9958809.12944                  23230724.4224                   23230725.6214
 -27385001.90648 -21295550.39546  21018093.3204                   21018091.5824
 -50832982.70347 -39559371.42245  22429271.0784                   22429270.1454
 -17469499.50848 -13569929.10546  20968837.7034                   20968835.7624
  -8512445.61748  -6591092.88746  21285318.1804                   21285316.4384
 -38654722.15248 -30073344.39546  20666117.6254                   20666113.5904
 11  7 29  2 16 30.0000000  0  8G09G17G25G10G04G12G05G02
 -17068855.55546 -13041800.19942  24568725.3054                   24568727.3754
 -76643465.20747 -59672437.23044  23797855.5704   23797854.4964   12547417.56647
   9816143.59045                  23195884.1804                   23195885.6134
 -27453716.02748 -21349093.85546  21005017.7344                   21005015.1484
 -50848065.09447 -39571123.98445  22426401.6644                   22426400.6524
 -17598308.63748 -13670299.84846  20944326.5004                   20944324.0704
  -8681521.79348  -6722840.52746  21253144.0784                   21253141.8674
 -38738330.62548 -30138493.82846  20650207.3594                   20650203.3284
 11  7 29  2 17  0.0000000  0  8G09G17G25G10G04G12G05G02
 -17081224.43046 -13051438.33642  24566371.3054                   24566373.1094
 -76676023.06647 -59697806.98844  23791660.3204   23791658.8404   12364671.62947
   9673744.15244                  23161108.8444                   23161109.5704
 -27521791.44948 -21402139.61346  20992063.0164                   20992061.1724
 -50863062.37547 -39582810.21945  22423547.9844                   22423546.0784
 -17726554.06648 -13770231.34446  20919922.2424                   20919920.2464
  -8850139.42248  -6854230.85246  21221057.1804                   21221055.3484
 -38821675.99248 -30203438.24246  20634347.4844                   20634343.4264
 11  7 29  2 17 30.0000000  0  8G09G17G25G10G04G12G05G02
 -17093583.77746 -13061069.06643  24564019.8834                   24564021.1764
 -76708380.59447 -59723020.66444  23785502.8364   23785501.4304   12182268.18447
   9531611.60945                  23126398.6334                   23126399.3634
 -27589231.17648 -21454690.04346  20979229.6724                   20979228.2034
 -50877977.55547 -39594432.47745  22420709.5704                   22420708.3244
 -17854236.10548 -13869723.83246  20895625.1954                   20895623.0594
  -9018297.84048  -6985263.34846  21189057.3204                   21189055.4224
 -38904761.39548 -30268180.10546  20618536.6024                   20618532.3164
 11  7 29  2 18  0.0000000  0  8G09G17G25G10G04G12G05G02
 -17105935.44946 -13070693.81243  24561669.4064                   24561671.4344
 -76740536.11346 -59748076.91044  23779383.3674   23779382.9414   12000211.41847
   9389749.19944                  23091754.3674                   23091754.6604
 -27656034.70348 -21506744.72346  20966516.9384                   20966515.3444
 -50892810.88347 -39605990.94945  22417886.9144                   22417884.9574
 -17981351.81648 -13968775.03546  20871435.6334                   20871433.4024
  -9185993.13748  -7115934.97346  21157145.9844                   21157143.8914
 -38987586.31648 -30332719.00046  20602775.4064                   20602771.8134
 11  7 29  2 18 30.0000000  0  8G09G17G25G10G04G12G05G02
 -17118284.24646 -13080316.30143  24559319.4384                   24559321.6054
 -76772490.98046 -59772976.81644  23773303.1094   23773302.0004   11818502.23847
   9248157.60944                  23057176.3674                   23057176.7114
 -27722204.54748 -21558305.62546  20953925.7114                   20953923.8954
 -50907565.50047 -39617488.07044  22415079.0944                   22415077.0514
 -18107901.29348 -14067385.00446  20847354.4534                   20847352.2894
  -9353224.46948  -7246245.06646  21125323.1174                   21125320.9414
 -39070153.71148 -30397057.22746  20587063.5634                   20587059.2894
 11  7 29  2 19  0.0000000  0  8G09G17G25G10G04G12G05G02
 -17130637.51646 -13089942.33643  24556968.7034                   24556970.1994
 -76804249.26647 -59797723.52744  23767259.9304   23767258.5904   11637139.11347
   9106835.69144                  23022664.3594                   23022664.5314
 -27787746.42248 -21609377.19546  20941453.0084                   20941451.7114
 -50922246.95747 -39628928.20744  22412285.1254                   22412283.6764
 -18233887.59848 -14165556.14846  20823380.1094                   20823377.4184
  -9519993.85947  -7376195.20346  21093588.0084                   21093585.8484
 -39152468.79748 -30461198.84046  20571399.6644                   20571395.7384
 11  7 29  2 19 30.0000000  0  8G09G17G25G10G04G12G05G02
 -17142995.79346 -13099572.21142  24554616.6334                   24554618.1524
 -76835808.34846 -59822315.01644  23761253.9534   23761253.4844   11456127.17247
   8965787.41045                  22988218.7274                   22988219.2734
 -27852658.95348 -21659958.37946  20929100.4924                   20929098.9964
 -50936854.31247 -39640310.59444  22409505.6254                   22409503.3284
 -18359306.90248 -14263285.44946  20799513.5784                   20799511.0984
  -9686296.46948  -7505781.60946  21061941.4844                   21061940.0204
 -39234530.64548 -30525143.13346  20555783.7274                   20555779.6254
 11  7 29  2 20  0.0000000  0  8G09G17G25G10G04G12G05G02
 -17155362.56246 -13109208.76643  24552263.1564                   24552265.7774
 -76867168.35246 -59846751.37544  23755286.8444   23755285.8404   11275468.43447
   8825014.38745                  22953840.6564                   22953841.0514
 -27916944.11748 -21710050.69546  20916867.7584                   20916865.9024
 -50951389.70347 -39651636.88344  22406739.3674                   22406737.3984
 -18484157.74648 -14360571.79746  20775755.2034                   20775752.4494
  -9852130.51248  -7635002.90646  21030384.2734                   21030382.3554
 -39316340.94548 -30588891.41446  20540215.3134                   20540211.4614
 11  7 29  2 20 30.0000000  0  8G09G17G25G10G04G12G05G02
 -17167740.43746 -13118853.89542  24549908.6254                   24549910.0204
 -76898328.53946 -59871032.05544  23749357.2664   23749355.8014   11095166.07447
   8684519.03545                  22919530.2114                   22919530.8244
 -27980602.24648 -21759654.41446  20904753.7894                   20904752.6884
 -50965854.01647 -39662907.79744  22403987.2194                   22403985.5824
 -18608439.23848 -14457414.50846  20752105.0474                   20752102.7734
 -10017493.31248  -7763857.00046  20998916.7344                   20998914.6764
 -39397899.75048 -30652443.72746  20524695.5944                   20524691.4104
 11  7 29  2 21  0.0000000  0  8G09G17G25G10G04G12G05G02
 -15604713.63346 -11900910.99243  24847342.8444                   24847344.4104
 -75353869.04346 -58667557.10544  24043258.3054   24043256.9494   12490647.29347
   9771907.03545                  23185081.1804                   23185081.8984
 -26468214.14548 -20581170.18446  21192552.1484                   21192550.2544
 -49404829.66047 -38446525.19944  22701040.1954                   22701038.4734
 -17156727.01648 -13326210.13746  21028356.5784                   21028353.8674
  -8606958.37948  -6664738.84046  21267332.5474                   21267330.6174
 -37903787.03948 -29488200.06246  20809015.5784                   20809011.9414
 11  7 29  2 21 30.0000000  0  8G09G17G25G10G04G12G05G02
 -15617124.96546 -11910582.25043  24844981.4844                   24844982.3324
 -75384631.41846 -58691527.77744  24037403.9384   24037402.8014   12311063.30947
   9631971.48845                  23150907.7974                   23150908.4224
 -26530624.64848 -20629801.72346  21180675.5314                   21180673.9734
 -49419158.46147 -38457690.55544  22698313.2114                   22698312.9064
 -17279867.57448 -13422163.81246  21004923.7034                   21004921.1764
  -8771373.91048  -6792854.79746  21236045.2664                   21236043.2114
 -37984849.12148 -29551365.32046  20793589.7504                   20793586.1764
 11  7 29  2 22  0.0000000  0  8G09G17G25G10G04G12G05G02
 -15629554.62145 -11920267.83242  24842614.9924                   24842617.5824
 -75415191.60946 -58715340.93044  24031589.0164   24031587.3484   12131845.51247
   9492321.29745                  23116803.4844                   23116804.7664
 -26592410.10548 -20677946.21546  21168917.9844                   21168916.0664
 -49433418.31647 -38468802.16844  22695599.5004                   22695598.8874
 -17402432.37148 -13517668.83246  20981600.8054                   20981597.9184
  -8935309.46948  -6920596.75846  21204849.5784                   21204847.6604
 -38065661.52748 -29614336.02746  20778212.1644                   20778207.8284
 11  7 29  2 22 30.0000000  0  8G09G17G25G10G04G12G05G02
 -15642009.12155 -11929972.63752  24840245.6094                   24840247.5354
 -75445552.86346 -58738999.02344  24025811.8674   24025810.4734   11952993.11347
   9352955.83645                  23082769.1564                   23082770.3364
 -26653575.45748 -20725607.51646  21157278.8444                   21157277.1214
 -49447614.39847 -38479864.07444  22692898.7344                   22692898.2274
 -17524423.90648 -13612727.16046  20958386.6884                   20958383.3634
  -9098766.09448  -7047965.52046  21173744.5394                   21173742.8794
 -38146228.95748 -29677115.84446  20762880.6724                   20762876.5124
 11  7 29  2 23  0.0000000  0  8G09G17G25G10G04G12G05G02
 -15654487.50845 -11939696.19942  24837871.7194                   24837874.0354
 -75475710.92646 -58762498.79343  24020072.2034   24020070.9964   11774512.43047
   9213880.03145                  23048805.2274                   23048806.3324
 -26714118.42648 -20772783.83646  21145757.7734                   21145755.7974
 -49461744.16847 -38490874.32844  22690210.0554                   22690208.2934
 -17645836.90248 -13707334.68446  20935282.3674                   20935279.0474
  -9261738.03548  -7174956.60246  21142732.4924                   21142730.2854
 -38226548.82848 -29739702.75446  20747596.1414                   20747592.0354
 11  7 29  2 23 30.0000000  0  8G09G17G25G10G04G12G05G02
 -15666995.71515                  24835490.352
 -75505668.79346 -58785842.58643  24014371.0634   24014370.0904   11596403.26647
   9075093.71145                  23014912.0704                   23014913.2114
 -26774042.95748 -20819478.26646  21134354.7344                   21134352.9654
 -49475811.98047 -38501836.28944  22687532.6804                   22687531.5204
 -17766673.31248 -13801492.91446  20912287.7034                   20912284.6914
  -9424225.65648  -7301570.29746  21111811.4454                   21111810.3594
 -38306625.05148 -29802099.82046  20732358.2194                   20732354.7814
 11  7 29  2 24  0.0000000  0  8G09G17G25G10G04G12G05G02
 -15679539.52315                  24833104.734
 -75535429.35546 -58809032.61744  24008707.7114   24008706.8634   11418665.20747
   8936596.58645                  22981089.2194                   22981090.1214
 -26833353.50048 -20865694.26246  21123068.0314                   21123066.4494
 -49489822.13347 -38512753.30144  22684867.2974                   22684865.0664
 -17886934.56248 -13895202.96546  20889402.6484                   20889400.0664
  -9586230.29748  -7427807.64846  21080983.2584                   21080981.5664
 -38386461.59848 -29864310.11746  20717165.8594                   20717162.0044
 11  7 29  2 24 30.0000000  0  8G09G17G25G10G04G12G05G02
 -15692122.687 5                  24830709.883
 -75564992.90646 -58832069.10844  24003082.0084   24003081.5274   11241300.32847
   8798390.23045                  22947338.1094                   22947338.3794
 -26892052.19148 -20911433.47746  21111898.2114                   21111896.5314
 -49503776.57047 -38523626.92244  22682211.5784                   22682210.5864
 -18006620.31648 -13988464.57446  20866627.2344                   20866624.4924
  -9747749.46948  -7553666.69946  21050246.8284                   21050245.4384
 -38466060.38748 -29926335.13746  20702018.6024                   20702014.7774
 11  7 29  2 25  0.0000000  0  8G09G17G25G10G04G12G05G02
 -15704745.230 5                  24828306.313
 -75594356.04346 -58854949.49243  23997495.2114   23997493.3594   11064314.28947
   8660479.09845                  22913658.6564                   22913658.2814
 -26950137.34448 -20956694.62546  21100845.2034                   21100843.2624
 -49517673.48047 -38534455.71545  22679566.9614                   22679565.8404
 -18125726.38348 -14081274.49246  20843962.0314                   20843959.2624
  -9908778.41848  -7679143.77046  21019604.2344                   21019602.1954
 -38545419.57448 -29988173.45746  20686916.7814                   20686912.8204
 11  7 29  2 25 30.0000000  0  8G09G17G25G10G04G12G05G02
 -15717411.789 5                  24825897.375
 -75623520.78146 -58877675.27043  23991944.8134   23991944.1804   10887707.74647
   8522863.66445                  22880051.9694                   22880051.9144
 -27007612.38748 -21001480.35946  21089907.9614                   21089905.6914
 -49531516.26247 -38545242.32045  22676932.8204                   22676932.2304
 -18244253.46548 -14173633.23846  20821406.8284                   20821404.4344
 -10069316.94548  -7804238.69546  20989054.6024                   20989052.8984
 -38624541.91848 -30049827.21546  20671860.9224                   20671856.7664
 11  7 29  2 26  0.0000000  0  8G09G17G25G10G04G12G05G02
 -15730125.770 5                  24823477.688
 -75652487.14146 -58900246.44143  23986432.8754   23986431.4454   10711483.07047
   8385545.80545                  22846517.2274                   22846517.8134
 -27064479.19548 -21045792.13346  21079086.4534                   21079084.2544
 -49545306.36747 -38555987.85945  22674308.5234                   22674308.1484
 -18362200.70348 -14265540.16446  20798962.3204                   20798960.1724
 -10229363.18448  -7928950.01246  20958598.5634                   20958597.0594
 -38703428.82448 -30111297.51246  20656849.0084                   20656844.9024
 11  7 29  2 26 30.0000000  0  7G17G25G10G04G12G05G02
 -75681255.47346 -58922663.30543  23980958.3674   23980957.4384   10535642.06647
   8248526.91045                  22813055.7274                   22813057.0704
 -27120739.86748 -21089631.59846  21068380.1954                   21068378.8524
 -49559045.95747 -38566694.06245  22671694.1334                   22671693.4264
 -18479567.46548 -14356994.77346  20776628.3444                   20776626.2974
 -10388915.63348  -8053276.56646  20928237.0704                   20928235.2234
 -38782082.16048 -30172585.82446  20641881.4384                   20641877.6604
 11  7 29  2 27  0.0000000  0  7G17G25G10G04G12G05G02
 -75709827.98046 -58944927.58643  23975520.9774   23975519.6804   10360185.19947
   8111807.35545                  22779667.1254                   22779668.6684
 -27176398.16848 -21133001.68746  21057789.3284                   21057787.6024
 -49572738.39547 -38577363.52744  22669088.4614                   22669087.4574
 -18596355.32848 -14447998.28946  20754404.4144                   20754402.0664
 -10547974.22348  -8177218.29346  20897969.1254                   20897967.4414
 -38860505.18448 -30233694.66846  20626958.2584                   20626954.2384
 11  7 29  2 27 30.0000000  0  7G17G25G10G04G12G05G02
 -75738200.00046 -58967035.68043  23970121.9614   23970120.6994   10185119.42247
   7975392.52045                  22746353.6724                   22746355.1724
 -27231451.24248 -21175900.16046  21047312.3984                   21047310.7384
 -49586380.54347 -38587993.78544  22666492.4534                   22666492.0594
 -18712558.89548 -14538546.51246  20732291.3914                   20732288.9734
 -10706532.82048  -8300770.41046  20867796.2814                   20867794.7304
 -38938694.87548 -30294621.69946  20612079.8594                   20612075.5004
 11  7 29  2 28  0.0000000  0  7G17G25G10G04G12G05G02
 -75766366.14846 -58988983.29343  23964762.0084   23964760.5554   10010452.83647
   7839288.73445                  22713115.6174                   22713116.4064
 -27285895.09048 -21218323.91846  21036951.8054                   21036950.8164
 -49599968.17247 -38598581.57844  22663906.4384                   22663905.8674
 -18828171.25048 -14628634.05546  20710291.6254                   20710288.4384
 -10864583.65248  -8423926.88346  20837720.2344                   20837718.4694
 -39016646.64848 -30355363.32446  20597245.7974                   20597241.6604
 11  7 29  2 28 30.0000000  0  7G17G25G10G04G12G05G02
 -75794326.54746 -59010770.64143  23959441.3754   23959439.6804
   9836187.60948   7703497.70745  22679954.0634                   22679955.3164
 -27339731.88748 -21260274.65646  21026707.3834                   21026705.8754
 -49613502.94147 -38609128.16044  22661331.1954                   22661330.1804
 -18943191.83248 -14718260.46946  20688403.3914                   20688401.0744
 -11022124.86348  -8546686.23846  20807741.3914                   20807739.6844
 -39094361.95748 -30415920.69546  20582456.7664                   20582453.0354
 11  7 29  2 29  0.0000000  0  7G17G25G10G04G12G05G02
 -75822083.19946 -59032399.18443  23954159.2814   23954158.5634
   9662323.94148   7568019.55145  22646869.0474                   22646870.2304
 -27392965.32448 -21301755.22746  21016577.5004                   21016575.4414
 -49626988.50447 -38619636.39844  22658765.3054                   22658763.8014
 -19057622.25448 -14807427.02346  20666628.3134                   20666625.8364
 -11179157.08248  -8669048.97746  20777859.0004                   20777857.2384
 -39171844.46148 -30476296.67246  20567712.3754                   20567708.0274
 11  7 29  2 29 30.0000000  0  7G17G25G10G04G12G05G02
 -74274215.07446 -57826268.19943  24248710.0704   24248707.2894
  11064290.46548   8660461.05145  22913653.9924                   22913655.7034
 -25870175.10548 -20115165.42246  21306354.3834                   21306352.7424
 -48065005.48047 -37402506.77044  22956000.1334                   22955999.5164
 -17596037.19148 -13668529.56646  20944758.7424                   20944755.7624
  -9760252.64148  -7563409.12146  21047867.5864                   21047865.6054
 -37673672.28148 -29308889.76246  20852805.2424                   20852800.7934
 11  7 29  2 30  0.0000000  0  7G17G25G10G04G12G05G02
 -74301566.78946 -57847581.22343  24243504.5864   24243502.5634
  10891235.39548   8525612.95745  22880722.5944                   22880724.3714
 -25922209.50048 -20155711.66846  21296453.0164                   21296450.7344
 -48078398.59047 -37412942.93044  22953452.5164                   22953450.6644
 -17709286.28148 -13756775.59846  20923207.8364                   20923205.3204
  -9916262.82848  -7684975.46946  21018179.8204                   21018178.0744
 -37750694.25048 -29368906.87546  20838148.5314                   20838144.1174
 11  7 29  2 30 30.0000000  0  7G17G25G10G04G12G05G02
 -74328719.82446 -57868739.44943  24238337.1094   24238335.3954
  10718584.60247   8391079.87945  22847868.5234                   22847868.8674
 -25973650.86748 -20195795.83646  21286664.2424                   21286662.2974
 -48091751.12947 -37423347.50044  22950911.2734                   22950909.5394
 -17821947.10248 -13844563.25046  20901769.0784                   20901766.6214
 -10071762.96948  -7806144.38346  20988589.4144                   20988587.6334
 -37827491.25048 -29428748.68746  20823534.4384                   20823530.2074
 11  7 29  2 31  0.0000000  0  7G17G25G10G04G12G05G02
 -74355671.54346 -57889740.73843  24233208.7814   24233207.1134
  10546342.62947   8256865.35945  22815091.6254                   22815092.1254
 -26024498.55547 -20235417.38745  21276987.9224                   21276985.8014
 -48105062.28947 -37433719.79344  22948378.0234                   22948376.2424
 -17934016.75048 -13931890.25046  20880443.3054                   20880440.9734
 -10226748.83248  -7926912.55546  20959096.2894                   20959094.3674
 -37904062.61348 -29488414.68446  20808963.3284                   20808958.6914
 11  7 29  2 31 30.0000000  0  7G17G25G10G04G12G05G02
 -74382421.97746 -57910585.25443  24228117.8524   24228116.5594
  10374512.06347   8122971.40645  22782393.5004                   22782393.5594
 -26074754.47747 -20274577.81646  21267424.1644                   21267422.8324
 -48118333.22747 -37444060.78144  22945852.4774                   22945850.9104
 -18045494.71548 -14018756.18446  20859229.7974                   20859227.0434
 -10381218.35548  -8047278.37146  20929701.5634                   20929699.6884
 -37980409.35248 -29547905.62946  20794435.1334                   20794430.6524
 11  7 29  2 32  0.0000000  0  7G17G25G10G04G12G05G02
 -74408976.38746 -57931277.00243  24223064.6884   24223062.7114
  10203090.20347   7989395.91445  22749772.9454                   22749772.4304
 -26124425.59047 -20313282.54746  21257972.3054                   21257970.5314
 -48131570.28947 -37454375.37144  22943333.5084                   22943331.7974
 -18156384.92248 -14105164.13746  20838128.1024                   20838125.5434
 -10535175.00448  -8167244.54746  20900404.8134                   20900402.7544
 -38056537.79348 -29607226.49646  20779948.2344                   20779943.6174
 11  7 29  2 32 30.0000000  0  7G17G25G10G04G12G05G02
 -74435334.96147 -57951816.12543  24218049.5784   24218047.6644
  10032079.48047   7856140.80945  22717230.7664                   22717230.2774
 -26173513.89847 -20351533.13345  21248631.4144                   21248629.0594
 -48144774.84047 -37464664.63344  22940821.1174                   22940819.7114
 -18266686.93448 -14191113.75046  20817138.1724                   20817135.6134
 -10688617.17248  -8286809.83246  20871205.7664                   20871203.5824
 -38132449.08648 -29666378.15646  20765502.8364                   20765498.3284
 11  7 29  2 33  0.0000000  0  7G17G25G10G04G12G05G02
 -74461492.74647 -57972198.75843  24213071.6334   24213069.7814
   9861487.19947   7723211.74245  22684767.7194                   22684768.7464
 -26222016.17247 -20389327.07446  21239401.4774                   21239399.3014
 -48157943.22747 -37474925.71144  22938315.7424                   22938314.3204
 -18376394.99248 -14276600.55146  20796261.1174                   20796258.7774
 -10841537.89148  -8405968.80146  20842105.5944                   20842104.1884
 -38208139.45748 -29725357.66846  20751099.1954                   20751095.3404
 11  7 29  2 33 30.0000000  0  7G17G25G10G04G12G05G02
 -74487454.59047 -57992428.72744  24208130.9144   24208130.0394
   9691310.82447   7590606.76645  22652384.4304                   22652384.9614
 -26269939.46147 -20426669.87546  21230282.5234                   21230280.1174
 -48171081.62947 -37485163.41844  22935815.0084                   22935813.8554
 -18485513.34848 -14361627.83246  20775496.8674                   20775494.4614
 -10993940.38348  -8524723.96146  20813104.6024                   20813102.7234
 -38283615.18748 -29784169.93046  20736737.0634                   20736732.5634
 11  7 29  2 34  0.0000000  0  7G17G25G10G04G12G05G02
 -74513217.69547 -58012503.88343  24203229.2894   24203226.4964
   9521555.56347   7458329.92645  22620080.7114                   22620081.8244
 -26317282.88747 -20463560.82445  21221272.6484                   21221270.6134
 -48184188.51247 -37495376.54744  22933320.7344                   22933319.4924
 -18594038.80548 -14446193.11746  20754845.3444                   20754842.8834
 -11145820.01648  -8643071.69946  20784202.6334                   20784201.1804
 -38358874.52048 -29842813.57046  20722415.4924                   20722411.1454
 11  7 29  2 34 30.0000000  0  7G17G25G10G04G12G05G02
 -74538782.39847 -58032424.41044  24198363.9304   24198362.5664
   9352223.70347   7326383.03945  22587858.3054                   22587859.7074
 -26364048.30147 -20500001.37146  21212374.1414                   21212371.3634
 -48197265.14147 -37505566.13744  22930832.3914                   22930830.8014
 -18701970.53548 -14530295.75846  20734306.1484                   20734303.9104
 -11297175.76648  -8761011.23046  20755400.1884                   20755398.8444
 -38433918.55148 -29901289.43046  20708135.2034                   20708130.5864
 11  7 29  2 35  0.0000000  0  7G17G25G10G04G12G05G02
 -74564149.96147 -58052191.31244  24193536.2814   24193534.2664
   9183316.65647   7194767.17645  22555716.1884                   22555717.5784
 -26410238.85248 -20535993.98446  21203584.0634                   21203581.8754
 -48210313.69147 -37515733.81644  22928349.4064                   22928348.1054
 -18809308.59448 -14613935.80146  20713880.6024                   20713878.0474
 -11448005.94148  -8878541.20746  20726698.6884                   20726696.8054
 -38508749.52348 -29959599.28146  20693895.1954                   20693890.6414
 11  7 29  2 35 30.0000000  0  8G29G17G25G10G04G12G05G02
  31248381.14856  24384960.80153  24564589.8524                   24564591.1174
 -74589319.79347 -58071804.11344  24188746.8054   24188745.4804
   9014837.06347   7063484.38345  22523655.9304                   22523657.0354
 -26455856.34047 -20571540.06646  21194903.1884                   21194901.0434
 -48223335.12947 -37525880.40644  22925871.1724                   22925870.2194
 -18916052.84848 -14697113.12946  20693567.7894                   20693565.1884
 -11598308.94948  -8995660.40646  20698097.0164                   20698095.0864
 -38583368.32848 -30017743.80146  20679696.0234                   20679691.5474
 11  7 29  2 36  0.0000000  0  8G29G17G25G10G04G12G05G02
  31072672.22746  24248044.76243  24531153.4224                   24531154.7814
 -74614295.87947 -58091265.98444  24183994.9064   24183993.0234
   8846783.27347   6932533.40245  22491675.6954                   22491677.9104
 -26500906.54748 -20606644.09045  21186330.5234                   21186328.0704
 -48236334.68047 -37536009.90644  22923398.0164                   22923396.4224
 -19022206.44148 -14779830.21146  20673367.6884                   20673365.0474
 -11748087.09448  -9112370.62146  20669594.9844                   20669593.3324
 -38657780.10248 -30075727.00446  20665535.9774                   20665531.2304
 11  7 29  2 36 30.0000000  0  8G29G17G25G10G04G12G05G02
  30896897.59446  24111077.49243  24497705.5474                   24497705.2154
 -74639085.65246 -58110582.68444  24179275.6884   24179275.5274
   8679150.24647   6801910.29745  22459776.8134                   22459777.7194
 -26545399.21148 -20641313.66446  21177863.4774                   21177861.5664
 -48249320.93747 -37546129.00444  22920926.3134                   22920925.1764
 -19127776.22348 -14862092.38346  20653278.3754                   20653276.0824
 -11897346.19948  -9228676.38346  20641192.0084                   20641190.1884
 -38731993.40648 -30133555.55946  20651413.4064                   20651408.9884
 11  7 29  2 37  0.0000000  0  8G29G17G25G10G04G12G05G02
  30721060.46946  23974061.53543  24464243.8834                   24464244.4534
 -74663686.66447 -58129752.30544  24174595.1954   24174594.0664
   8511943.24647   6671619.16845  22427957.6024                   22427959.6094
 -26589333.53548 -20675548.18746  21169503.3204                   21169501.6374
 -48262292.07447 -37556236.38344  22918457.9844                   22918457.1884
 -19232758.65648 -14943896.87546  20633300.6484                   20633298.2384
 -12046081.68448  -9344574.14146  20612888.5944                   20612886.8204
 -38806006.42248 -30191228.04346  20637329.4144                   20637324.7234
 11  7 29  2 37 30.0000000  0  8G29G17G25G10G04G12G05G02
  32120590.07446  25064604.08643  24730565.4064                   24730565.4924
 -73112674.95746 -56921171.72344  24469742.5554   24469741.3484
   9920593.18847   7769268.52745  22696015.1094                   22696016.6884
 -25057286.75848 -19481745.49646  21461041.8834                   21461040.0004
 -46699825.83247 -36338730.23444  23215785.3834                   23215784.8244
 -17761726.94548 -13797638.39846  20913229.0394                   20913226.2734
 -10618863.85948  -8232456.33246  20884478.9614                   20884477.0824
 -37304394.90248 -29021141.13746  20923076.6094                   20923071.9774
 11  7 29  2 38  0.0000000  0  8G29G17G25G10G04G12G05G02
  31944636.69946                  24927497.51643  24697083.4694   24697082.8794
 -73136890.77746 -56940041.26644  24465134.4384   24465134.0314
   9754252.57447   7639652.50445  22664362.0314                   22664363.1294
 -25100102.62948 -19515108.49245  21452893.9064                   21452892.5664
 -46712762.93447 -36348811.07444  23213323.2894                   23213322.8914
 -17865526.28148 -13878520.99646  20893476.4534                   20893474.0864
 -10766540.00848  -8347528.62146  20856377.3284                   20856375.1524
 -37378003.69948 -29078498.63746  20909069.0704                   20909064.7304
 11  7 29  2 38 30.0000000  0  8G29G17G25G10G04G12G05G02
  31768627.58646                  24790347.55143  24663589.8594   24663590.7194
 -73160912.67647 -56958759.63344  24460563.5164   24460561.6454
   9588350.13347   7510377.93445  22632791.2344                   22632793.0044
 -25142360.82847 -19548036.94546  21444853.0164                   21444851.4104
 -46725683.30547 -36358878.92244  23210864.9064                   23210863.9144
 -17968731.61348 -13958940.74246  20873836.8754                   20873834.3444
 -10913682.29348  -8462184.92246  20828376.7894                   20828375.0004
 -37451410.38748 -29135698.64846  20895100.3054                   20895096.0234
 11  7 29  2 39  0.0000000  0  8G29G17G25G10G04G12G05G02
  31592562.31646                  24653153.81643  24630084.4844   24630086.6644
 -73184742.26647 -56977328.17644  24456029.0634   24456027.8094
   9422887.29347   7381445.90245  22601304.5164                   22601306.1254
 -25184064.57048 -19580533.36745  21436917.0234                   21436915.1724
 -46738588.98047 -36368935.29744  23208408.8134                   23208408.1174
 -18071343.93048 -14038898.38346  20854310.5314                   20854308.3484
 -11060290.09848  -8576424.73046  20800478.2664                   20800476.1024
 -37524616.89548 -29192742.68446  20881169.4694                   20881165.3754
 11  7 29  2 39 30.0000000  0  8G29G17G25G10G04G12G05G02
  31416442.91446                  24515917.90243  24596571.2584   24596573.2584
 -73208377.01646 -56995744.88744  24451531.9924   24451530.3954
   9257868.08247   7252859.53945  22569902.6174                   22569903.8134
 -25225214.24647 -19612598.05145  21429086.2274                   21429084.7544
 -46751479.24647 -36378979.67244  23205956.6174                   23205955.4534
 -18173360.93448 -14118392.15246  20834897.5704                   20834894.9844
 -11206360.35248  -8690245.68446  20772682.1024                   20772679.9964
 -37597622.71148 -29249630.33646  20867276.3834                   20867272.4414
 11  7 29  2 40  0.0000000  0  8G29G17G25G10G04G12G05G02
  31240268.60246                  24378639.22343  24563045.5944   24563048.6134
 -73231818.82046 -57014011.26644  24447070.9614   24447069.8324
   9093293.38347   7124619.53945  22538584.6564                   22538585.9144
 -25265813.64147 -19644233.93445  21421360.6724                   21421358.4024
 -46764356.55546 -36389013.93044  23203505.9694                   23203504.5394
 -18274783.46148 -14197422.69146  20815597.1644                   20815595.0084
 -11351892.98848  -8803647.71146  20744987.7894                   20744985.9264
 -37670430.30948 -29306363.55146  20853422.0084                   20853418.0354
 11  7 29  2 40 30.0000000  0  8G29G17G25G10G04G12G05G02
  31064040.97347                  24241318.96543  24529511.5234   24529513.5554
 -73255066.93446 -57032126.72743  24442646.6334   24442645.5234
   8929166.32447   6996728.39145  22507352.7034                   22507353.6374
 -25305863.74647 -19675441.80945  21413739.1094                   21413737.4104
 -46777221.16446 -36399038.29744  23201057.4774                   23201056.5084
 -18375610.21948 -14275988.99246  20796410.9774                   20796408.2194
 -11496885.52348  -8916628.86746  20717396.8444                   20717395.0234
 -37743040.13348 -29362942.65246  20839604.9304                   20839600.9774
 11  7 29  2 41  0.0000000  0  8G29G17G25G10G04G12G05G02
  30887760.88346                  24103957.85943  24495965.5474   24495969.1844
 -73278121.52746 -57050091.31644  24438259.8054   24438258.9614
   8765489.48847   6869188.04345  22476205.7734                   22476207.1484
 -25345366.57047 -19706223.23845  21406222.1024                   21406220.3164
 -46790073.93746 -36409053.45744  23198611.9224                   23198610.3834
 -18475840.83248 -14354090.77746  20777337.4384                   20777334.8794
 -11641336.07048  -9029187.71946  20689908.4844                   20689907.0164
 -37815452.73448 -29419368.07846  20825825.2034                   20825820.9774
 11  7 29  2 41 30.0000000  0  8G29G17G25G10G04G12G05G02
  30711427.19546                  23966554.98843  24462410.0944   24462413.3834
 -73300983.62546 -57067905.93443  24433909.5944   24433908.3834
   8602263.71148   6741999.16845  22445145.5474                   22445146.7854
 -25384325.72347 -19736581.02745  21398808.2974                   21398806.4184
 -46802917.30547 -36419061.28143  23196167.5944                   23196165.9224
 -18575476.34448 -14431728.84046  20758377.1644                   20758374.8164
 -11785244.92248  -9141324.45746  20662523.6884                   20662522.1804
 -37887670.77748 -29475641.89846  20812082.6804                   20812078.2774
 11  7 29  2 42  0.0000000  0  8G29G17G25G10G04G12G05G02
  30535044.99646                  23829114.34443  24428845.6644   24428848.6134
 -73323649.07446 -57085567.29743  24429596.0864   24429594.6174
   8439495.43047   6615166.77745  22414171.3284                   22414172.6524
 -25422739.37947 -19766513.74645  21391498.4694                   21391496.9184
 -46815748.21947 -36429059.41044  23193725.9304                   23193724.6844
 -18674512.40248 -14508899.78946  20739531.2034                   20739528.9774
 -11928606.07448  -9253034.41446  20635243.2504                   20635241.0944
 -37959691.10248 -29531761.65246  20798377.3524                   20798373.7504
 11  7 29  2 42 30.0000000  0  8G29G17G25G10G04G12G05G02
  30358609.62946                  23691632.33243  24395271.6174   24395272.9144
 -73346123.16046 -57103079.62543  24425319.6644   24425317.9654
   8277182.04348   6488688.85545  22383284.2584                   22383285.4534
 -25460614.55547 -19796026.89146  21384291.3284                   21384289.2934
 -46828572.58647 -36439052.44943  23191286.2344                   23191284.0984
 -18772953.52348 -14585607.15246  20720798.7194                   20720796.3054
 -12071423.08648  -9364320.37146  20608065.7424                   20608063.6294
 -38031519.45748 -29587731.81646  20784709.3054                   20784705.0274
 11  7 29  2 43  0.0000000  0  8G29G17G25G10G04G12G05G02
  30182124.27746                  23554111.41443  24361686.8984   24361688.1484
 -73368403.76646 -57120441.14143  24421079.6174   24421078.0704
   8115328.13748   6362568.96945  22352484.3134                   22352485.6724
 -25497951.09848 -19825120.30145  21377186.4774                   21377183.7424
 -46841388.91047 -36449039.19144  23188846.7194                   23188845.6954
 -18870797.10548 -14661848.90246  20702179.6094                   20702176.7934
 -12213692.10248  -9475179.32446  20580993.0554                   20580991.2894
 -38103154.86348 -29643551.62946  20771077.5704                   20771073.3204
 11  7 29  2 43 30.0000000  0  8G29G17G25G10G04G12G05G02
  30005588.90246                  23416551.53143  24328093.4774   24328092.8444
 -73390491.61346 -57137652.44543  24416876.2114   24416874.5004
   7953935.33247   6236808.40245  22321772.7584                   22321773.3714
 -25534751.91847 -19853796.27745  21370183.5394                   21370181.2234
 -46854198.84447 -36459020.95744  23186409.1804                   23186407.8014
 -18968043.67248 -14737625.44146  20683673.8754                   20683671.9884
 -12355412.46148  -9585610.74246  20554024.3834                   20554022.5204
 -38174598.88748 -29699222.30146  20757481.8984                   20757478.2384
 11  7 29  2 44  0.0000000  0  8G29G17G25G10G04G12G05G02
  29829004.63346                  23278953.48043  24294490.9924   24294490.1884
 -73412386.26645 -57154713.25442  24412709.1334   24412707.7624
   7793006.39548   6111409.26245  22291148.7664                   22291149.8674
 -25571018.75048 -19882056.15246  21363282.2344                   21363280.0514
 -46867002.92247 -36468998.14844  23183972.5554                   23183971.7734
 -19064692.25448 -14812936.02346  20665282.8134                   20665280.2814
 -12496582.23848  -9695613.15646  20527160.8364                   20527158.8594
 -38245851.84848 -29754744.08246  20743922.9224                   20743918.8094
 11  7 29  2 44 30.0000000  0  7G29G25G10G04G12G05G02
  29652371.73446                  23141317.59043  24260879.4774   24260877.9534
   7632543.13748   5986372.99245  22260613.2344                   22260614.1724
 -25606754.56648 -19909902.25845  21356482.0944                   21356479.7114
 -46879802.48447 -36478971.89544  23181537.1564                   23181536.4264
 -19160743.45748 -14887781.10946  20647005.1024                   20647002.3054
 -12637200.39848  -9805185.72346  20500402.0554                   20500400.2734
 -38316915.20348 -29810118.12946  20730399.8594                   20730396.4104
 11  7 29  2 45  0.0000000  0  7G29G25G10G04G12G05G02
  29475693.29346                  23003646.18443  24227258.3204   24227256.9304
   7472550.08647   5861703.13345  22230167.7274                   22230168.0394
 -25641959.02048 -19937334.29745  21349782.5394                   21349780.5594
 -46892596.23847 -36488941.09044  23179102.0004                   23179102.0904
 -19256194.43748 -14962158.48846  20628840.9614                   20628839.0434
 -12777263.03948  -9914325.42246  20473749.2114                   20473746.8524
 -38387787.75848 -29865343.50446  20716913.3674                   20716909.5824
 11  7 29  2 45 30.0000000  0  7G29G25G10G04G12G05G02
  29298969.24246                  22865939.25443  24193628.2584   24193627.5944
   7313028.81647   5737400.87945  22199812.1334                   22199812.0084
 -25676634.98048 -19964354.52345  21343183.6414                   21343181.9454
 -46905385.60247 -36498906.84044  23176668.2814                   23176667.8984
 -19351045.87548 -15036068.69946  20610791.4384                   20610788.4144
 -12916769.85948 -10023032.00846  20447201.3754                   20447199.4384
 -38458471.58248 -29920421.80946  20703463.3134                   20703459.2114
 11  7 29  2 46  0.0000000  0  7G29G25G10G04G12G05G02
  30697627.39546                  23955802.88343  24459783.5234   24459784.4494
   8729408.07847   6841073.07045  22469339.8524                   22469339.7624
 -24135362.46547 -18763362.96545  21636478.1644                   21636476.0124
 -45342750.05947 -35281268.78944  23474029.3754                   23474028.0824
 -17869872.94948 -13881907.96146  20892649.5634                   20892646.7734
 -11480293.78148  -8903699.98446  20720553.9774                   20720551.6884
 -36953543.59848 -28747750.63746  20989841.1804                   20989837.2154
 11  7 29  2 46 30.0000000  0  7G29G25G10G04G12G05G02
  30520821.19146                  23818031.93843  24426139.3444   24426139.3984
   8570843.84448   6717516.55145  22439165.8524                   22439166.8094
 -24168981.81247 -18789559.85945  21630081.4224                   21630078.9534
 -45355526.77047 -35291224.69144  23471597.1334                   23471596.5664
 -17963517.88748 -13954878.04346  20874828.8054                   20874826.3164
 -11618677.85248  -9011531.70746  20694220.3524                   20694218.0044
 -37023845.00048 -28802530.93446  20976463.2114                   20976459.2974
 11  7 29  2 47  0.0000000  0  7G29G25G10G04G12G05G02
  30343970.54346                  23680226.36743  24392485.7664   24392485.3984
   8412757.19948   6594332.16846  22409083.1644                   22409083.8954
 -24202080.23447 -18815350.85545  21623782.6564                   21623779.9614
 -45368302.74647 -35301180.05144  23469166.6094                   23469164.9844
 -18056563.83648 -14027381.36346  20857122.9924                   20857120.4804
 -11756502.84448  -9118927.78146  20667993.3364                   20667990.9534
 -37093960.87948 -28857166.65646  20963120.3754                   20963116.6024
 11  7 29  2 47 30.0000000  0  7G29G25G10G04G12G05G02
  30167076.23846                  23542386.72343  24358824.0474   24358822.6524
   8255150.08647   6471521.46945  22379091.7114                   22379092.6254
 -24234660.57847 -18840738.14145  21617582.4924                   21617580.8244
 -45381078.99647 -35311135.60244  23466734.4534                   23466734.3714
 -18149011.11348 -14099418.20746  20839531.4614                   20839528.3364
 -11893767.51248  -9225887.25046  20641872.3054                   20641870.1134
 -37163892.12148 -28911658.51646  20949812.8834                   20949808.6414
 11  7 29  2 48  0.0000000  0  7G29G25G10G04G12G05G02
  29990141.73446                  23404515.83243  24325153.0944   24325153.3324
   8098027.41047   6349088.25446  22349192.4844                   22349192.8484
 -24266722.45747 -18865721.44545  21611480.8284                   21611479.4144
 -45393853.71446 -35321089.94644  23464303.7424                   23464303.2274
 -18240856.57848 -14170986.09046  20822053.4384                   20822050.8134
 -12030468.27348  -9332407.29746  20615859.3524                   20615856.9024
 -37233637.68048 -28966005.66846  20936540.7504                   20936537.1294
 11  7 29  2 48 30.0000000  0  7G29G25G10G04G12G05G02
  29813166.40646                  23266613.10943  24291476.3444   24291476.5864
   7941390.07847   6227033.23045  22319384.8444                   22319385.4494
 -24298269.41448 -18890303.50845  21605478.6644                   21605476.2894
 -45406628.90246 -35331044.65244  23461872.6564                   23461872.0634
 -18332101.46548 -14242085.99646  20804690.2034                   20804687.6724
 -12166605.03948  -9438487.87546  20589952.8834                   20589950.9184
 -37303199.48448 -29020209.62946  20923303.6094                   20923299.7114
 11  7 29  2 49  0.0000000  0  7G29G25G10G04G12G05G02
  29636148.31646                  23128677.05143  24257791.1724   24257790.7774
   7785237.62948   6105356.03145  22289670.0234                   22289670.9024
 -24329306.68047 -18914488.37945  21599572.0864                   21599569.8484
 -45419408.09446 -35341002.50843  23459440.5944                   23459440.0904
 -18422748.30948 -14312719.89846  20787441.0554                   20787437.8754
 -12302179.03948  -9544129.93746  20564154.4694                   20564152.2384
 -37372581.07848 -29074273.16446  20910100.9774                   20910096.9924
 11  7 29  2 49 30.0000000  0  7G29G25G10G04G12G05G02
  29459089.71146                  22990709.41044  24224097.5004   24224099.0354
   7629573.53548   5984059.36746  22260048.1724                   22260049.0204
 -24359835.16847 -18938276.83245  21593762.6094                   21593760.7544
 -45432190.76646 -35350963.03543  23457008.5004                   23457007.2734
 -18512796.39148 -14382887.23846  20770304.9614                   20770302.1884
 -12437187.74648  -9649331.50446  20538462.6724                   20538460.7074
 -37441781.91448 -29128195.84046  20896932.0944                   20896928.3954
 11  7 29  2 50  0.0000000  0  7G29G25G10G04G12G05G02
  29281986.14846                  22852706.74644  24190396.5394   24190397.8164
   7474394.94148   5863141.02045  22230517.9774                   22230519.7504
 -24389862.21147 -18961674.55145  21588048.6024                   21588046.0984
 -45444982.79746 -35360930.89543  23454574.1484                   23454572.7664
 -18602250.54748 -14452591.76646  20753282.5004                   20753280.0044
 -12571634.99248  -9754095.57046  20512878.7034                   20512876.2234
 -37510808.13748 -29181982.43446  20883796.9144                   20883792.8444
 11  7 29  2 50 30.0000000  0  7G29G25G10G04G12G05G02
  29104839.92046                  22714670.83644  24156686.7194   24156687.0944
   7319704.82448   5742603.31645  22201081.9304                   22201082.4614
 -24419389.24247 -18984682.63745  21582429.7274                   21582428.1884
 -45457783.85546 -35370905.77343  23452138.7814                   23452136.9384
 -18691109.68048 -14521832.65246  20736373.1724                   20736370.6524
 -12705518.72348  -9858420.53547  20487401.6724                   20487399.2114
 -37579659.38748 -29235632.69146  20870695.0164                   20870691.1414
 11  7 29  2 51  0.0000000  0  7G29G25G10G04G12G05G02
  28927653.06347                  22576603.26644  24122969.0234   24122969.2774
   7165506.80548   5622449.05145  22171738.6484                   22171739.7384
 -24448417.19547 -19007301.83245  21576906.1724                   21576903.8134
 -45470593.42247 -35380887.26643  23449701.1804                   23449700.2274
 -18779372.68748 -14590609.02346  20719577.0164                   20719574.7464
 -12838836.55148  -9962304.52746  20462031.6804                   20462029.6684
 -37648335.34448 -29289146.34046  20857626.1484                   20857621.8954
 11  7 29  2 51 30.0000000  0  7G29G25G10G04G12G05G02
  28750426.41447                  22438504.66444  24089243.8674   24089243.8794
   7011802.89548   5502679.80945  22142489.6484                   22142490.3794
 -24476948.77047 -19029534.24245  21571476.8134                   21571474.6254
 -45483412.22347 -35390875.95343  23447262.2344                   23447260.5594
 -18867039.57448 -14658920.87946  20702894.8754                   20702892.6174
 -12971586.98048 -10065746.40247  20436770.2274                   20436767.8914
 -37716837.16448 -29342524.32046  20844590.5864                   20844586.4224
 11  7 29  2 52  0.0000000  0  7G29G25G10G04G12G05G02
  28573159.92646                  22300375.03944  24055509.9304   24055510.2304
   6858594.37948   5383296.59046  22113335.4694                   22113336.4654
 -24504986.93447 -19051382.16045  21566141.2274                   21566138.8954
 -45496241.79347 -35400873.00443  23444820.5394                   23444818.7734
 -18954111.53148 -14726769.16046  20686325.4384                   20686322.9494
 -13103770.02048 -10168746.13746  20411616.3834                   20411614.2344
 -37785165.96548 -29395767.46146  20831588.3594                   20831583.9104
 11  7 29  2 52 30.0000000  0  7G29G25G10G04G12G05G02
  28395852.25846                  22162213.35944  24021770.0634   24021769.2504
   6705880.96148   5264299.17246  22084275.0474                   22084275.9414
 -24532536.68747 -19072849.50845  21560898.8134                   21560896.6094
 -45509085.46147 -35410881.04744  23442376.7974                   23442374.9264
 -19040590.89848 -14794155.68446  20669868.6414                   20669866.7114
 -13235386.97748 -10271304.78946  20386570.6564                   20386568.6724
 -37853325.25848 -29448878.51646  20818617.8524                   20818613.6454
 11  7 29  2 53  0.0000000  0  7G29G25G10G04G12G05G02
  28218503.85246                  22024019.90243  23988020.8134   23988020.4774
   6553664.44148   5145688.92646  22055309.6334                   22055310.0594
 -24559600.87947 -19093938.51245  21555748.4924                   21555746.5514
 -45521944.32847 -35420900.94144  23439929.4534                   23439928.2894
 -19126478.07048 -14861080.76646  20653525.3594                   20653522.9024
 -13366437.02348 -10373421.68446  20361632.5784                   20361630.7774
 -37921316.09048 -29501858.30146  20805679.7194                   20805675.2384
 11  7 29  2 53 30.0000000  0  7G29G25G10G04G12G05G02
  28041118.78146                  21885797.85943  23954265.7504   23954264.7894
   6401950.10948   5027469.98846  22026438.8914                   22026439.2624
 -24586178.41048 -19114648.29345  21550691.5554                   21550689.0784
 -45534815.59047 -35430930.52744  23437480.7194                   23437479.5784
 -19211769.94148 -14927541.96546  20637294.4304                   20637292.4574
 -13496915.74248 -10475093.40247  20336803.0634                   20336800.8014
 -37989136.44548 -29554705.25446  20792773.4694                   20792769.0594
 11  7 29  2 54  0.0000000  0  7G29G25G10G04G12G05G02
  29439123.45746                  22975152.26243  24220297.1414   24220297.3794
   7826164.32848   6137247.33646  22297457.9614                   22297458.2304
 -23036851.68747 -17907380.73845  21845518.1414                   21845516.1214
 -43972280.21147 -34213370.49244  23734821.0554                   23734819.5784
 -17721044.95348 -13765938.07846  20920970.3914                   20920967.8834
 -12051398.68748  -9348716.44947  20611876.1174                   20611873.7274
 -36481365.45748 -28379818.70746  21079693.1724                   21079688.7304
 11  7 29  2 54 30.0000000  0  7G29G25G10G04G12G05G02
  29261666.88346                  22836874.46944  24186528.5784   24186528.8244
   7675459.21548   6019814.80146  22268779.8834                   22268779.4344
 -23062464.66047 -17927338.91445  21840644.1804                   21840642.1214
 -43985179.55947 -34223421.91444  23732366.9614                   23732365.2424
 -17805148.55548 -13831473.35946  20904965.6484                   20904963.2464
 -12180732.89548  -9449496.34446  20587264.8834                   20587262.7274
 -36548848.25048 -28432402.65246  21066851.4304                   21066847.0554
 11  7 29  2 55  0.0000000  0  7G29G25G10G04G12G05G02
  29084175.88346                  22698569.87144  24152753.5084   24152754.1054
   7525261.32848   5902777.50846  22240198.0704                   22240197.7034
 -23087599.53147 -17946924.53145  21835861.2114                   21835858.9574
 -43998094.37547 -34233485.44544  23729909.0554                   23729907.6024
 -17888658.81248 -13896546.28546  20889074.6564                   20889071.9844
 -12309494.36748  -9549829.94146  20562761.9924                   20562760.0394
 -36616163.72348 -28484856.23046  21054041.6804                   21054037.2734
 11  7 29  2 55 30.0000000  0  7G29G25G10G04G12G05G02
  28906653.42646                  22560240.71944  24118972.0634   24118972.1644
   7375575.22748   5786139.00046  22211713.5554                   22211713.5904
 -23112256.28947 -17966137.59845  21831168.9454                   21831167.0004
 -44011022.79347 -34243559.52043  23727448.1724                   23727447.3014
 -17971573.51248 -13961155.14546  20873296.2344                   20873293.8984
 -12437679.02348  -9649714.07047  20538369.3914                   20538367.4104
 -36683310.34048 -28537178.22746  21041263.8204                   21041259.5204
 11  7 29  2 56  0.0000000  0  7G29G25G10G04G12G05G02
  28729097.26246                  22421885.30944  24085184.3054   24085184.2814
   7226399.46948   5669898.17246  22183326.4614                   22183326.2194
 -23136440.49247 -17984982.43045  21826567.4534                   21826565.2504
 -44023969.00447 -34253647.51243  23724984.0314                   23724983.7894
 -18053896.30948 -14025302.78146  20857630.9844                   20857628.2854
 -12565289.39848  -9749150.71947  20514085.5864                   20514083.7074
 -36750292.38348 -28589371.98446  21028517.6484                   21028513.3914
 11  7 29  2 56 30.0000000  0  7G29G25G10G04G12G05G02
  28551508.03146                  22283504.10543  24051390.2034   24051389.5354
   7077735.75048   5554056.34046  22155036.5084                   22155036.0354
 -23160155.27047 -18003461.48045  21822054.3754                   21822052.5274
 -44036933.60547 -34263749.83243  23722517.7034                   23722517.0434
 -18135627.78948 -14088989.66046  20842077.9454                   20842075.4774
 -12692324.89548  -9848139.40647  20489911.6644                   20489910.0594
 -36817110.52048 -28641438.03146  21015802.7034                   21015797.9774
 11  7 29  2 57  0.0000000  0  7G29G25G10G04G12G05G02
  28373886.71946                  22145097.89543  24017589.9064   24017589.1644
   6929585.97348   5438614.96945  22126844.5084                   22126844.2344
 -23183403.35947 -18021576.87945  21817630.2814                   21817628.5784
 -44049917.60246 -34273867.27043  23720046.3444                   23720046.2034
 -18216768.28948 -14152216.02046  20826636.8594                   20826634.3794
 -12818785.11348  -9946679.82847  20465847.1724                   20465845.1374
 -36883765.81648 -28693377.20346  21003118.4384                   21003114.3674
 11  7 29  2 57 30.0000000  0  7G29G25G10G04G12G05G02
  28196235.05947                  22006668.05143  23983783.3524   23983782.6954
   6781952.57448   5323575.98445  22098750.6564                   22098750.8794
 -23206186.42647 -18039329.93745  21813294.6334                   21813292.9774
 -44062920.77346 -34283999.66043  23717571.8984                   23717571.6604
 -18297317.93748 -14214981.98046  20811309.2734                   20811306.6564
 -12944667.89848 -10044770.30947  20441892.6094                   20441890.3874
 -36950258.65248 -28745189.79746  20990465.5784                   20990460.9104
 11  7 29  2 58  0.0000000  0  7G29G25G10G04G12G05G02
  28018554.18447                  21868215.48843  23949972.7274   23949971.1374
   6634837.85948   5208941.16446  22070756.2194                   22070756.3984
 -23228506.47747 -18056722.19145  21809047.6564                   21809045.5704
 -44075943.55947 -34294147.27343  23715093.6254                   23715093.1374
 -18377276.60548 -14277287.44546  20796093.3204                   20796091.0434
 -13069972.62548 -10142410.35547  20418047.6094                   20418045.5664
 -37016589.44148 -28796876.11746  20977843.3204                   20977838.4384
 11  7 29  2 58 30.0000000  0  7G29G25G10G04G12G05G02
  27840846.46147                  21729741.98444  23916155.8754   23916154.2424
   6488244.97748   5094712.94946  22042859.7814                   22042860.4494
 -23250365.27747 -18073755.02345  21804887.8134                   21804886.0664
 -44088985.25447 -34304309.67243  23712612.2114                   23712611.0664
 -18456643.87548 -14339132.05946  20780990.1884                   20780987.7424
 -13194697.00048 -10239598.17646  20394313.5554                   20394310.9614
 -37082757.51248 -28848435.64546  20965251.7194                   20965247.3324
 11  7 29  2 59  0.0000000  0  7G29G25G10G04G12G05G02
  27663108.19146                  21591244.69144  23882332.7274   23882331.7074
   6342171.25448   4980889.31646  22015063.6174                   22015063.7114
 -23271769.72347 -18090433.83245  21800814.3524                   21800812.9924
 -44102050.90247 -34314490.72743  23710125.8754                   23710124.6684
 -18535424.61348 -14400519.66446  20765998.8674                   20765996.5314
 -13318844.59848 -10336336.55947  20370688.9064                   20370686.9574
 -37148768.43748 -28899872.73846  20952690.0084                   20952685.3874
 11  7 29  2 59 30.0000000  0  7G29G25G10G04G12G05G02
  27485343.27346                  21452726.61343  23848504.9924   23848503.6174
   6196621.13748   4867473.65246  21987365.7814                   21987366.1994
 -23292719.58247 -18106758.40245  21796828.0474                   21796826.0274
 -44115138.83247 -34324689.12943  23707635.7814                   23707634.6174
 -18613616.34048 -14461448.28146  20751119.5554                   20751117.1914
 -13442412.25448 -10432623.05547  20347175.0234                   20347172.9654
 -37214620.12548 -28951185.74646  20940158.8444                   20940154.4264
 11  7 29  3  0  0.0000000  0  7G29G25G10G04G12G05G02
  27307552.32046                  21314188.23044  23814672.6954   23814672.0204
   6051595.99648   4754467.06646  21959768.3444                   21959769.0784
 -23313218.06247 -18122731.25445  21792927.2344                   21792925.5434
 -44128249.77347 -34334905.43743  23705140.1884                   23705139.4654
 -18691220.34848 -14521918.93046  20736352.0394                   20736349.5164
 -13565399.84048 -10528457.53147  20323771.0944                   20323769.0824
 -37280313.90648 -29002375.73046  20927657.9534                   20927653.4614
 11  7 29  3  0 30.0000000  0  7G29G25G10G04G12G05G02
  27129739.23846                  21175632.62543  23780835.0004   23780834.6484
   5907100.40648   4641873.12146  21932272.0704                   21932272.9964
 -23333265.09847 -18138352.30945  21789112.0554                   21789110.4184
 -44141381.53547 -34345137.99243  23702642.1724                   23702641.2194
 -18768234.52348 -14581929.97746  20721696.6564                   20721694.2854
 -13687803.67648 -10623837.14847  20300478.4064                   20300476.4654
 -37345847.84048 -29053441.12546  20915187.0704                   20915183.1174
 11  7 29  3  1  0.0000000  0  7G29G25G10G04G12G05G02
  26951901.83246                  21037058.09444  23746994.5784   23746994.4224
   5763133.21948   4529690.93446  21904875.6024                   21904876.2274
 -23352866.35947 -18153626.02045  21785382.3834                   21785380.6454
 -44154537.75047 -34355389.61744  23700138.2194                   23700136.7464
 -18844662.10548 -14641483.93046  20707153.0234                   20707150.5704
 -13809626.27048 -10718763.84447  20277296.2344                   20277294.1334
 -37411225.75848 -29104384.96546  20902746.0554                   20902742.3014
 11  7 29  3  1 30.0000000  0  7G29G25G10G04G12G05G02
  26774037.32847                  20898462.43044  23713148.6094   23713147.5204
   5619692.39148   4417918.88746  21877579.8054                   21877580.8524
 -23372028.16447 -18168557.30945  21781736.1644                   21781734.5634
 -44167722.70347 -34365663.63743  23697629.7504                   23697627.8984
 -18920507.36348 -14700584.14146  20692720.2344                   20692717.8754
 -13930871.02748 -10813240.27347  20254224.2894                   20254222.0554
 -37476452.03548 -29155210.61746  20890333.9144                   20890329.7894
 11  7 29  3  2  0.0000000  0  7G29G25G10G04G12G05G02
  26596150.25847                  20759849.17644  23679297.6804   23679297.4104
   5476782.79348   4306560.79346  21850385.0164                   21850385.9304
 -23390749.94147 -18183145.69945  21778173.4144                   21778172.1334
 -44180933.92647 -34375958.08243  23695116.0864                   23695114.3404
 -18995768.47348 -14759229.16046  20678398.5084                   20678395.9344
 -14051533.19548 -10907262.74247  20231262.9694                   20231260.7234
 -37541524.53148 -29205916.46146  20877951.3054                   20877946.9414
 11  7 29  3  2 30.0000000  0  7G29G25G10G04G12G05G02
  27993666.51247                  21848822.96144  23945236.2034   23945235.1484
   6909830.04748   5423221.02046  22123085.1484                   22123085.9494
 -21833614.41047 -16969793.34445  22074486.3834                   22074484.8554
 -42618752.23047 -33158673.61743  23992389.1484                   23992387.3164
 -17495023.95348 -13589817.85546  20963980.7504                   20963978.2114
 -12596189.74248  -9773228.88747  20508205.3674                   20508203.6454
 -36031022.41848 -28028901.83246  21165390.2114                   21165385.9964
 11  7 29  3  3  0.0000000  0  7G29G25G10G04G12G05G02
  27815732.90646                  21710173.44944  23911376.0944   23911375.6804
   6767984.03548   5312691.69146  22096092.2974                   22096093.8754
 -21851467.85547 -16983705.12945  22071089.7894                   22071088.0784
 -42632021.43747 -33169013.27343  23989863.9844                   23989862.6804
 -17569122.29348 -13647556.81246  20949880.3594                   20949877.6294
 -12715690.34848  -9866346.23447  20485465.3754                   20485463.5554
 -36095792.86748 -28079372.33246  21153064.8364                   21153060.5824
 11  7 29  3  3 30.0000000  0  7G29G25G10G04G12G05G02
  27637781.08247                  21571509.72744  23877512.3364   23877512.0474
   6626675.80548   5202581.41046  22069202.2344                   22069203.5354
 -21868887.83247 -16997279.14145  22067774.3834                   22067773.0864
 -42645317.09047 -33179373.53543  23987333.8054                   23987332.3524
 -17642637.10548 -13704841.09446  20935890.8984                   20935888.0084
 -12834605.99648  -9959007.77347  20462836.4774                   20462834.4804
 -36160410.19548 -28129723.49646  21140768.4844                   21140764.3244
 11  7 29  3  4  0.0000000  0  7G29G25G10G04G12G05G02
  27459804.42647                  21432826.66044  23843645.0474   23843644.0274
   6485899.33648   5092885.48046  22042413.2034                   22042414.6844
 -21885884.58247 -17010523.35545  22064540.3054                   22064538.1914
 -42658647.25846 -33189760.73843  23984797.2504                   23984796.0164
 -17715576.47748 -13761676.96546  20922010.8284                   20922008.5594
 -12952943.71148 -10051218.97347  20440317.7584                   20440315.6094
 -36224882.71148 -28179961.83246  21128499.6334                   21128495.8674
 11  7 29  3  4 30.0000000  0  7G29G25G10G04G12G05G02
  27281809.73847                  21294129.54344  23809774.4144   23809773.1094
   6345661.41448   4983609.21146  22015727.2664                   22015728.4574
 -21902455.78947 -17023435.98845  22061386.9304                   22061384.9694
 -42672007.45746 -33200171.31243  23982254.7424                   23982253.3484
 -17787936.09848 -13818061.08646  20908241.4454                   20908238.8404
 -13070698.00048 -10142975.54747  20417909.6804                   20417907.6684
 -36289206.04748 -28230083.94546  21116259.6024                   21116255.5394
 11  7 29  3  5  0.0000000  0  7G29G25G10G04G12G05G02
  27103796.80947                  21155418.21544  23775899.5554   23775897.8874
   6205962.61348   4874753.03146  21989142.9924                   21989143.7544
 -21918605.27347 -17036019.99245  22058313.4614                   22058311.2424
 -42685399.12146 -33210606.41843  23979706.3834                   23979705.2074
 -17859717.93448 -13873994.99646  20894581.5704                   20894578.8914
 -13187869.18048 -10234277.75047  20395612.7344                   20395610.8284
 -36353382.10248 -28280091.27046  21104047.0704                   21104043.0004
 11  7 29  3  5 30.0000000  0  7G29G25G10G04G12G05G02
  26925768.63747                  21016695.06344  23742022.0234   23742020.5594
   6066806.49648   4766319.71946  21962662.4534                   21962663.0784
 -21934333.77047 -17048275.96145  22055320.6254                   22055318.5514
 -42698820.84846 -33221064.91843  23977151.8914                   23977150.9774
 -17930920.84048 -13929477.78146  20881032.1094                   20881029.6294
 -13304454.92648 -10325123.76247  20373427.4064                   20373425.0664
 -36417409.32048 -28329982.62146  21091863.5784                   21091858.8594
 11  7 29  3  6  0.0000000  0  7G29G25G10G04G12G05G02
  26747724.80947                  20877959.68444  23708141.4844   23708139.4304
   5928193.26648   4658309.42646  21936285.3834                   21936286.5204
 -21949645.03947 -17060206.81245  22052406.8914                   22052405.0514
 -42712274.37546 -33231548.18743  23974592.3284                   23974590.8794
 -18001547.20748 -13984511.33246  20867592.6174                   20867590.0234
 -13420456.53148 -10415514.59847  20351352.7894                   20351350.8364
 -36481289.94548 -28379759.74646  21079707.4384                   21079702.8524
 11  7 29  3  6 30.0000000  0  7G29G25G10G04G12G05G02
  26569669.20747                  20739215.12544  23674258.0554   23674256.0124
   5790126.96948   4550725.32846  21910012.1644                   21910012.9804
 -21964539.48847 -17071812.88345  22049572.9534                   22049570.7584
 -42725757.96946 -33242054.84843  23972026.3204                   23972025.2814
 -18071594.91448 -14039093.96946  20854263.0704                   20854260.2664
 -13535870.80148 -10505447.75847  20329390.2974                   20329388.2504
 -36545022.43448 -28429421.44146  21067579.5084                   21067574.9774
 11  7 29  3  7  0.0000000  0  7G29G25G10G04G12G05G02
  26391601.84047                  20600461.39544  23640372.4064   23640371.1214
   5652608.23448   4443567.88346  21883843.6024                   21883843.9414
 -21979020.84847 -17083097.06245  22046816.4694                   22046814.8014
 -42739272.66446 -33252585.77043  23969454.4384                   23969453.6294
 -18141066.28948 -14093227.50846  20841042.7894                   20841040.5554
 -13650698.05548 -10594923.49247  20307539.3594                   20307536.9694
 -36608608.07448 -28478968.69946  21055479.2504                   21055475.0824
 11  7 29  3  7 30.0000000  0  7G29G25G10G04G12G05G02
  26213522.96947                  20461698.69544  23606484.6334   23606484.3094
   5515637.39548   4336837.38746  21857778.7504                   21857778.9654
 -21993093.12947 -17094062.48045  22044138.8054                   22044137.0704
 -42752820.35946 -33263142.43043  23966876.0864                   23966875.7584
 -18209963.39848 -14146913.58646  20827931.8134                   20827929.7274
 -13764939.63348 -10683942.85247  20285799.6804                   20285797.3094
 -36672048.81248 -28528403.06246  21043407.0474                   21043402.9454
 11  7 29  3  8  0.0000000  0  7G29G25G10G04G12G05G02
  26035436.11346                  20322929.77044  23572595.8834   23572595.6804
   5379218.36748   4230536.85946  21831819.1254                   21831819.0354
 -22006756.27347 -17104709.10944  22041538.6484                   22041537.0704
 -42766398.96946 -33273723.15243  23964292.2344                   23964290.8444
 -18278284.53548 -14200150.85246  20814930.9224                   20814928.7934
 -13878592.76648 -10772503.68747  20264172.1484                   20264170.0314
 -36735342.97348 -28577723.19146  21031362.5394                   21031358.3874
 11  7 29  3  8 30.0000000  0  7G29G25G10G04G12G05G02
  25857340.99247                  20184154.36744  23538706.3524   23538706.1484
   5243351.18448   4124666.34846  21805964.1334                   21805964.5084
 -22020014.46147 -17115040.18045  22039015.7504                   22039013.7624
 -42780010.53946 -33284329.57443  23961701.6564                   23961701.3554
 -18346032.59048 -14252941.54346  20802038.9844                   20802036.6644
 -13991658.55148 -10860606.84047  20242656.9064                   20242654.3634
 -36798492.66048 -28626930.76246  21019345.7664                   21019341.3714
 11  7 29  3  9  0.0000000  0  7G29G25G10G04G12G05G02
  25679235.78147                  20045371.16444  23504813.8834   23504813.6644
   5108034.27348   4019224.62946  21780214.5394                   21780214.4494
 -22032873.80547 -17125060.48045  22036568.9924                   22036567.1134
 -42793658.46146 -33294964.41843  23959105.5164                   23959104.0864
 -18413211.29748 -14305288.59046  20789255.6564                   20789253.0394
 -14104139.61748 -10948254.36747  20221251.9844                   20221249.8674
 -36861501.64148 -28676028.65246  21007355.2274                   21007351.3634
 11  7 29  3  9 30.0000000  0  7G29G25G10G04G12G05G02
  25501124.82047                  19906583.48444  23470920.2344   23470919.1214
   4973272.26248   3914215.27346  21754570.3364                   21754570.0984
 -22045333.68047 -17134769.48845  22034198.0554                   22034196.7114
 -42807339.81246 -33305625.18743  23956502.1174                   23956500.7894
 -18479818.52348 -14357190.33646  20776581.0784                   20776578.2974
 -14216032.75448 -11035443.77347  20199959.7814                   20199957.1414
 -36924367.08248 -28725014.71146  20995392.6724                   20995388.2624
 11  7 29  3 10  0.0000000  0  7G29G25G10G04G12G05G02
  25323006.85547                  19767790.37144  23437025.6414   23437025.2544
   4839063.87548   3809637.34846  21729030.7734                   21729031.8444
 -22057399.60247 -17144171.52345  22031901.1334                   22031900.8164
 -42821057.80146 -33316314.48043  23953890.5784                   23953890.6094
 -18545857.92248 -14408649.60946  20764013.9384                   20764011.1334
 -14327340.22748 -11122176.80547  20178778.3754                   20178776.1524
 -36987092.57447 -28773891.72346  20983455.9384                   20983451.8444
 11  7 29  3 10 30.0000000  0  7G29G25G10G04G12G05G02
  26720309.27347                  20856597.56344  23702922.9224   23702922.4844
   6280835.34448   4933095.66046  22003390.9304                   22003391.6994
 -20493653.31247 -15925667.93745  22329472.4774                   22329471.1484
 -41259391.94146 -32099432.00043  24251065.9614                   24251065.4884
 -17035908.27748 -13232065.47346  21051347.7194                   21051345.2704
 -12862637.88748  -9980850.25447  20457501.8754                   20457499.4184
 -35474256.46947 -27595058.40246  21271339.1334                   21271334.7114
 11  7 29  3 11  0.0000000  0  7G29G25G10G04G12G05G02
  26542183.76247                  20717798.55144  23669027.6094   23669026.3794
   6147741.34848   4829386.07046  21978064.1644                   21978064.2384
 -20504936.50047 -15934460.03545  22327325.5394                   22327324.0084
 -41273181.58246 -32110177.19143  24248441.5784                   24248441.6724
 -17100812.82848 -13282640.44946  21038996.5164                   21038994.2344
 -12972770.72348 -10066667.98847  20436544.1174                   20436542.0234
 -35536701.05948 -27643716.52746  21259456.3984                   21259452.3014
 11  7 29  3 11 30.0000000  0  7G29G25G10G04G12G05G02
  26364052.97747                  20578995.44544  23635130.0784   23635129.4414
   6015203.32848   4726109.72746  21952842.6484                   21952843.2274
 -20515835.65247 -15942952.88345  22325251.5554                   22325249.9224
 -41287010.68746 -32120953.13743  24245810.6724                   24245810.4454
 -17165154.52048 -13332776.83246  21026752.7814                   21026750.2584
 -13082319.27048 -10152030.42647  20415697.7504                   20415695.4494
 -35599009.48048 -27692268.55546  21247599.1884                   21247595.3984
 11  7 29  3 12  0.0000000  0  7G29G25G10G04G12G05G02
  26185917.69947                  20440188.85945  23601231.5554   23601230.5944
   5883221.90648   4623267.09046  21927727.4304                   21927727.4384
 -20526354.18447 -15951149.15645  22323250.7274                   22323248.0044
 -41300880.45346 -32131760.75443  24243171.2584                   24243170.6684
 -17228935.46948 -13382476.27346  21014616.0084                   21014613.2814
 -13191284.05948 -10236937.99647  20394962.6094                   20394960.2624
 -35661182.98048 -27740715.46146  21235768.3054                   21235763.8164
 11  7 29  3 12 30.0000000  0  7G29G25G10G04G12G05G02
  26007780.68047                  20301380.85944  23567333.1884   23567332.0004
   5751800.03148   4520860.45346  21902718.7274                   21902719.0784
 -20536493.45347 -15959049.87945  22321321.1884                   22321319.2234
 -41314789.79746 -32142599.21943  24240524.8204                   24240523.9574
 -17292154.92648 -13431738.18746  21002585.2424                   21002583.0944
 -13299663.40648 -10321389.37947  20374338.3364                   20374336.4184
 -35723220.60948 -27789056.46946  21223963.0164                   21223958.7544
 11  7 29  3 13  0.0000000  0  7G29G25G10G04G12G05G02
  25829644.47347                  20162573.47744  23533434.5084   23533434.2234
   5620940.12148   4418891.73446  21877817.1954                   21877817.1524
 -20546254.98847 -15966656.28545  22319462.7194                   22319461.3484
 -41328737.80546 -32153467.81643  24237870.6724                   24237869.2734
 -17354813.53548 -13480563.08646  20990662.0394                   20990659.6684
 -13407456.65248 -10405384.05947  20353825.9844                   20353823.5944
 -35785121.53148 -27837290.95746  21212183.7114                   21212179.6054
 11  7 29  3 13 30.0000000  0  7G29G25G10G04G12G05G02
  25651509.18447                  20023766.83244  23499536.9694   23499536.3594
   5490642.24648   4317360.94546  21853021.8134                   21853022.0824
 -20555643.05147 -15973971.67645  22317675.8834                   22317675.4614
 -41342726.12146 -32164367.82443  24235208.0704                   24235207.7384
 -17416913.39848 -13528952.58646  20978845.1024                   20978842.0864
 -13514664.34448 -10488922.47747  20333425.0164                   20333422.7934
 -35846887.87547 -27885420.58246  21200429.9304                   21200426.0314
 11  7 29  3 14  0.0000000  0  7G29G25G10G04G12G05G02
  25473374.11347                  19884960.34844  23465638.5084   23465638.9184
   5360905.68448   4216267.55546  21828333.8984                   21828334.2974
 -20564662.16047 -15980999.54745  22315960.2664                   22315958.4804
 -41356756.79746 -32175300.84443  24232538.7034                   24232537.4884
 -17478457.47348 -13576909.00046  20967133.4844                   20967130.2424
 -13621288.39848 -10572006.10947  20313134.9384                   20313132.9574
 -35908522.08248 -27933447.24646  21188701.5164                   21188697.3284
 11  7 29  3 14 30.0000000  0  7G29G25G10G04G12G05G02
  25295243.12947                  19746157.03544  23431741.2424   23431741.3954
   5231734.29748   4115614.54346  21803753.6254                   21803753.7384
 -20573312.44547 -15987740.03945  22314313.8834                   22314312.2974
 -41370827.74646 -32186265.27743  24229861.0634                   24229860.8634
 -17539444.94548 -13624431.70746  20955527.7584                   20955525.0904
 -13727326.27348 -10654632.99247  20292956.9844                   20292954.7814
 -35970022.13348 -27981369.37146  21176998.1334                   21176993.9454
 11  7 29  3 15  0.0000000  0  7G29G25G10G04G12G05G02
  25117113.50447                  19607354.79744  23397844.4694   23397844.6564
   5103125.18848   4015399.66446  21779279.8674                   21779280.7504
 -20581600.61347 -15994198.35244  22312737.0164                   22312735.4064
 -41384943.25446 -32197264.36743  24227174.9454                   24227173.9184
 -17599880.81248 -13671524.59846  20944027.0784                   20944024.4494
 -13832782.34048 -10736806.51247  20272889.0944                   20272886.8364
 -36031392.74648 -28029190.63346  21165319.7344                   21165315.4534
 11  7 29  3 15 30.0000000  0  7G29G25G10G04G12G05G02
  24938990.63747                  19468557.82444  23363948.7424   23363948.5434
   4975083.52748   3915626.96146  21754914.1564                   21754915.0704
 -20589525.60947 -16000373.69545  22311229.3674                   22311227.1994
 -41399099.82446 -32208295.48443  24224481.2664                   24224480.1724
 -17659762.36748 -13718185.54746  20932631.9844                   20932629.4774
 -13937652.41048 -10818523.42247  20252932.9534                   20252931.0274
 -36092630.37148 -28076908.26246  21153666.6094                   21153662.4734
 11  7 29  3 16  0.0000000  0  7G29G25G10G04G12G05G02
  24760875.12147                  19329766.59444  23330054.2814   23330054.0514
   4847609.64548   3816296.66446  21730656.5704                   21730657.4414
 -20597091.09447 -16006268.87944  22309788.8674                   22309787.0004
 -41413298.49246 -32219359.43743  24221779.1644                   24221778.3954
 -17719092.02748 -13764416.45746  20921341.9774                   20921340.0274
 -14041937.60948 -10899784.59847  20233088.2274                   20233085.8834
 -36153736.37548 -28124523.34046  21142038.6414                   21142034.5634
 11  7 29  3 16 30.0000000  0  7G29G25G10G04G12G05G02
  24582767.02747                  19190981.14544  23296162.6414   23296160.9304
   4720703.44948   3717408.74646  21706507.5634                   21706508.3984
 -20604300.90647 -16011886.93445  22308417.1414                   22308416.0394
 -41427540.65246 -32230457.21943  24219068.9454                   24219068.2464
 -17777871.84848 -13810218.92646  20910156.5314                   20910154.1454
 -14145639.14848 -10980590.97747  20213354.2344                   20213351.9924
 -36214712.76248 -28172037.41046  21130435.3444                   21130431.0124
 11  7 29  3 17  0.0000000  0  7G29G25G10G04G12G05G02
  24404665.98447                  19052201.20744  23262270.0084   23262268.8594
   4594364.51648   3618962.84046  21682466.1564                   21682466.8094
 -20611159.43047 -16017231.25445  22307112.0474                   22307110.3984
 -41441828.47746 -32241590.56643  24216349.4534                   24216348.3874
 -17836105.62148 -13855595.89146  20899075.0474                   20899072.9454
 -14248758.73848 -11060943.89547  20193731.5474                   20193729.2074
 -36275561.46948 -28219451.99246  21118856.2194                   21118851.6844
 11  7 29  3 17 30.0000000  0  7G29G25G10G04G12G05G02
  24226575.67247                  18913429.60544  23228381.0554   23228379.3204
   4468595.92648   3520961.35246  21658532.9384                   21658533.4534
 -20617667.66047 -16022302.60544  22305874.0704                   22305872.0434
 -41456160.00446 -32252758.03143  24213622.8834                   24213621.2384
 -17893792.18748 -13900546.46946  20888097.9694                   20888095.2734
 -14351294.52348 -11140841.89847  20174219.3914                   20174217.3404
 -36336281.22748 -28266766.09046  21107301.9304                   21107297.3324
 11  7 29  3 18  0.0000000  0  8G29G26G25G10G04G12G05G02
  24048497.78947                  18774667.68044  23194493.4224   23194491.5704
  39105145.34856  30527709.15652  24668084.6564                   24668085.8244
   4343399.07848   3423405.39146  21634708.9844                   21634709.5554
 -20623827.72347 -16027102.65644  22304700.9534                   22304699.7854
 -41470535.06646 -32263959.38343  24210887.5474                   24210885.8634
 -17950932.31648 -13945071.24646  20877224.2114                   20877221.5984
 -14453246.08248 -11220284.64847  20154818.8914                   20154816.1254
 -36396872.05548 -28313979.73046  21095771.7274                   21095767.4454
 11  7 29  3 18 30.0000000  0  8G29G26G25G10G04G12G05G02
  23870428.00047                  18635912.03944  23160607.8054   23160606.1884
  38915810.58645  30380175.65643  24632056.3444                   24632056.0394
   4218769.18448   3326291.18846  21610992.6094                   21610993.4654
 -20629648.55147 -16031638.34044  22303593.9844                   22303592.0004
 -41484959.93746 -32275199.57243  24208142.3364                   24208141.4804
 -18007534.22348 -13989176.63346  20866453.1564                   20866450.9884
 -14554619.84048 -11299277.18047  20135527.9844                   20135525.8674
 -36457340.18748 -28361097.76646  21084264.8674                   21084260.4304
 11  7 29  3 19  0.0000000  0  8G29G26G25G10G04G12G05G02
  25267794.94147                  19724769.49244  23426517.5554   23426515.5474
  40301785.37546  31460156.14543  24895798.6724                   24895798.3714
   5670132.81648   4457223.90646  21887178.0784                   21887178.1524
 -19059711.27747 -14808310.59844  22602342.8594                   22602341.3794
 -39924012.78146 -31058877.14843  24505180.6484                   24505180.1914
 -16488175.20748 -12805260.52346  21155577.6644                   21155575.2814
 -13079991.25448 -10150215.94947  20416140.5634                   20416138.1914
 -34942262.93448 -27180518.09046  21372574.5554                   21372570.4304
 11  7 29  3 19 30.0000000  0  8G29G26G25G10G04G12G05G02
  25089744.54346                  19586028.97744  23392636.0864   23392634.3484
  40112216.41846  31312440.23843  24859724.6484                   24859724.0904
   5546639.03148   4360994.99246  21863677.5554                   21863677.9804
 -19064862.82447 -14812324.77344  22601362.7114                   22601360.8674
 -39938538.62547 -31070195.99243  24502417.1724                   24502415.2304
 -16543704.74248 -12848530.29346  21145011.1174                   21145008.3134
 -13180210.94148 -10228309.21147  20397069.1884                   20397067.2934
 -35002488.51648 -27227447.11746  21361113.8284                   21361109.4734
 11  7 29  3 20  0.0000000  0  8G29G26G25G10G04G12G05G02
  24911707.71147                  19447299.06344  23358756.6804   23358755.5554
  39922536.63746  31164637.93443  24823629.8914                   24823630.1454
   5423716.66048   4265211.35246  21840286.6024                   21840286.8364
 -19069681.88347 -14816079.87944  22600445.9304                   22600443.7664
 -39953113.55546 -31081553.09843  24499643.2424                   24499642.4184
 -16598698.55148 -12891382.61746  21134545.9774                   21134543.8484
 -13279852.12948 -10305951.68047  20378108.3594                   20378105.8794
 -35062591.64548 -27274280.73446  21349676.7664                   21349672.7664
 11  7 29  3 20 30.0000000  0  8G29G26G25G10G04G12G05G02
  24733685.32047                  19308580.38344  23324880.2734   23324879.0944
  39732748.54346  31016751.20343  24787514.9924                   24787513.8444
   5301365.96548   4169873.17246  21817003.6024                   21817004.1564
 -19074172.19947 -14819578.81644  22599591.5164                   22599589.6564
 -39967738.39547 -31092949.15643  24496861.0004                   24496859.4884
 -16653158.90248 -12933819.26246  21124182.3134                   21124179.9614
 -13378915.33648 -10383143.77047  20359257.1644                   20359254.6374
 -35122573.38748 -27321019.77746  21338262.6564                   21338258.4964
 11  7 29  3 21  0.0000000  0  8G29G26G25G10G04G12G05G02
  24555680.44147                  19169875.38344  23291006.7424   23291006.1334
  39542856.39846  30868783.38743  24751379.5704                   24751378.9104
   5179589.04748   4074982.08646  21793830.2974                   21793830.3984
 -19078334.95747 -14822822.53144  22598798.8674                   22598796.7774
 -39982412.18047 -31104383.28143  24494068.3674                   24494067.4224
 -16707085.85248 -12975840.28146  21113920.5704                   21113917.7934
 -13477399.94148 -10459885.01647  20340516.2504                   20340513.8324
 -35182432.85248 -27367663.53146  21326871.5944                   21326867.3794
 11  7 29  3 21 30.0000000  0  8G29G26G25G10G04G12G05G02
  24377696.25447                  19031186.48045  23257137.6564   23257137.2704
  39352865.11346  30720738.35943  24715225.0864                   24715224.7234
   5058389.03948   3980540.53946  21770766.5394                   21770767.8634
 -19082171.02047 -14825811.68444  22598069.1724                   22598067.2464
 -39997132.84447 -31115853.97343  24491267.2424                   24491266.1724
 -16760479.10948 -13017445.42246  21103760.2734                   21103757.7154
 -13575304.50848 -10536174.27347  20321885.5634                   20321882.9264
 -35242168.64148 -27414210.89546  21315504.6254                   21315500.3484
 11  7 29  3 22  0.0000000  0  8G29G26G25G10G04G12G05G02
  24199733.19147                  18892514.02045  23223271.7734   23223271.7274
  39162776.91846  30572617.75843  24679052.5084                   24679051.9224
   4937765.67648   3886548.32846  21747812.7344                   21747813.2544
 -19085684.25447 -14828549.27344  22597400.4064                   22597398.6214
 -40011901.84446 -31127362.31243  24488456.2664                   24488456.0234
 -16813341.12148 -13058636.61746  21093700.8284                   21093698.3524
 -13672630.10248 -10612012.39547  20303364.8914                   20303362.2424
 -35301782.29348 -27460663.09446  21304160.3524                   21304155.9064
 11  7 29  3 22 30.0000000  0  8G29G26G25G10G04G12G05G02
  24021792.99247                  18753859.37944  23189411.4614   23189410.2344
  38972594.65646  30424423.88343  24642862.0394                   24642861.7424
   4817719.96148   3793006.21946  21724968.9224                   21724969.3754
 -19088877.48047 -14831037.53144  22596793.0474                   22596791.7194
 -40026719.32046 -31138908.39843  24485636.0394                   24485635.8754
 -16865673.51248 -13099415.10246  21083742.4924                   21083739.7154
 -13769376.93048 -10687399.52347  20284954.8204                   20284952.6214
 -35361274.30948 -27507020.51646  21292839.5164                   21292834.6374
 11  7 29  3 23  0.0000000  0  8G29G26G25G10G04G12G05G02
  23843878.71147                  18615224.91045  23155555.2734   23155553.7504
  38782323.14846  30276160.48843  24606653.6884                   24606653.8324
   4698254.18448   3699916.02346  21702235.4924                   21702236.1684
 -19091752.16447 -14833277.53944  22596246.6564                   22596243.9224
 -40041583.87946 -31150491.20343  24482808.1954                   24482807.0394
 -16917476.46148 -13139781.04746  21073884.3914                   21073882.0824
 -13865544.21148 -10762335.07447  20266654.4384                   20266652.4414
 -35420643.45748 -27553282.19946  21281541.9614                   21281537.4774
 11  7 29  3 23 30.0000000  0  8G29G26G25G10G04G12G05G02
  23665991.98847                  18476611.94944  23121705.0084   23121703.2194
  38591965.66846  30127830.02743  24570431.0234                   24570429.9774
   4579369.19548   3607278.37146  21679612.4614                   21679612.4224
 -19094310.80947 -14835271.27344  22595759.0084                   22595756.5704
 -40056495.46546 -31162110.64842  24479969.8754                   24479970.0944
 -16968751.62948 -13179735.72746  21064127.4304                   21064124.6024
 -13961132.15248 -10836819.18447  20248464.7814                   20248462.6764
 -35479890.09848 -27599448.41446  21270267.5004                   21270263.3204
 11  7 29  3 24  0.0000000  0  8G29G26G25G10G04G12G05G02
  23488130.21147                  18338018.41044  23087858.4774   23087856.5394
  38401521.20346  29979431.80543  24534189.3754                   24534189.0204
   4461061.94148   3515090.91846  21657099.4534                   21657099.8164
 -19096559.95347 -14837023.84444  22595331.2034                   22595328.9344
 -40071458.27046 -31173770.00443  24477122.8914                   24477122.0944
 -17019504.41048 -13219283.35546  21054469.6334                   21054466.8284
 -14056145.49248 -10910855.55147  20230384.4614                   20230382.2384
 -35539018.74248 -27645522.69946  21259015.8834                   21259011.6334
 11  7 29  3 24 30.0000000  0  8G29G26G25G10G04G12G05G02
  23310297.66447                  18199447.66444  23054018.2034   23054016.6214
  38210995.82046  29830970.54343  24497933.8524                   24497933.5784
   4343336.07048   3423356.47746  21634696.7584                   21634696.6644
 -19098499.85547 -14838535.46144  22594961.9534                   22594960.1134
 -40086469.40646 -31185467.08643  24474266.9064                   24474265.9304
 -17069733.79748 -13258423.15246  21044911.2424                   21044909.0004
 -14150581.27348 -10984441.87547  20212414.0234                   20212411.5314
 -35598026.75848 -27691502.97346  21247787.0784                   21247783.0514
 11  7 29  3 25  0.0000000  0  8G29G26G25G10G04G12G05G02
  23132493.99247                  18060899.43444  23020182.8054   23020181.4064
  38020390.25446  29682446.78943  24461662.8524                   24461662.4734
   4226189.90248   3332073.76246  21612404.4694                   21612404.6254
 -19100135.39547 -14839809.89544  22594650.9304                   22594648.7774
 -40101531.61346 -31197203.87143  24471400.1644                   24471399.4024
 -17119443.72748 -13297158.16846  21035451.7114                   21035449.4344
 -14244442.60548 -11057580.58647  20194552.8444                   20194550.3754
 -35656916.94147 -27737391.42646  21236580.2504                   21236576.4104
 11  7 29  3 25 30.0000000  0  8G29G26G25G10G04G12G05G02
  22954721.32447                  17922375.31644  22986352.8284   22986352.1994
  37829708.16046  29533863.39142  24425377.0864                   24425375.7664
   4109624.84448   3241243.85946  21590222.8594                   21590223.3634
 -19101468.89847 -14840849.00444  22594396.9064                   22594395.8204
 -40116644.30546 -31208980.01643  24468525.0164                   24468523.5704
 -17168635.63348 -13335489.54346  21026090.5164                   21026088.0434
 -14337729.27048 -11130271.49647  20176800.8284                   20176798.7154
 -35715688.77748 -27783187.66046  21225396.5704                   21225392.3204
 11  7 29  3 26  0.0000000  0  8G29G26G25G10G04G12G05G02
  22776981.16047                  17783876.55944  22952530.6094   22952529.7194
  37638952.56346  29385222.69942  24389077.7194                   24389076.3554
   3993641.41848   3150867.17646  21568151.6334                   21568152.3404
 -19102503.34447 -14841655.07044  22594200.3134                   22594198.3244
 -40131807.77046 -31220795.69943  24465639.0864                   24465637.8914
 -17217310.89848 -13373418.32846  21016827.7814                   21016825.9144
 -14430441.98448 -11202515.14547  20159158.2274                   20159155.7154
 -35774343.45747 -27828892.59846  21214235.2114                   21214230.6374
 11  7 29  3 26 30.0000000  0  8G29G26G25G10G04G12G05G02
  22599274.52347                  17645403.90244  22918715.1174   22918713.9844
  37448126.71946  29236527.34443  24352764.1094                   24352763.4494
   3878240.21948   3060944.18446  21546191.6174                   21546192.3364
 -19103241.48047 -14842230.27044  22594059.9924                   22594057.9264
 -40147022.34046 -31232651.26243  24462743.9924                   24462743.1454
 -17265471.73448 -13410946.25446  21007663.0164                   21007660.8014
 -14522581.47348 -11274312.14847  20141624.6644                   20141622.2704
 -35832881.18748 -27874506.41446  21203095.6254                   21203091.1214
 11  7 29  3 27  0.0000000  0  8G29G26G25G10G04G12G05G02
  22421603.63346                  17506959.12544  22884904.5084   22884903.7034
  37257234.20746  29087779.97343  24316439.4064                   24316437.9104
   3763422.27348   2971475.67646  21524342.7114                   21524342.7544
 -19103685.74247 -14842576.44144  22593974.6954                   22593972.8834
 -40162287.32046 -31244546.05943  24459837.7344                   24459839.0554
 -17313119.11748 -13448074.09846  20998596.3984                   20998593.8524
 -14614147.83648 -11345662.53947  20124200.1724                   20124197.8204
 -35891301.77048 -27920028.95346  21191978.5164                   21191974.3914
 11  7 29  3 27 30.0000000  0  8G29G26G25G10G04G12G05G02
  23819397.31647                  18596149.05144  23150896.0474   23150894.9224
  38641705.52046  30166588.84043  24579895.1254                   24579894.1524
   5224613.03148   4110065.89546  21802397.7424                   21802398.0824
 -17528418.00847 -13615095.09844  22893738.0634                   22893736.8834
 -38602181.59846 -30028879.25843  24756717.4924                   24756717.1254
 -15784832.91848 -12257201.73846  21289419.2274                   21289417.5634
 -13129717.90648 -10188963.87147  20406677.7344                   20406675.5664
 -34374182.91847 -26737858.41846  21480676.2114                   21480672.6054
 11  7 29  3 28  0.0000000  0  8G29G26G25G10G04G12G05G02
  23641804.42647                  18457765.02744  23117101.3594   23117099.2114
  38450690.48847  30017746.01643  24543546.6334                   24543545.8794
   5110964.95348   4021508.98446  21780771.3834                   21780771.6454
 -17528281.32047 -13614988.59844  22893764.4534                   22893763.0044
 -38617546.77046 -30040852.11743  24753792.9774                   24753792.4224
 -15831458.09448 -12293533.05146  21280546.9774                   21280544.7584
 -13220138.87948 -10259421.76247  20389471.5784                   20389469.1054
 -34432369.08248 -26783198.28546  21469603.8204                   21469599.8404
 11  7 29  3 28 30.0000000  0  8G29G26G25G10G04G12G05G02
  23464250.93047                  18319411.68845  23083313.7974   23083312.3054
  38259616.72346  29868857.39543  24507186.1724                   24507185.8364
   4997900.31648   3933406.69546  21759255.9614                   21759256.3554
 -17527860.39847 -13614660.63344  22893844.6484                   22893843.1994
 -38632964.80546 -30052866.16443  24750860.1414                   24750859.1174
 -15877577.21948 -12329470.04346  21271771.2974                   21271768.6604
 -13309990.59448 -10329436.06647  20372372.8204                   20372370.3164
 -34490441.03548 -26828449.15646  21458552.9924                   21458549.4414
 11  7 29  3 29  0.0000000  0  8G29G26G25G10G04G12G05G02
  23286741.86347                  18181092.99645  23049535.7194   23049533.4574
  38068491.12946  29719928.43043  24470815.2194                   24470814.6684
   4885423.41448   3845762.39846  21737851.9064                   21737852.5784
 -17527154.52047 -13614110.59444  22893978.9534                   22893977.1994
 -38648431.57046 -30064918.21543  24747915.8524                   24747914.9884
 -15923188.26648 -12365011.12946  21263091.1644                   21263089.1414
 -13399269.34048 -10399003.91047  20355383.9384                   20355380.9344
 -34548395.21548 -26873608.25846  21447524.9144                   21447520.8914
 11  7 29  3 29 30.0000000  0  8G29G26G25G10G04G12G05G02
  23109274.98047                  18042807.16445  23015764.7034   23015762.4024
  37877312.70346  29570958.28543  24434436.3364                   24434434.7154
   4773530.55948   3758573.18446  21716559.4304                   21716560.3164
 -17526170.66447 -13613343.96944  22894166.3054                   22894164.3594
 -38663951.63746 -30077011.72743  24744962.8594                   24744962.2074
 -15968297.49648 -12400161.17646  21254506.8594                   21254504.9924
 -13487980.57848 -10468129.53147  20338502.2974                   20338500.1094
 -34606236.19148 -26918679.13746  21436518.4694                   21436514.3404
 11  7 29  3 30  0.0000000  0  7G29G26G25G10G12G05G02
  22931851.81647                  17904555.42645  22982001.4694   22981999.9414
  37686084.67247  29421949.49243  24398046.6334                   24398045.4884
   4662222.39548   3671839.58646  21695378.4304                   21695379.3134
 -17524911.55547 -13612362.85544  22894406.1804                   22894404.4304
 -16012906.64148 -12434921.56246  21246018.7814                   21246015.9614
 -13576124.77348 -10536813.30547  20321729.1564                   20321726.7504
 -34663964.18048 -26963661.97346  21425532.8364                   21425529.0004
